[[{"header":{"parameterUnit":"m.s-1","parameterCategory":1,"la1":31.0,"la2":29.5877,"lo1":-88.7671,"lo2":-86.6584,"dy":0.0162,"dx":0.0185,"nx":115,"ny":88,"refTime":"2023-05-26T00:00:00:Z","depth":0,"parameterNumber":2,"parameterNumberName":"U-component_of_WINDS"},"data":[0.0,0.0,0.0,0.0,0.0,0.0,0.0,0.0,0.0,0.0,0.0,0.0,0.0,0.0,0.0,0.0,0.0,0.0,0.0,0.0,0.0,0.0,0.0,0.0,0.0,0.0,0.0,0.0,0.0,0.0,0.0,0.0,0.0,0.0,0.0,0.0,0.0,0.0,0.0,0.0,0.0,0.0,0.0,0.0,0.0,0.0,0.0,0.0,0.0,0.0,0.0,0.0,0.0,0.0,0.0,0.0,0.0,0.0,0.0,0.0,0.0,0.0,0.0,0.0,0.0,0.0,0.0,0.0,0.0,0.0,0.0,0.0,0.0,0.0,0.0,0.0,0.0,0.0,0.0,0.0,0.0,0.0,0.0,0.0,0.0,0.0,0.0,0.0,0.0,0.0,0.0,0.0,0.0,0.0,0.0,0.0,0.0,0.0,0.0,0.0,0.0,0.0,0.0,0.0,0.0,0.0,0.0,0.0,0.0,0.0,0.0,0.0,0.0,0.0,0.0,0.0,0.0,0.0,0.0,0.0,0.0,0.0,0.0,0.0,0.0,0.0,0.0,0.0,0.0,0.0,0.0,0.0,0.0,0.0,0.0,0.0,0.0,0.0,0.0,0.0,0.0,0.0,0.0,0.0,0.0,0.0,0.0,0.0,0.0,0.0,0.0,0.0,0.0,0.0,0.0,0.0,0.0,0.0,0.0,0.0,0.0,0.0,0.0,0.0,0.0,0.0,0.0,0.0,0.0,0.0,0.0,0.0,0.0,0.0,0.0,0.0,0.0,0.0,0.0,0.0,0.0,0.0,0.0,0.0,0.0,0.0,0.0,0.0,0.0,0.0,0.0,0.0,0.0,0.0,0.0,0.0,0.0,0.0,0.0,0.0,0.0,0.0,0.0,0.0,0.0,0.0,0.0,0.0,0.0,0.0,0.0,0.0,0.0,0.0,0.0,0.0,0.0,0.0,0.0,0.0,0.0,0.0,0.0,0.0,0.0,0.0,0.0,0.0,0.0,0.0,0.0,0.0,0.0,0.0,0.0,0.0,0.0,0.0,0.0,0.0,0.0,0.0,0.0,0.0,0.0,0.0,0.0,0.0,0.0,0.0,0.0,0.0,0.0,0.0,0.0,0.0,0.0,0.0,0.0,0.0,0.0,0.0,0.0,0.0,0.0,0.0,0.0,0.0,0.0,0.0,0.0,0.0,0.0,0.0,0.0,0.0,0.0,0.0,0.0,0.0,0.0,0.0,0.0,0.0,0.0,0.0,0.0,0.0,0.0,0.0,0.0,0.0,0.0,0.0,0.0,0.0,0.0,0.0,0.0,0.0,0.0,0.0,0.0,0.0,0.0,0.0,0.0,0.0,0.0,0.0,0.0,0.0,0.0,0.0,0.0,0.0,0.0,0.0,0.0,0.0,0.0,0.0,0.0,0.0,0.0,0.0,0.0,0.0,0.0,0.0,0.0,0.0,0.0,0.0,0.0,0.0,0.0,0.0,0.0,0.0,0.0,0.0,0.0,0.0,0.0,0.0,0.0,0.0,0.0,0.0,0.0,0.0,0.0,0.0,0.0,0.0,0.0,0.0,0.0,0.0,0.0,0.0,0.0,0.0,0.0,0.0,0.0,0.0,0.0,0.0,0.0,0.0,0.0,0.0,0.0,0.0,0.0,0.0,0.0,0.0,0.0,0.0,0.0,0.0,0.0,0.0,0.0,0.0,0.0,0.0,0.0,0.0,0.0,0.0,0.0,0.0,0.0,0.0,0.0,0.0,0.0,0.0,0.0,0.0,0.0,0.0,0.0,0.0,0.0,0.0,0.0,0.0,0.0,0.0,0.0,0.0,0.0,0.0,0.0,0.0,0.0,0.0,0.0,0.0,0.0,0.0,0.0,0.0,0.0,0.0,0.0,0.0,0.0,0.0,0.0,0.0,0.0,0.0,0.0,0.0,0.0,0.0,0.0,0.0,0.0,0.0,0.0,0.0,0.0,0.0,0.0,0.0,0.0,0.0,0.0,0.0,0.0,0.0,0.0,0.0,0.0,0.0,0.0,0.0,0.0,0.0,0.0,0.0,0.0,0.0,0.0,0.0,0.0,0.0,0.0,0.0,0.0,0.0,0.0,0.0,0.0,0.0,0.0,0.0,0.0,0.0,0.0,0.0,0.0,0.0,0.0,0.0,0.0,0.0,0.0,0.0,0.0,0.0,0.0,0.0,0.0,0.0,0.0,0.0,0.0,0.0,0.0,0.0,0.0,0.0,0.0,0.0,0.0,0.0,0.0,0.0,0.0,0.0,0.0,0.0,0.0,0.0,0.0,0.0,0.0,0.0,0.0,0.0,0.0,0.0,0.0,0.0,0.0,0.0,0.0,0.0,0.0,0.0,0.0,0.0,0.0,0.0,0.0,0.0,0.0,0.0,0.0,0.0,0.0,0.0,0.0,0.0,0.0,0.0,0.0,0.0,0.0,0.0,0.0,0.0,0.0,0.0,0.0,0.0,0.0,0.0,0.0,0.0,0.0,0.0,0.0,0.0,0.0,0.0,0.0,0.0,0.0,0.0,0.0,0.0,0.0,0.0,0.0,0.0,0.0,0.0,0.0,0.0,0.0,0.0,0.0,0.0,0.0,0.0,0.0,0.0,0.0,0.0,0.0,0.0,0.0,0.0,0.0,0.0,0.0,0.0,0.0,0.0,0.0,0.0,0.0,0.0,0.0,0.0,0.0,0.0,0.0,0.0,0.0,0.0,0.0,0.0,0.0,0.0,0.0,0.0,0.0,0.0,0.0,0.0,0.0,0.0,0.0,0.0,0.0,0.0,0.0,0.0,0.0,0.0,0.0,0.0,0.0,0.0,0.0,0.0,0.0,0.0,0.0,0.0,0.0,0.0,0.0,0.0,0.0,0.0,0.0,0.0,0.0,0.0,0.0,0.0,0.0,0.0,0.0,0.0,0.0,0.0,0.0,0.0,0.0,0.0,0.0,0.0,0.0,0.0,0.0,0.0,0.0,0.0,0.0,0.0,0.0,0.0,0.0,0.0,0.0,0.0,0.0,0.0,0.0,0.0,0.0,0.0,0.0,0.0,0.0,0.0,0.0,0.0,0.0,0.0,0.0,0.0,0.0,0.0,0.0,0.0,0.0,0.0,0.0,0.0,0.0,0.0,0.0,0.0,0.0,0.0,0.0,0.0,0.0,0.0,0.0,0.0,0.0,0.0,0.0,0.0,0.0,0.0,0.0,0.0,0.0,0.0,0.0,0.0,0.0,0.0,0.0,0.0,0.0,0.0,0.0,0.0,0.0,0.0,0.0,0.0,0.0,0.0,0.0,0.0,0.0,0.0,0.0,0.0,0.0,0.0,0.0,0.0,0.0,0.0,0.0,0.0,0.0,0.0,0.0,0.0,0.0,0.0,0.0,0.0,0.0,0.0,0.0,0.0,0.0,0.0,0.0,0.0,0.0,0.0,0.0,0.0,0.0,0.0,0.0,0.0,0.0,0.0,0.0,0.0,0.0,0.0,0.0,0.0,0.0,0.0,0.0,0.0,0.0,0.0,0.0,0.0,0.0,0.0,0.0,0.0,0.0,0.0,0.0,0.0,0.0,0.0,0.0,0.0,0.0,0.0,0.0,0.0,0.0,0.0,0.0,0.0,0.0,0.0,0.0,0.0,0.0,0.0,0.0,0.0,0.0,0.0,0.0,0.0,0.0,0.0,0.0,0.0,0.0,0.0,0.0,0.0,0.0,0.0,0.0,0.0,0.0,0.0,0.0,0.0,0.0,0.0,0.0,0.0,0.0,0.0,0.0,0.0,0.0,0.0,0.0,0.0,0.0,0.0,0.0,0.0,0.0,0.0,0.0,0.0,0.0,0.0,0.0,0.0,0.0,0.0,0.0,0.0,0.0,0.0,0.0,0.0,0.0,0.0,0.0,0.0,0.0,0.0,0.0,0.0,0.0,0.0,0.0,0.0,0.0,0.0,0.0,0.0,0.0,0.0,0.0,0.0,0.0,0.0,0.0,0.0,0.0,0.0,0.0,0.0,0.0,0.0,0.0,0.0,0.0,0.0,0.0,0.0,0.0,0.0,0.0,0.0,0.0,0.0,0.0,0.0,0.0,0.0,0.0,0.0,0.0,0.0,0.0,0.0,0.0,0.0,0.0,0.0,0.0,0.0,0.0,0.0,0.0,0.0,0.0,0.0,0.0,0.0,0.0,0.0,0.0,0.0,0.0,0.0,0.0,0.0,0.0,0.0,0.0,0.0,0.0,0.0,0.0,0.0,1.4348,0.0,0.0,0.0,0.0,0.0,0.0,0.0,0.0,0.0,0.0,0.0,0.0,0.0,0.0,0.0,0.0,0.0,0.0,0.0,0.0,0.0,0.0,0.0,0.0,0.0,0.0,0.0,0.0,0.0,0.0,0.0,0.0,0.0,0.0,0.0,0.0,0.0,0.0,0.0,0.0,0.0,0.0,0.0,0.0,0.0,0.0,0.0,0.0,0.0,0.0,0.0,0.0,0.0,0.0,0.0,0.0,0.0,0.0,0.0,0.0,0.0,0.0,0.0,0.0,0.0,0.0,0.0,0.0,0.0,0.0,0.0,0.0,0.0,0.0,0.0,0.0,0.0,0.0,0.0,0.0,0.0,0.0,0.0,0.0,0.0,0.0,0.0,0.0,0.0,0.0,0.0,0.0,0.0,0.0,0.0,0.0,0.0,0.0,0.0,0.0,0.0,0.0,0.0,0.0,0.0,0.0,0.0,0.0,0.0,0.0,1.3874,1.3977,1.4037,1.4042,1.4092,0.0,0.0,0.0,0.0,0.0,0.0,0.0,0.0,0.0,0.0,0.0,0.0,0.0,0.0,0.0,0.0,0.0,0.0,0.0,0.0,0.0,0.0,0.0,0.0,0.0,0.0,0.0,0.0,0.0,0.0,0.0,0.0,0.0,0.0,0.0,0.0,0.0,0.0,0.0,0.0,0.0,0.0,0.0,0.0,0.0,0.0,0.0,0.0,0.0,0.0,0.0,0.0,0.0,0.0,0.0,0.0,0.0,0.0,0.0,0.0,0.0,0.0,0.0,0.0,0.0,0.0,0.0,0.0,0.0,0.0,0.0,0.0,0.0,0.0,0.0,0.0,0.0,0.0,0.0,0.0,0.0,0.0,0.0,0.0,0.0,0.0,0.0,0.0,0.0,0.0,0.0,0.0,0.0,0.0,0.0,0.0,0.0,0.0,0.0,0.0,0.0,0.0,0.0,0.0,0.0,0.0,0.0,0.0,0.0,0.0,0.0,0.0,1.3813,1.3841,1.3833,0.0,0.0,0.0,0.0,0.0,0.0,0.0,0.0,0.0,0.0,0.0,0.0,0.0,0.0,0.0,0.0,0.0,0.0,0.0,0.0,0.0,0.0,0.0,0.0,0.0,0.0,0.0,0.0,0.0,0.0,0.0,0.0,0.0,0.0,0.0,0.0,0.0,0.0,0.0,0.0,0.0,0.0,0.0,0.0,0.0,0.0,0.0,0.0,0.0,0.0,0.0,0.0,0.0,0.0,0.0,0.0,0.0,0.0,0.0,0.0,0.0,0.0,0.0,0.0,0.0,0.0,0.0,0.0,0.0,0.0,0.0,0.0,0.0,0.0,0.0,0.0,0.0,0.0,0.0,0.0,0.0,0.0,0.0,0.0,0.0,0.0,0.0,0.0,0.0,0.0,0.0,0.0,0.0,0.0,0.0,0.0,0.0,0.0,0.0,0.0,0.0,0.0,0.0,0.0,0.0,0.0,0.0,0.0,0.0,0.0,1.3627,1.3627,1.3661,0.0,1.362,0.0,0.0,0.0,0.0,0.0,0.0,0.0,0.0,0.0,0.0,0.0,0.0,0.0,0.0,0.0,0.0,0.0,0.0,0.0,0.0,0.0,0.0,0.0,0.0,0.0,0.0,0.0,0.0,0.0,0.0,0.0,0.0,0.0,0.0,0.0,0.0,0.0,0.0,0.0,0.0,0.0,0.0,0.0,0.0,0.0,0.0,0.0,0.0,0.0,0.0,0.0,0.0,0.0,0.0,0.0,0.0,0.0,0.0,0.0,0.0,0.0,0.0,0.0,0.0,0.0,0.0,0.0,0.0,0.0,0.0,0.0,0.0,0.0,0.0,0.0,0.0,0.0,0.0,0.0,0.0,0.0,0.0,0.0,0.0,0.0,0.0,0.0,0.0,0.0,0.0,0.0,0.0,0.0,0.0,0.0,0.0,0.0,0.0,0.0,0.0,0.0,0.0,0.0,0.0,0.0,0.0,0.0,0.0,0.0,0.0,1.3717,1.4195,1.4658,1.4899,0.0,0.0,0.0,0.0,0.0,0.0,0.0,0.0,0.0,0.0,0.0,0.0,0.0,0.0,0.0,0.0,0.0,0.0,0.0,0.0,0.0,0.0,0.0,0.0,0.0,0.0,0.0,0.0,0.0,0.0,0.0,0.0,0.0,0.0,0.0,0.0,0.0,0.0,0.0,0.0,0.0,0.0,0.0,0.0,0.0,0.0,0.0,0.0,0.0,0.0,0.0,0.0,0.0,0.0,0.0,0.0,0.0,0.0,0.0,0.0,0.0,0.0,0.0,0.0,0.0,0.0,0.0,0.0,0.0,0.0,0.0,0.0,0.0,0.0,0.0,0.0,0.0,0.0,0.0,0.0,0.0,0.0,0.0,0.0,0.0,0.0,0.0,0.0,0.0,0.0,0.0,0.0,0.0,0.0,0.0,0.0,0.0,0.0,0.0,0.0,0.0,0.0,0.0,0.0,0.0,0.0,0.0,0.0,0.0,0.0,1.4206,1.4296,1.4879,1.548,1.5807,1.5807,0.0,0.0,0.0,0.0,0.0,0.0,0.0,0.0,0.0,0.0,0.0,0.0,0.0,0.0,0.0,0.0,0.0,0.0,0.0,0.0,0.0,0.0,0.0,0.0,0.0,0.0,0.0,0.0,0.0,0.0,0.0,0.0,0.0,0.0,0.0,0.0,0.0,0.0,0.0,0.0,0.0,0.0,0.0,0.0,0.0,0.0,0.0,0.0,0.0,0.0,0.0,0.0,0.0,0.0,0.0,0.0,0.0,0.0,0.0,0.0,0.0,0.0,0.0,0.0,0.0,0.0,0.0,0.0,0.0,0.0,0.0,0.0,0.0,0.0,0.0,0.0,0.0,0.0,0.0,0.0,0.0,0.0,0.0,0.0,0.0,0.0,0.0,0.0,0.0,0.0,0.0,0.0,0.0,0.0,0.0,0.0,0.0,0.0,0.0,0.0,0.0,0.0,0.0,0.0,0.0,0.0,0.0,0.0,1.5089,1.5355,1.5569,1.5665,1.5754,1.5807,0.0,0.0,0.0,0.0,0.0,0.0,0.0,0.0,0.0,0.0,0.0,0.0,0.0,0.0,0.0,0.0,0.0,0.0,0.0,0.0,0.0,0.0,0.0,0.0,0.0,0.0,0.0,0.0,0.0,0.0,0.0,0.0,0.0,0.0,0.0,0.0,0.0,0.0,0.0,0.0,0.0,0.0,0.0,0.0,0.0,0.0,0.0,0.0,0.0,0.0,0.0,0.0,0.0,0.0,0.0,0.0,0.0,0.0,0.0,0.0,0.0,0.0,0.0,0.0,0.0,0.0,0.0,0.0,0.0,0.0,0.0,0.0,0.0,0.0,0.0,0.0,0.0,0.0,0.0,0.0,0.0,0.0,0.0,0.0,0.0,0.0,0.0,0.0,0.0,0.0,0.0,0.0,0.0,0.0,0.0,0.0,0.0,0.0,0.0,0.0,0.0,0.0,0.0,0.0,0.0,0.0,0.0,0.0,0.0,1.5917,1.6272,1.6433,1.6473,1.703,1.7325,0.0,0.0,0.0,0.0,0.0,0.0,0.0,0.0,0.0,0.0,0.0,0.0,0.0,0.0,0.0,0.0,0.0,0.0,0.0,0.0,0.0,0.0,0.0,0.0,0.0,0.0,0.0,0.0,0.0,0.0,0.0,0.0,0.0,0.0,0.0,0.0,0.0,0.0,0.0,0.0,0.0,0.0,0.0,0.0,0.0,0.0,0.0,0.0,0.0,0.0,0.0,0.0,0.0,0.0,0.0,0.0,0.0,0.0,0.0,0.0,0.0,0.0,0.0,0.0,0.0,0.0,0.0,0.0,0.0,0.0,0.0,0.0,0.0,0.0,0.0,0.0,0.0,0.0,0.0,0.0,0.0,0.0,0.0,0.0,0.0,0.0,0.0,0.0,0.0,0.0,0.0,0.0,0.0,0.0,0.0,0.0,0.0,0.0,0.0,0.0,0.0,0.0,0.0,0.0,0.0,0.0,0.0,0.0,0.0,1.682,0.0,1.7064,1.7339,1.7883,1.8218,0.0,0.0,0.0,0.0,0.0,0.0,0.0,0.0,0.0,0.0,0.0,0.0,0.0,0.0,0.0,0.0,0.0,0.0,0.0,0.0,0.0,0.0,0.0,0.0,0.0,0.0,0.0,0.0,0.0,0.0,0.0,0.0,0.0,0.0,0.0,0.0,0.0,0.0,0.0,0.0,0.0,0.0,0.0,0.0,0.0,0.0,0.0,0.0,0.0,0.0,0.0,0.0,0.0,0.0,0.0,0.0,0.0,0.0,0.0,0.0,0.0,0.0,0.0,0.0,0.0,0.0,0.0,0.0,0.0,0.0,0.0,0.0,0.0,0.0,0.0,0.0,0.0,0.0,0.0,0.0,0.0,0.0,0.0,0.0,0.0,0.0,0.0,0.0,0.0,0.0,0.0,0.0,0.0,0.0,0.0,0.0,0.0,0.0,0.0,0.0,0.0,0.0,0.0,0.0,0.0,0.0,0.0,0.0,1.7342,1.7704,1.7243,1.7277,1.8125,1.8159,1.8238,0.0,0.0,0.0,0.0,0.0,0.0,0.0,0.0,0.0,0.0,0.0,0.0,0.0,0.0,0.0,0.0,0.0,0.0,0.0,0.0,0.0,0.0,0.0,0.0,0.0,0.0,0.0,0.0,0.0,0.0,0.0,0.0,0.0,0.0,0.0,0.0,0.0,0.0,0.0,0.0,0.0,0.0,0.0,0.0,0.0,0.0,0.0,0.0,0.0,0.0,0.0,0.0,0.0,0.0,0.0,0.0,0.0,0.0,0.0,0.0,0.0,0.0,0.0,0.0,0.0,0.0,0.0,0.0,0.0,0.0,0.0,0.0,0.0,0.0,0.0,0.0,0.0,0.0,0.0,0.0,0.0,0.0,0.0,0.0,0.0,0.0,0.0,0.0,0.0,0.0,0.0,0.0,0.0,0.0,0.0,0.0,0.0,0.0,0.0,0.0,0.0,0.0,0.0,0.0,0.0,0.0,0.0,0.0,0.0,1.641,1.6347,1.6424,1.6685,1.676,1.7042,0.0,0.0,0.0,0.0,0.0,0.0,0.0,0.0,0.0,0.0,0.0,0.0,0.0,0.0,0.0,0.0,0.0,0.0,0.0,0.0,0.0,0.0,0.0,0.0,0.0,0.0,0.0,0.0,0.0,0.0,0.0,0.0,0.0,0.0,0.0,0.0,0.0,0.0,0.0,0.0,0.0,0.0,0.0,0.0,0.0,0.0,0.0,0.0,0.0,0.0,0.0,0.0,0.0,0.0,0.0,0.0,0.0,0.0,0.0,0.0,0.0,0.0,0.0,0.0,0.0,0.0,0.0,0.0,0.0,0.0,0.0,0.0,0.0,0.0,0.0,0.0,0.0,0.0,0.0,0.0,0.0,0.0,0.0,0.0,0.0,0.0,0.0,0.0,0.0,0.0,0.0,0.0,0.0,0.0,0.0,0.0,0.0,0.0,0.0,0.0,0.0,0.0,0.0,0.0,0.0,0.0,0.0,0.0,0.0,1.6061,1.6675,1.7168,1.7469,1.7241,1.7223,1.7453,0.0,0.0,0.0,0.0,0.0,0.0,0.0,0.0,0.0,0.0,0.0,0.0,0.0,0.0,0.0,0.0,0.0,0.0,0.0,0.0,0.0,0.0,0.0,0.0,0.0,0.0,0.0,0.0,0.0,0.0,0.0,0.0,0.0,0.0,0.0,0.0,0.0,0.0,0.0,0.0,0.0,0.0,0.0,0.0,0.0,0.0,0.0,0.0,0.0,0.0,0.0,0.0,0.0,0.0,0.0,0.0,0.0,0.0,0.0,0.0,0.0,0.0,0.0,0.0,0.0,0.0,0.0,0.0,0.0,0.0,0.0,0.0,0.0,0.0,0.0,0.0,0.0,0.0,0.0,0.0,0.0,0.0,0.0,0.0,0.0,0.0,0.0,0.0,0.0,0.0,0.0,0.0,0.0,0.0,0.0,0.0,0.0,0.0,0.0,0.0,0.0,0.0,0.0,0.0,0.0,0.0,0.0,0.0,1.6671,1.8199,1.9287,1.9844,1.9057,1.8359,0.0,0.0,0.0,0.0,0.0,0.0,0.0,0.0,0.0,0.0,0.0,0.0,0.0,0.0,0.0,0.0,0.0,0.0,0.0,0.0,0.0,0.0,0.0,0.0,0.0,0.0,0.0,0.0,0.0,0.0,0.0,0.0,0.0,0.0,0.0,0.0,0.0,0.0,0.0,0.0,0.0,0.0,0.0,0.0,0.0,0.0,0.0,0.0,0.0,0.0,0.0,0.0,0.0,0.0,0.0,0.0,0.0,0.0,0.0,0.0,0.0,0.0,0.0,0.0,0.0,0.0,0.0,0.0,0.0,0.0,0.0,0.0,0.0,0.0,0.0,0.0,0.0,0.0,0.0,0.0,0.0,0.0,0.0,0.0,0.0,0.0,0.0,0.0,0.0,0.0,0.0,0.0,0.0,0.0,0.0,0.0,0.0,0.0,0.0,0.0,0.0,0.0,0.0,0.0,0.0,0.0,0.0,0.0,0.0,2.0192,2.1862,2.1625,1.9273,1.7922,1.7426,0.0,0.0,0.0,0.0,0.0,0.0,0.0,0.0,0.0,0.0,0.0,0.0,0.0,0.0,0.0,0.0,0.0,0.0,0.0,0.0,0.0,0.0,0.0,0.0,0.0,0.0,0.0,0.0,0.0,0.0,0.0,0.0,0.0,0.0,0.0,0.0,0.0,0.0,0.0,0.0,0.0,0.0,0.0,0.0,0.0,0.0,0.0,0.0,0.0,0.0,0.0,0.0,0.0,0.0,0.0,0.0,0.0,0.0,0.0,0.0,0.0,0.0,0.0,0.0,0.0,0.0,0.0,0.0,0.0,0.0,0.0,0.0,0.0,0.0,0.0,0.0,0.0,0.0,0.0,0.0,0.0,0.0,0.0,0.0,0.0,0.0,0.0,0.0,0.0,0.0,0.0,0.0,0.0,0.0,0.0,0.0,0.0,0.0,0.0,0.0,0.0,0.0,0.0,0.0,0.0,0.0,0.0,0.0,1.9903,2.0969,2.3634,2.3783,2.1243,1.9421,1.8351,0.0,0.0,0.0,0.0,0.0,0.0,0.0,0.0,0.0,0.0,0.0,0.0,0.0,0.0,0.0,0.0,0.0,0.0,0.0,0.0,0.0,0.0,0.0,0.0,0.0,0.0,0.0,0.0,0.0,0.0,0.0,0.0,0.0,0.0,0.0,0.0,0.0,0.0,0.0,0.0,0.0,0.0,0.0,0.0,0.0,0.0,0.0,0.0,0.0,0.0,0.0,0.0,0.0,0.0,0.0,0.0,0.0,0.0,0.0,0.0,0.0,0.0,0.0,0.0,0.0,0.0,0.0,0.0,0.0,0.0,0.0,0.0,0.0,0.0,0.0,0.0,0.0,0.0,0.0,0.0,0.0,0.0,0.0,0.0,0.0,0.0,0.0,0.0,0.0,0.0,0.0,0.0,0.0,0.0,0.0,0.0,0.0,0.0,0.0,0.0,0.0,0.0,0.0,0.0,0.0,0.0,0.0,0.0,2.0269,2.0641,2.4411,2.5858,2.4691,2.2315,2.0294,0.0,0.0,0.0,0.0,0.0,0.0,0.0,0.0,0.0,0.0,0.0,0.0,0.0,0.0,0.0,0.0,0.0,0.0,0.0,0.0,0.0,0.0,0.0,0.0,0.0,0.0,0.0,0.0,0.0,0.0,0.0,0.0,0.0,0.0,0.0,0.0,0.0,0.0,0.0,0.0,0.0,0.0,0.0,0.0,0.0,0.0,0.0,0.0,0.0,0.0,0.0,0.0,0.0,0.0,0.0,0.0,0.0,0.0,0.0,0.0,0.0,0.0,0.0,0.0,0.0,0.0,0.0,0.0,0.0,0.0,0.0,0.0,0.0,0.0,0.0,0.0,0.0,0.0,0.0,0.0,0.0,0.0,0.0,0.0,0.0,0.0,0.0,0.0,0.0,0.0,0.0,0.0,0.0,0.0,0.0,0.0,0.0,0.0,0.0,0.0,0.0,0.0,0.0,0.0,0.0,0.0,0.0,0.0,2.238,2.3245,2.6195,2.7641,2.7363,2.3843,2.1172,0.0,0.0,0.0,0.0,0.0,0.0,0.0,0.0,0.0,0.0,0.0,0.0,0.0,0.0,0.0,0.0,0.0,0.0,0.0,0.0,0.0,0.0,0.0,0.0,0.0,0.0,0.0,0.0,0.0,0.0,0.0,0.0,0.0,0.0,0.0,0.0,0.0,0.0,0.0,0.0,0.0,0.0,0.0,0.0,0.0,0.0,0.0,0.0,1.4153,0.0,0.0,0.0,0.0,0.0,0.0,0.0,0.0,0.0,0.0,0.0,0.0,0.0,0.0,0.0,0.0,0.0,0.0,0.0,0.0,0.0,0.0,0.0,0.0,0.0,0.0,0.0,0.0,0.0,0.0,0.0,0.0,0.0,0.0,0.0,0.0,0.0,0.0,0.0,0.0,0.0,0.0,0.0,0.0,0.0,0.0,0.0,0.0,0.0,0.0,0.0,0.0,0.0,0.0,0.0,0.0,0.0,0.0,0.0,2.2597,2.4266,2.6744,2.7884,2.7587,2.5744,2.3606,0.0,0.0,0.0,0.0,0.0,0.0,0.0,0.0,0.0,0.0,0.0,0.0,0.0,0.0,0.0,0.0,0.0,0.0,0.0,0.0,0.0,0.0,0.0,0.0,0.0,0.0,0.0,0.0,0.0,0.0,0.0,0.0,0.0,0.0,0.0,0.0,0.0,0.0,0.0,0.0,0.0,0.0,0.0,0.0,0.0,0.0,0.0,0.0,0.0,0.0,0.0,0.0,0.0,0.0,0.0,0.0,0.0,0.0,0.0,0.0,0.0,0.0,0.0,0.0,0.0,0.0,0.0,0.0,0.0,0.0,0.0,0.0,0.0,0.0,0.0,0.0,0.0,0.0,0.0,0.0,0.0,0.0,0.0,0.0,0.0,0.0,0.0,0.0,0.0,0.0,0.0,0.0,0.0,0.0,0.0,0.0,0.0,0.0,0.0,0.0,0.0,0.0,0.0,0.0,0.0,0.0,0.0,2.0727,2.2544,2.5075,2.6999,2.7785,2.7363,2.7349,2.5983,2.3058,0.0,0.0,0.0,0.0,0.0,0.0,0.0,0.0,0.0,0.0,0.0,0.0,0.0,0.0,0.0,0.0,0.0,0.0,0.0,0.0,0.0,0.0,0.0,0.0,0.0,0.0,0.0,0.0,0.0,0.0,0.0,0.0,0.0,0.0,0.0,0.0,0.0,0.0,1.4776,1.4822,0.0,0.0,0.0,0.0,0.0,0.0,0.0,0.0,1.5945,0.0,0.0,0.0,0.0,0.0,0.0,0.0,0.0,0.0,0.0,0.0,0.0,0.0,0.0,0.0,0.0,0.0,0.0,0.0,0.0,0.0,0.0,0.0,0.0,0.0,0.0,0.0,0.0,0.0,0.0,0.0,0.0,0.0,0.0,0.0,0.0,0.0,0.0,0.0,0.0,0.0,0.0,0.0,0.0,0.0,0.0,0.0,0.0,0.0,0.0,0.0,0.0,0.0,0.0,0.0,0.0,1.9745,2.1896,2.4504,2.7521,2.8377,2.8827,2.8868,2.7238,2.5783,2.453,0.0,0.0,0.0,0.0,0.0,0.0,0.0,0.0,0.0,0.0,0.0,0.0,0.0,0.0,0.0,0.0,0.0,0.0,0.0,0.0,0.0,0.0,0.0,0.0,0.0,0.0,0.0,0.0,0.0,0.0,0.0,0.0,0.0,0.0,0.0,0.0,0.0,0.0,0.0,1.5402,1.5591,0.0,0.0,0.0,0.0,0.0,0.0,0.0,0.0,1.6231,0.0,0.0,0.0,0.0,0.0,0.0,0.0,0.0,0.0,0.0,0.0,0.0,0.0,0.0,0.0,0.0,0.0,0.0,0.0,0.0,0.0,0.0,0.0,0.0,0.0,0.0,0.0,0.0,0.0,0.0,0.0,0.0,0.0,0.0,0.0,0.0,0.0,0.0,0.0,0.0,0.0,0.0,0.0,0.0,0.0,0.0,0.0,0.0,0.0,0.0,0.0,0.0,0.0,0.0,0.0,2.1207,2.3197,2.5393,2.7688,2.846,2.8956,2.926,2.7616,2.6195,0.0,0.0,0.0,0.0,0.0,0.0,0.0,0.0,0.0,0.0,0.0,0.0,0.0,0.0,0.0,0.0,0.0,0.0,0.0,0.0,0.0,0.0,0.0,0.0,0.0,0.0,0.0,0.0,0.0,0.0,0.0,0.0,0.0,0.0,0.0,0.0,0.0,0.0,0.0,0.0,1.6213,1.6585,1.7279,0.0,0.0,0.0,0.0,0.0,0.0,1.7916,1.7393,0.0,0.0,0.0,0.0,0.0,0.0,0.0,0.0,0.0,0.0,0.0,0.0,0.0,0.0,0.0,0.0,0.0,0.0,0.0,0.0,0.0,0.0,0.0,0.0,0.0,0.0,0.0,0.0,0.0,0.0,0.0,0.0,0.0,0.0,0.0,0.0,0.0,0.0,0.0,0.0,0.0,0.0,0.0,0.0,0.0,0.0,0.0,0.0,0.0,0.0,0.0,0.0,0.0,0.0,0.0,2.2483,2.4171,2.5837,2.74,2.8228,2.8847,2.9221,2.7656,2.6252,0.0,0.0,0.0,0.0,0.0,0.0,0.0,0.0,0.0,0.0,0.0,0.0,0.0,0.0,0.0,0.0,0.0,0.0,0.0,0.0,0.0,0.0,0.0,0.0,0.0,0.0,0.0,0.0,0.0,0.0,0.0,0.0,0.0,0.0,0.0,0.0,0.0,0.0,0.0,0.0,0.0,1.7654,1.8489,1.8236,0.0,0.0,0.0,0.0,1.9279,1.9101,0.0,0.0,0.0,0.0,0.0,0.0,0.0,0.0,0.0,0.0,0.0,0.0,0.0,0.0,0.0,0.0,0.0,0.0,0.0,0.0,0.0,0.0,0.0,0.0,0.0,0.0,0.0,0.0,0.0,0.0,0.0,0.0,0.0,0.0,0.0,0.0,0.0,0.0,0.0,0.0,0.0,0.0,0.0,0.0,0.0,0.0,0.0,0.0,0.0,0.0,0.0,0.0,0.0,0.0,0.0,0.0,2.2436,2.4289,2.6009,2.7543,2.8368,2.891,2.9079,2.645,2.4956,0.0,0.0,0.0,0.0,0.0,0.0,0.0,0.0,0.0,0.0,0.0,0.0,0.0,0.0,0.0,0.0,0.0,0.0,0.0,0.0,0.0,0.0,0.0,0.0,0.0,0.0,0.0,0.0,0.0,0.0,0.0,0.0,0.0,0.0,0.0,0.0,0.0,0.0,0.0,0.0,0.0,1.875,1.9232,1.9409,1.9584,0.0,0.0,1.9877,1.9986,1.9908,0.0,0.0,0.0,0.0,0.0,0.0,0.0,0.0,0.0,0.0,0.0,0.0,0.0,0.0,0.0,0.0,0.0,0.0,0.0,0.0,0.0,0.0,0.0,0.0,0.0,0.0,0.0,0.0,0.0,0.0,0.0,0.0,0.0,0.0,0.0,0.0,0.0,0.0,0.0,0.0,0.0,0.0,0.0,0.0,0.0,0.0,0.0,0.0,0.0,0.0,0.0,0.0,0.0,0.0,0.0,2.1805,2.2355,2.4846,2.6571,2.7361,2.8112,2.8694,2.9023,2.619,2.4738,0.0,0.0,0.0,0.0,0.0,0.0,0.0,0.0,0.0,0.0,0.0,0.0,0.0,0.0,0.0,0.0,0.0,0.0,0.0,0.0,0.0,0.0,0.0,0.0,0.0,0.0,0.0,0.0,0.0,0.0,0.0,0.0,0.0,0.0,0.0,0.0,0.0,0.0,0.0,0.0,0.0,0.0,2.0196,2.0366,0.0,0.0,0.0,2.05,2.033,0.0,0.0,0.0,0.0,0.0,0.0,0.0,0.0,0.0,0.0,0.0,0.0,0.0,0.0,0.0,0.0,0.0,0.0,0.0,0.0,0.0,0.0,0.0,0.0,0.0,0.0,0.0,0.0,0.0,0.0,0.0,0.0,0.0,0.0,0.0,0.0,0.0,0.0,0.0,0.0,0.0,0.0,0.0,0.0,0.0,0.0,0.0,0.0,0.0,0.0,0.0,0.0,0.0,0.0,0.0,0.0,0.0,2.2231,2.5312,2.7004,2.7213,2.8002,2.8578,2.8815,2.6431,0.0,0.0,0.0,0.0,0.0,0.0,0.0,0.0,0.0,0.0,0.0,0.0,0.0,0.0,0.0,0.0,0.0,0.0,0.0,0.0,0.0,0.0,0.0,0.0,0.0,0.0,0.0,1.4924,0.0,0.0,0.0,0.0,0.0,0.0,0.0,0.0,0.0,0.0,0.0,0.0,0.0,0.0,2.0344,2.093,2.1106,2.1194,0.0,0.0,2.1068,2.0741,2.1221,2.1288,0.0,0.0,0.0,0.0,0.0,0.0,0.0,0.0,0.0,0.0,0.0,0.0,0.0,0.0,0.0,0.0,0.0,0.0,0.0,0.0,0.0,0.0,0.0,0.0,0.0,0.0,0.0,0.0,0.0,0.0,0.0,0.0,0.0,0.0,0.0,0.0,0.0,0.0,0.0,0.0,0.0,0.0,0.0,0.0,0.0,0.0,0.0,0.0,0.0,0.0,0.0,0.0,0.0,0.0,0.0,2.2224,2.5493,2.7227,2.7244,2.8228,2.8676,2.8507,2.7251,2.5856,0.0,0.0,0.0,0.0,0.0,0.0,0.0,0.0,0.0,0.0,0.0,0.0,0.0,0.0,0.0,0.0,0.0,0.0,0.0,0.0,0.0,0.0,0.0,0.0,0.0,0.0,0.0,0.0,0.0,0.0,0.0,0.0,0.0,0.0,0.0,0.0,0.0,0.0,0.0,0.0,0.0,2.0864,2.0988,2.1525,2.1931,0.0,0.0,2.1744,2.1248,2.1693,2.1629,2.0059,0.0,0.0,0.0,0.0,0.0,0.0,0.0,0.0,0.0,0.0,0.0,0.0,0.0,0.0,0.0,0.0,0.0,0.0,0.0,0.0,0.0,0.0,0.0,0.0,0.0,0.0,0.0,0.0,0.0,0.0,0.0,0.0,0.0,0.0,0.0,0.0,0.0,0.0,0.0,0.0,0.0,0.0,0.0,0.0,0.0,0.0,0.0,0.0,0.0,0.0,0.0,0.0,0.0,2.1883,2.2752,2.5293,2.6791,2.7213,2.7736,2.8156,2.851,2.7159,2.5944,0.0,0.0,0.0,0.0,0.0,0.0,0.0,0.0,0.0,0.0,0.0,0.0,0.0,0.0,0.0,0.0,0.0,0.0,0.0,0.0,0.0,0.0,0.0,0.0,0.0,0.0,0.0,0.0,1.8215,1.8478,1.8266,0.0,0.0,0.0,0.0,0.0,0.0,0.0,0.0,0.0,0.0,2.0967,2.1512,2.183,0.0,0.0,2.2004,2.1758,2.1098,2.1525,2.1364,1.9654,1.9098,0.0,0.0,0.0,0.0,0.0,0.0,0.0,0.0,0.0,0.0,0.0,0.0,0.0,0.0,0.0,0.0,0.0,0.0,0.0,0.0,0.0,0.0,0.0,0.0,0.0,0.0,0.0,0.0,0.0,0.0,0.0,0.0,0.0,0.0,0.0,0.0,0.0,0.0,0.0,0.0,0.0,0.0,0.0,0.0,0.0,0.0,0.0,0.0,0.0,0.0,0.0,0.0,2.1864,2.3062,2.523,2.6607,2.7181,2.75,2.788,2.837,2.7441,2.6426,0.0,0.0,0.0,0.0,0.0,0.0,0.0,0.0,0.0,0.0,0.0,0.0,0.0,0.0,0.0,0.0,0.0,0.0,0.0,0.0,0.0,0.0,0.0,0.0,0.0,0.0,0.0,0.0,1.897,1.9045,1.8665,0.0,0.0,0.0,0.0,0.0,0.0,0.0,0.0,0.0,0.0,2.1098,2.1542,2.1787,2.1831,2.1657,2.1614,2.1354,2.0693,2.0924,2.067,1.9239,0.0,0.0,0.0,0.0,0.0,0.0,0.0,0.0,0.0,0.0,0.0,0.0,0.0,0.0,0.0,0.0,0.0,0.0,0.0,0.0,0.0,0.0,0.0,0.0,0.0,0.0,0.0,0.0,0.0,0.0,0.7975,0.0,0.0,0.0,0.0,0.0,0.0,0.0,0.0,0.0,0.0,0.0,0.0,0.0,0.0,0.0,0.0,0.0,0.0,0.0,0.0,0.0,0.0,2.2278,2.3034,2.5429,2.6825,2.7181,2.7695,2.8,2.8182,2.837,2.7502,2.5508,0.0,0.0,0.0,0.0,0.0,0.0,0.0,0.0,0.0,0.0,0.0,0.0,0.0,0.0,0.0,0.0,0.0,0.0,0.0,0.0,0.0,0.0,0.0,0.0,0.0,0.0,1.7851,1.8843,1.9388,0.0,0.0,0.0,0.0,0.0,0.0,0.0,0.0,0.0,0.0,2.0656,2.1326,2.0812,2.1241,2.1383,2.0841,2.0726,2.0498,1.9938,1.9786,1.954,0.0,0.0,0.0,0.0,0.0,0.0,0.0,0.0,0.0,0.0,0.0,0.0,0.0,0.0,0.0,0.0,0.0,0.0,0.0,0.0,0.0,0.0,0.0,0.0,0.0,0.0,0.0,0.6949,0.6961,0.0,0.0,0.0,0.0,0.0,0.0,0.0,0.0,0.0,0.0,0.0,1.8341,1.8547,0.0,0.0,0.0,0.0,0.0,0.0,0.0,0.0,0.0,0.0,0.0,0.0,2.1608,2.3242,2.4999,2.6054,2.6403,2.6805,2.7126,2.7378,2.7422,2.6524,2.4569,0.0,0.0,0.0,0.0,0.0,0.0,0.0,0.0,0.0,0.0,0.0,0.0,0.0,0.0,0.0,0.0,0.0,0.0,0.0,0.0,0.0,0.0,0.0,0.0,0.0,1.9117,0.0,0.0,0.0,0.0,0.0,0.0,0.0,0.0,0.0,0.0,0.0,1.9433,2.0077,2.0217,2.0386,2.0669,2.0526,2.0612,0.0,0.0,0.0,0.0,0.0,0.0,0.0,0.0,0.0,0.0,0.0,0.0,0.0,0.0,1.6764,1.6095,1.6229,1.6481,1.6523,0.0,0.0,0.0,0.0,0.0,0.0,0.0,0.0,0.0,0.0,0.0,0.0,0.0,0.0,0.0,0.0,0.6635,0.0,0.0,0.0,0.0,0.0,0.0,0.0,0.0,1.5585,1.6583,1.8016,1.8586,1.9245,0.0,2.0334,1.9927,0.0,0.0,0.0,0.0,0.0,0.0,0.0,0.0,2.1888,2.3467,2.5064,2.6005,2.6341,2.6545,2.6823,2.7145,2.7038,2.6322,2.5048,2.405,2.2731,0.0,0.0,0.0,0.0,0.0,0.0,0.0,0.0,0.0,0.0,0.0,0.0,0.0,0.0,0.0,0.0,0.0,0.0,0.0,0.0,0.0,0.0,0.0,1.9197,0.0,0.0,0.0,0.0,0.0,0.0,0.0,0.0,0.0,1.8878,1.935,1.9866,2.0401,2.0345,2.0245,2.0259,0.0,0.0,0.0,0.0,0.0,0.0,0.0,1.8864,1.8097,1.9083,1.9754,1.917,1.8551,1.817,1.8213,0.0,0.0,1.6767,1.6917,1.7257,1.7302,1.7333,1.7536,1.8163,1.826,1.8409,0.0,0.0,0.0,0.0,0.0,0.0,0.0,0.0,0.6675,0.6598,0.0,0.6335,0.0,0.0,0.0,0.0,0.0,1.0947,0.0,0.0,1.5829,1.684,1.7815,1.874,1.9301,1.9469,2.0338,2.0959,2.1268,1.9476,0.0,0.0,0.0,0.0,0.0,0.0,2.3048,2.3624,2.5439,2.6608,2.6899,2.6957,2.7134,2.7365,2.7118,2.6883,2.6794,2.4623,2.3437,2.3383,2.0771,0.0,0.0,0.0,0.0,0.0,0.0,0.0,0.0,0.0,0.0,0.0,0.0,0.0,0.0,0.0,0.0,0.0,0.0,0.0,0.0,1.8567,0.0,0.0,0.0,0.0,0.0,0.0,0.0,0.0,0.0,0.0,1.8988,1.9754,2.0373,2.0344,0.0,0.0,0.0,0.0,1.995,1.8869,1.8495,1.8179,1.7706,1.8504,1.9065,1.8701,0.0,0.0,2.1316,2.0913,2.0334,1.9679,2.0064,2.0135,1.8557,1.8355,1.8402,1.8532,1.8557,1.8729,1.9258,1.9495,1.9637,0.8069,0.0,0.0,0.0,0.0,0.8002,0.7568,0.7301,0.6489,0.6222,0.6239,0.5987,0.0,0.0,0.0,0.0,0.0,0.0,1.1563,1.346,1.3939,1.5093,1.6896,1.7691,1.887,2.0432,2.12,2.2147,2.3174,2.1995,2.1519,2.1771,0.0,0.0,0.0,0.0,2.2464,2.3435,2.491,2.5727,2.5712,2.63,2.6401,2.5939,2.5849,2.542,2.4679,2.4347,2.3551,2.22,2.1294,0.0,0.0,0.0,0.0,0.0,0.0,0.0,0.0,0.0,0.0,0.0,0.0,0.0,0.0,0.0,0.0,0.0,0.0,0.0,1.885,1.9246,1.906,0.0,0.0,0.0,0.0,0.0,0.0,0.0,0.0,0.0,1.9821,1.9712,1.9698,0.0,0.0,1.9852,1.9446,1.9544,2.0049,2.099,0.0,0.0,0.0,2.0844,2.0937,2.0786,2.1435,2.1865,2.1773,2.1253,2.0846,2.0584,2.0765,2.0693,2.0353,2.0391,2.0539,2.0605,2.0605,2.0792,2.1328,2.1483,2.1674,0.7375,0.8103,0.7664,0.7715,0.8051,0.7607,0.735,0.713,0.6512,0.628,0.6301,0.5938,0.6088,0.6618,0.6737,0.0,0.0,0.0,1.0703,1.2342,1.2792,1.3869,1.552,1.6564,1.7726,1.8986,2.0213,2.1343,2.227,2.248,2.1977,2.0874,0.0,0.0,2.1454,2.1895,2.249,2.3294,2.4576,2.5185,2.5148,2.5623,2.5672,2.5171,2.4924,2.4563,2.4238,2.3749,2.3114,2.2183,2.1345,2.0201,0.0,0.0,0.0,0.0,0.0,0.0,0.0,0.0,0.0,0.0,0.0,1.8162,0.0,0.0,0.0,0.0,1.8658,1.9155,1.9239,1.9342,0.0,0.0,0.0,0.0,0.0,0.0,0.0,1.8318,1.9427,2.0229,2.0272,2.0203,2.0161,2.0161,2.0372,2.0442,2.0203,0.0,2.1201,2.2058,2.1153,2.0698,2.158,2.2013,2.2328,2.2585,2.2518,2.2462,2.2407,2.2084,2.1765,2.1558,2.1498,2.1565,2.1565,2.1811,2.1811,2.1469,2.1635,2.2063,2.2591,2.291,2.3212,0.6545,0.6913,0.6426,0.6228,0.6305,0.6854,0.6944,0.6629,0.6552,0.6562,0.6606,0.616,0.615,0.643,0.6972,0.0,0.793,0.8749,0.9881,1.1267,1.2103,1.2921,1.3935,1.5346,1.6114,1.6263,1.8065,1.9029,1.9272,2.122,2.0922,1.8375,1.9855,2.0715,2.0943,2.2022,2.2778,2.3058,2.4215,2.4811,2.4824,2.4881,2.4894,2.4741,2.4129,2.4058,2.4584,2.2904,2.2221,2.2711,2.0983,1.9812,1.9485,0.0,0.0,0.0,0.0,0.0,0.0,0.0,0.0,0.0,0.0,0.0,0.0,0.0,0.0,0.0,1.8673,0.0,1.976,1.9209,0.0,0.0,0.0,1.8508,1.8508,1.8766,1.9009,1.9184,0.0,0.0,2.0454,0.0,2.1265,2.1377,2.1871,2.1997,2.1451,2.23,2.2923,2.2468,2.2233,2.198,2.1699,2.2389,2.3258,2.3756,2.3492,2.3072,2.3047,2.2965,2.2798,2.2249,2.2297,2.2334,2.2347,2.247,2.2358,2.149,2.1898,2.26,2.3138,2.3747,2.4278,0.5616,0.5418,0.5536,0.6361,0.7684,0.7261,0.7052,0.694,0.6253,0.6063,0.6201,0.6043,0.6095,0.6352,0.6718,0.7258,0.7897,0.8138,0.8715,0.9707,1.0581,1.1522,1.2505,1.4092,1.5225,1.5972,1.6741,1.7006,1.6917,1.8612,1.8522,1.6759,1.7715,1.9073,2.0718,2.1168,2.1555,2.1982,2.273,2.3246,2.3573,2.3916,2.3709,2.2747,2.2554,2.2335,2.2027,2.1599,2.1404,2.1516,2.0673,1.9994,1.9483,1.8219,0.0,0.0,0.0,0.0,0.0,0.0,0.0,0.0,0.0,1.6986,1.6229,0.0,1.7781,0.0,1.9019,2.0002,2.0099,1.9953,0.0,0.0,1.8435,1.8354,1.8773,1.9115,1.93,1.9296,1.9948,2.0593,2.1117,2.0919,2.1099,2.1965,2.2177,2.2147,2.2024,2.2596,2.321,2.3507,2.3496,2.3487,2.3289,2.352,2.3738,2.3981,2.3492,2.3122,2.3085,2.2725,2.2359,2.2247,2.2247,2.2247,2.2247,2.2371,2.2408,2.2213,2.2511,2.303,2.3712,2.4363,2.497,0.5041,0.4944,0.5232,0.6002,0.7047,0.6722,0.6523,0.652,0.5933,0.5819,0.5902,0.6011,0.6198,0.6557,0.6658,0.6965,0.7461,0.78,0.8172,0.8578,0.9471,1.0191,1.0734,1.1976,1.3073,1.4016,1.4645,1.4997,1.5279,1.5944,1.5945,1.548,1.6294,1.736,1.8751,1.9604,2.0466,2.1342,2.1471,2.1537,2.1502,2.1761,2.1542,2.0664,2.0138,1.9823,1.9715,1.9039,1.8916,1.941,1.8934,1.872,1.8824,1.7935,1.7322,0.0,0.0,0.0,0.0,0.0,0.0,0.0,0.0,0.0,0.0,0.0,1.7749,1.8009,1.9323,2.009,2.0017,1.9882,1.9608,1.9342,1.8902,1.8808,1.909,1.9566,1.9782,1.9607,2.042,2.1139,2.147,2.1524,2.1609,2.2056,2.2415,2.2668,2.2764,2.3218,2.3781,2.4088,2.3947,2.3699,2.3526,2.3267,2.3088,2.3173,2.2919,2.2689,2.2713,2.2384,2.2197,2.2197,2.2197,2.2197,2.2197,2.2247,2.2309,2.242,2.2543,2.2944,2.3708,2.4381,2.4951,0.4315,0.46,0.4791,0.5077,0.5543,0.5624,0.5752,0.5918,0.5822,0.5779,0.5779,0.6025,0.6373,0.6811,0.667,0.6694,0.6946,0.7483,0.7832,0.7828,0.8652,0.8982,0.9064,0.9856,1.0659,1.1485,1.216,1.2949,1.3852,1.3501,1.3722,1.4478,1.4928,1.5536,1.6114,1.758,1.9038,2.0451,2.016,1.9652,1.901,1.9131,1.8965,1.8428,1.7502,1.7154,1.753,1.625,1.6016,1.7071,1.6767,1.6951,1.7904,1.7429,1.7378,0.0,1.7594,0.0,0.0,0.0,0.0,0.0,0.0,0.0,0.0,1.7301,1.8007,1.9268,1.9662,1.9856,1.9904,1.9564,1.9453,1.9772,1.9535,1.942,1.942,1.9925,2.0191,1.9946,2.0866,2.1561,2.172,2.2128,2.2189,2.1903,2.2449,2.2926,2.3109,2.3597,2.404,2.4105,2.361,2.3037,2.2738,2.2273,2.1987,2.2123,2.2185,2.2123,2.2185,2.2197,2.2197,2.2197,2.2197,2.2197,2.2197,2.2197,2.2247,2.2359,2.2359,2.2592,2.3292,2.3904,2.4584,0.2194,0.2293,0.249,0.3286,0.4274,0.4487,0.5081,0.6048,0.6026,0.6018,0.6013,0.6196,0.6421,0.6681,0.6726,0.6838,0.7099,0.7155,0.7229,0.7316,0.8182,0.8616,0.8698,0.9547,1.0057,1.0213,1.0218,1.0637,1.1558,1.2006,1.2582,1.3372,1.2503,1.3012,1.4893,0.0,0.0,0.0,1.814,1.7849,1.634,1.7091,1.7028,1.5992,1.5538,0.0,1.5378,1.5131,1.531,1.6035,1.6135,0.0,0.0,0.0,0.0,0.0,0.0,0.0,0.0,0.0,0.0,0.0,1.7704,1.7384,1.7067,1.7945,1.9021,2.0141,2.0066,2.0104,2.0479,2.0116,1.9902,1.9952,1.9645,1.942,1.9433,1.9563,1.977,2.0153,2.0686,2.1225,2.1687,2.152,2.144,2.1824,2.2053,2.2127,2.2153,2.294,2.3314,2.2955,2.2445,2.2049,2.1937,2.1812,2.1749,2.1824,2.1874,2.1925,2.1987,2.2123,2.2197,2.2197,2.2197,2.2197,2.2197,2.2197,2.2197,2.2247,2.2247,2.2371,2.28,2.3352,2.3813,0.1713,0.0,0.1913,0.2718,0.0,0.4185,0.5036,0.6265,0.6138,0.6086,0.6081,0.6211,0.6276,0.6542,0.6572,0.6778,0.7078,0.7078,0.7035,0.7143,0.758,0.7841,0.7841,0.8273,0.8794,0.9226,0.9048,0.9515,1.0449,1.1721,1.2174,1.2002,1.1909,1.2312,1.3058,1.2526,1.3107,1.4934,1.5826,1.5661,1.4463,1.4911,1.4728,1.3858,0.0,0.0,0.0,0.0,0.0,0.0,0.0,0.0,0.0,0.0,0.0,1.6954,1.7253,1.7514,1.7575,1.8028,1.8356,1.8544,1.843,1.807,1.7338,1.8238,1.9125,1.9862,1.9965,2.0105,2.0321,1.9965,1.972,1.9708,1.9368,1.9189,1.9402,1.9667,1.9997,2.026,2.0662,2.1092,2.1437,2.1263,2.1233,2.153,2.1765,2.1827,2.1639,2.2175,2.2421,2.2002,2.1651,2.1486,2.1549,2.1549,2.1612,2.1686,2.1761,2.18,2.1839,2.1925,2.2061,2.2061,2.2123,2.2197,2.2197,2.2197,2.2197,2.2197,2.2197,2.2247,2.2445,2.2726,2.3053,0.121,0.1409,0.141,0.2116,0.3225,0.3624,0.4836,0.635,0.0,0.0,0.0,0.6127,0.6211,0.6392,0.6372,0.659,0.6958,0.7047,0.706,0.7094,0.7094,0.7166,0.7139,0.7139,0.7489,0.8193,0.8281,0.8715,0.9662,1.1059,1.1393,1.0852,1.1642,1.1677,1.0933,1.0686,1.1156,1.2478,1.3273,1.3245,1.2476,1.2556,1.2404,1.1814,1.1607,1.1604,1.1942,1.207,1.2609,1.3663,1.4184,1.4836,1.5605,1.5845,1.6076,1.6529,1.7169,1.7658,1.7861,1.8344,1.8698,1.8913,1.9026,1.8767,1.7931,1.8531,1.9042,1.938,1.9656,1.9798,1.9901,1.9512,1.93,1.9385,1.9143,1.9076,1.9506,1.9965,2.0258,2.0421,2.0752,2.1046,2.1204,2.121,2.1233,2.1221,2.1526,2.1651,2.1336,2.1577,2.1702,2.1348,2.1296,2.1285,2.1336,2.14,2.1411,2.1561,2.1624,2.1612,2.1651,2.1776,2.1851,2.1874,2.2049,2.2111,2.2135,2.2185,2.2197,2.2197,2.2197,2.2197,2.2197,2.2197,2.242,-0.1111,-0.1111,-0.111,-0.0303,0.0907,0.1411,0.3429,0.6369,0.631,0.6388,0.638,0.6285,0.6338,0.652,0.6409,0.6541,0.6813,0.7092,0.7111,0.0,0.7249,0.7268,0.7143,0.7139,0.7139,0.7316,0.7312,0.7753,0.8536,0.8146,0.8562,0.9852,0.9851,0.9379,0.869,0.8631,0.869,0.8908,1.0215,1.0404,0.9421,1.0208,1.045,0.9921,1.0313,1.0486,1.0501,1.0708,1.1114,1.1848,1.2258,1.3241,1.5026,1.5221,1.5648,1.6533,1.7126,1.7349,1.726,1.8215,1.8908,1.9252,1.9353,1.9177,1.8849,1.9171,1.9425,1.9389,1.9206,1.9105,1.9408,1.9141,1.9078,1.9436,1.944,1.9486,1.968,2.0085,2.0387,2.0412,2.0864,2.1181,2.1198,2.1169,2.1169,2.1221,2.1285,2.1285,2.1158,2.1233,2.1285,2.1233,2.1233,2.1221,2.1083,2.121,2.1158,2.1233,2.1348,2.1348,2.1244,2.1537,2.1639,2.1686,2.1726,2.1827,2.1851,2.2123,2.2061,2.1999,2.1999,2.2061,2.1999,2.2085,2.2221,-0.1617,-0.1617,-0.1617,-0.1212,-0.0504,0.1613,0.3328,0.4642,0.4632,0.534,0.6356,0.6404,0.638,0.6473,0.6412,0.6446,0.6571,0.6756,0.6969,0.7124,0.721,0.7319,0.7275,0.7265,0.7131,0.6972,0.6969,0.7054,0.7312,0.7217,0.7742,0.8865,0.87,0.8305,0.7724,0.7217,0.686,0.6788,0.8362,0.884,0.823,0.8668,0.8768,0.8392,0.8655,0.9118,0.9834,1.0283,1.0969,1.2033,1.2589,1.3277,1.419,1.4214,1.4426,1.4879,1.5807,1.6298,1.6149,1.7345,1.8295,1.8775,1.895,1.903,1.8907,1.8966,1.9057,1.927,1.9134,1.9089,1.9303,1.9326,1.9319,1.931,1.9472,1.9762,2.0058,2.0251,2.0515,2.0779,2.1009,2.1233,2.1233,2.0839,2.0828,2.1106,2.1169,2.1031,2.0688,2.056,2.0571,2.0571,2.0571,2.0366,2.0096,2.0031,2.0031,1.9966,2.0431,2.0495,2.0324,2.0805,2.1135,2.0624,2.0839,2.0967,2.0752,2.073,2.0858,2.0933,2.1008,2.1083,2.1094,2.1533,2.2138,-0.1617,-0.1617,-0.1617,-0.1516,-0.1212,0.1413,0.2826,0.3226,0.3226,0.4138,0.5562,0.5663,0.5663,0.566,0.5653,0.5904,0.6423,0.6508,0.6725,0.6985,0.7171,0.7286,0.725,0.724,0.707,0.6764,0.6751,0.6643,0.6435,0.6792,0.7234,0.7735,0.7624,0.7399,0.6989,0.6135,0.5681,0.5611,0.6835,0.7354,0.723,0.7383,0.7383,0.7234,0.7383,0.7995,0.9064,0.9804,1.0628,1.1694,1.2505,1.2945,1.3171,1.3244,1.3317,1.3528,1.4458,1.5084,1.5446,1.6367,1.7295,1.8066,1.8307,1.8491,1.8472,1.8533,1.8711,1.8988,1.9019,1.9078,1.9186,1.9408,1.9559,1.9422,1.9647,2.0056,2.0481,2.0449,2.0449,2.0899,2.0828,2.07,2.0764,2.0302,2.0096,2.0495,2.07,2.0431,1.9977,1.9835,1.9835,1.9704,1.977,1.9704,1.911,1.9044,1.911,1.9044,1.9497,1.9607,1.941,2.0139,2.0388,1.9626,1.9811,2.0063,1.9639,1.9672,1.9792,1.9868,2.0009,2.002,2.0161,2.084,2.1912,-0.1617,-0.1617,-0.1617,-0.1313,-0.0909,-0.0909,0.0606,0.2932,0.3135,0.3237,0.3439,0.3531,0.3528,0.3528,0.3525,0.4431,0.6147,0.6348,0.6372,0.6457,0.7143,0.726,0.6929,0.6826,0.6749,0.663,0.6615,0.6548,0.6355,0.6432,0.6523,0.6529,0.6337,0.6084,0.5712,0.5604,0.5398,0.5256,0.5411,0.5512,0.5556,0.6089,0.6318,0.6314,0.708,0.754,0.777,0.8609,0.9221,0.9377,1.0432,1.1409,1.2003,1.2298,1.2732,1.339,1.36,1.4163,1.5234,1.5517,1.6158,1.7295,1.751,1.756,1.7561,1.8016,1.8373,1.8591,1.8659,1.8813,1.9097,1.9153,1.9354,1.9907,2.0075,2.0549,2.0751,2.0568,2.0128,2.0215,1.9704,1.9441,1.9966,1.9639,1.9177,1.9299,1.9441,1.9365,1.9177,1.91,1.8911,1.8499,1.87,1.8977,1.8911,1.8977,1.8844,1.8911,1.9034,1.8992,1.8961,1.8988,1.9122,1.8936,1.9132,1.9312,1.9274,1.941,1.9399,1.9278,1.9344,1.9552,1.9791,2.029,2.1219,-0.1617,-0.1617,-0.1617,-0.1313,-0.0808,-0.0707,0.0101,0.1212,0.1313,0.1313,0.1313,0.1312,0.1311,0.1311,0.131,0.1813,0.2722,0.3932,0.4514,0.4676,0.6082,0.6917,0.6994,0.6975,0.6807,0.6677,0.6501,0.6338,0.6187,0.6204,0.6171,0.6,0.6086,0.5931,0.5559,0.5462,0.5466,0.5301,0.5295,0.5319,0.528,0.5439,0.5476,0.5553,0.586,0.6244,0.67,0.7234,0.7851,0.8466,0.9069,0.9825,1.0738,1.0812,1.1254,1.199,1.2512,1.3455,1.4807,1.4958,1.5525,1.6821,1.6959,1.7028,1.7382,1.7647,1.7822,1.7945,1.8182,1.8516,1.8614,1.8539,1.8622,1.8919,1.9124,1.9404,1.953,1.9365,1.9166,1.9299,1.91,1.8977,1.9309,1.9177,1.8844,1.8566,1.87,1.8767,1.8499,1.8442,1.8104,1.7569,1.7569,1.7706,1.7774,1.7774,1.7784,1.7842,1.8172,1.8335,1.7997,1.8617,1.8795,1.7988,1.8262,1.832,1.7862,1.8037,1.8152,1.822,1.8327,1.8512,1.9375,1.9938,2.0909,-0.1617,-0.1617,-0.1617,-0.1414,-0.101,-0.0404,-0.0101,-0.0,-0.0,-0.0,-0.0,-0.0,-0.0,-0.0,-0.0,-0.0,-0.0,0.1613,0.2316,0.2515,0.3929,0.5107,0.6038,0.6028,0.6166,0.6545,0.6444,0.6166,0.5909,0.6003,0.5941,0.5738,0.5908,0.5866,0.5613,0.5518,0.5548,0.5526,0.551,0.5368,0.5252,0.5162,0.5086,0.5026,0.5018,0.5246,0.5857,0.6237,0.6777,0.7625,0.808,0.8689,0.9458,0.9765,1.0218,1.1043,1.1632,1.2512,1.3882,1.4171,1.4824,1.5886,1.6245,1.6542,1.6899,1.7107,1.7166,1.7207,1.7569,1.7891,1.8192,1.8114,1.8037,1.8094,1.8355,1.8479,1.8556,1.8365,1.8287,1.8432,1.823,1.823,1.8375,1.8509,1.8375,1.7833,1.7755,1.7813,1.7345,1.7139,1.701,1.6542,1.6551,1.683,1.6908,1.7047,1.6908,1.6978,1.7442,1.751,1.6968,1.792,1.8359,1.742,1.7593,1.7603,1.7342,1.7235,1.7166,1.7176,1.7332,1.7732,1.8626,1.9373,2.0164,-0.1617,-0.1617,-0.1617,-0.1516,-0.1516,-0.101,-0.0505,-0.0,-0.0,-0.0,-0.0,-0.0,-0.0,-0.0,-0.0,-0.0,-0.0,-0.0,-0.0,-0.0,-0.0,0.151,0.332,0.342,0.4388,0.5994,0.6058,0.604,0.5747,0.581,0.5841,0.5744,0.5744,0.5744,0.5547,0.5463,0.5601,0.5491,0.548,0.551,0.5404,0.5285,0.517,0.5061,0.5021,0.5023,0.5176,0.5783,0.6321,0.6637,0.7472,0.8161,0.8533,0.9377,1.0218,1.1037,1.1186,1.1552,1.2439,1.3171,1.389,1.4681,1.5417,1.5797,1.5788,1.6263,1.6533,1.6603,1.6594,1.6941,1.7696,1.7765,1.7901,1.8172,1.8375,1.8355,1.8402,1.7668,1.755,1.7598,1.7241,1.7009,1.7024,1.7432,1.7301,1.6684,1.5947,1.5539,1.5581,1.5476,1.5421,1.5572,1.5848,1.6438,1.6788,1.6839,1.6839,1.683,1.683,1.7038,1.6978,1.6978,1.6908,1.6978,1.7084,1.7084,1.6987,1.6908,1.6978,1.6978,1.6978,1.7423,1.8266,1.8499,1.9213,-0.2221,-0.1617,-0.1617,-0.1617,-0.1617,-0.1414,-0.1212,-0.0909,-0.0303,-0.0,-0.0,-0.0,-0.0,-0.0,-0.0,-0.0,-0.0,-0.0,-0.0,-0.0,-0.0,0.0404,0.1009,0.121,0.2312,0.4097,0.4341,0.4839,0.5667,0.5773,0.5715,0.5671,0.5697,0.5121,0.4125,0.3857,0.3931,0.3907,0.3901,0.3862,0.3959,0.4908,0.5436,0.5268,0.517,0.5124,0.5127,0.5367,0.5553,0.5786,0.6167,0.6703,0.7621,0.9074,1.0293,1.0962,1.1117,1.1484,1.215,1.2519,1.3098,1.3818,1.4617,1.484,1.4553,1.4895,1.5321,1.5313,1.5321,1.5745,1.6333,1.6621,1.6612,1.6751,1.6751,1.6811,1.6742,1.6542,1.6492,1.6813,1.6593,1.6309,1.6258,1.607,1.5774,1.5485,1.5119,1.4953,1.4969,1.4976,1.4937,1.4961,1.5202,1.5658,1.6564,1.667,1.6612,1.6403,1.6333,1.67,1.6848,1.6691,1.6682,1.6621,1.6691,1.6657,1.6605,1.6695,1.6747,1.6888,1.6878,1.7268,1.8052,1.8433,1.8986,-0.2521,-0.1616,-0.1617,-0.1617,-0.1617,-0.1617,-0.1516,-0.1313,-0.0707,-0.0303,-0.0,-0.0,-0.0,-0.0,-0.0,-0.0,-0.0,-0.0,-0.0,-0.0,-0.0,-0.0,-0.0,-0.0,0.0706,0.2014,0.219,0.2838,0.3849,0.4555,0.4493,0.3875,0.5022,0.507,0.3866,0.2691,0.1973,0.1973,0.1972,0.1957,0.2284,0.4401,0.5344,0.473,0.4534,0.4705,0.5167,0.5135,0.5151,0.53,0.5344,0.5857,0.7165,0.8389,0.9458,1.0212,1.0588,1.0962,1.1484,1.2003,1.2519,1.3098,1.3818,1.4034,1.36,1.3962,1.425,1.4243,1.4537,1.4903,1.5275,1.5426,1.5505,1.5655,1.5576,1.5635,1.5888,1.5762,1.5867,1.6243,1.592,1.5671,1.5634,1.5088,1.4842,1.4709,1.4484,1.4258,1.4258,1.4258,1.4251,1.4328,1.4532,1.4742,1.5249,1.5386,1.6114,1.6071,1.5787,1.6236,1.6431,1.6325,1.6316,1.6219,1.6228,1.6272,1.628,1.6385,1.659,1.675,1.6928,1.7213,1.7888,1.8508,1.9041,-0.2621,-0.1717,-0.1617,-0.1616,-0.1617,-0.1617,-0.1313,-0.101,-0.1212,-0.0808,-0.0,-0.0,-0.0,-0.0,-0.0,-0.0,-0.0,-0.0,-0.0,-0.0,-0.0,-0.0,-0.0,-0.0,-0.0,-0.0,-0.0,-0.0,-0.0,0.2144,0.2201,0.1208,0.3709,0.4872,0.5328,0.1892,-0.0,-0.0,-0.0,-0.0,-0.0,0.3408,0.4482,0.3207,0.3062,0.3778,0.5228,0.5262,0.5272,0.5422,0.5328,0.587,0.6957,0.7561,0.794,0.8851,0.9463,0.9841,1.0143,1.1335,1.2077,1.2372,1.3025,1.3382,1.3237,1.3382,1.3455,1.3528,1.4027,1.453,1.4537,1.4649,1.496,1.5522,1.5119,1.5097,1.574,1.5618,1.5359,1.5671,1.5265,1.4824,1.4747,1.4516,1.4309,1.4145,1.375,1.3293,1.3313,1.3313,1.3141,1.3306,1.3639,1.4027,1.3994,1.3931,1.5041,1.5782,1.5478,1.5479,1.5543,1.5477,1.5582,1.5574,1.5591,1.5632,1.579,1.5897,1.6113,1.6321,1.6631,1.7018,1.7716,1.8339,1.8883,-0.3624,-0.2722,-0.2723,-0.222,-0.1617,-0.1617,-0.1313,-0.0808,-0.0606,-0.0303,-0.0,-0.0,-0.0,-0.0,-0.0,-0.0,-0.0,-0.0,-0.0,-0.0,-0.0,-0.0,-0.0,-0.0,-0.0,-0.0,-0.0,-0.0,-0.0,-0.0,0.0584,0.0481,-0.0,0.1777,-0.0,-0.0,-0.0,-0.0,-0.0,-0.0,-0.0,-0.0,0.2067,0.2875,0.2943,0.3721,0.5468,0.5445,0.5333,0.5322,0.5287,0.5869,0.6795,0.7227,0.7706,0.8546,0.8927,0.9387,0.9846,1.0368,1.0962,1.1477,1.2218,1.2298,1.1996,1.2365,1.2666,1.2659,1.2879,1.3164,1.3702,1.4028,1.4444,1.5137,1.4607,1.4291,1.4927,1.5002,1.502,1.5061,1.461,1.4323,1.4084,1.3823,1.3385,1.3391,1.2991,1.2831,1.2843,1.2889,1.2785,1.2868,1.3195,1.353,1.3627,1.3655,1.4097,1.4821,1.4834,1.4653,1.4652,1.4718,1.4824,1.4855,1.4937,1.5023,1.5163,1.5388,1.5606,1.5737,1.5952,1.6654,1.7527,1.8048,1.839,-0.4526,-0.3224,-0.3225,-0.2622,-0.1617,-0.1617,-0.1415,-0.101,-0.0303,-0.0,-0.0,-0.0,-0.0,-0.0,-0.0,-0.0,-0.0,-0.0,-0.0,-0.0,-0.0,-0.0,-0.0,-0.0,-0.0,-0.0,-0.0,-0.0,-0.0,-0.0,-0.0,-0.0,-0.0,-0.0,-0.0,-0.0,-0.0,-0.0,-0.0,-0.0,-0.0,-0.0,0.0629,0.1618,0.1797,0.2786,0.4405,0.4559,0.4471,0.4513,0.4989,0.567,0.6306,0.6708,0.7186,0.7667,0.8112,0.8558,0.9022,0.9533,1.0067,1.0663,1.1409,1.1632,1.1329,1.1632,1.1855,1.1855,1.215,1.2566,1.3128,1.3351,1.3791,1.4366,1.3957,1.3733,1.4022,1.4325,1.4479,1.4371,1.3915,1.3607,1.3372,1.3124,1.2705,1.2705,1.2705,1.2705,1.2705,1.2687,1.2699,1.2699,1.2808,1.3115,1.3581,1.3477,1.3277,1.3645,1.4072,1.4001,1.3945,1.398,1.398,1.4108,1.4214,1.4259,1.4396,1.4714,1.4918,1.5105,1.5426,1.6134,1.6934,1.715,1.7515,-0.5231,-0.3425,-0.3425,-0.2822,-0.1818,-0.1818,-0.1717,-0.1414,-0.0505,-0.0,-0.0,-0.0,-0.0,-0.0,-0.0,-0.0,-0.0,-0.0,-0.0,-0.0,-0.0,-0.0,-0.0,-0.0,-0.0,-0.0,-0.0,-0.0,-0.0,-0.0,-0.0,-0.0,-0.0,-0.0,-0.0,-0.0,-0.0,-0.0,-0.0,-0.0,-0.0,-0.0,-0.0,-0.0,-0.0,0.1079,0.2426,0.2686,0.2751,0.2959,0.4187,0.4987,0.5307,0.5978,0.6378,0.6418,0.7118,0.7521,0.7871,0.8837,0.9737,1.0046,1.0611,1.1037,1.1111,1.1234,1.134,1.134,1.1889,1.2355,1.2629,1.2755,1.3001,1.3312,1.332,1.3326,1.3614,1.3791,1.3884,1.3749,1.3203,1.2705,1.2869,1.2705,1.2705,1.2705,1.2705,1.2705,1.2705,1.2705,1.2705,1.2705,1.2705,1.2784,1.3203,1.3197,1.3002,1.3102,1.3437,1.3532,1.3528,1.3567,1.3641,1.3688,1.3776,1.3743,1.3851,1.4221,1.4559,1.4846,1.5293,1.5771,1.6101,1.6366,1.6831,-0.6833,-0.5634,-0.5532,-0.4529,-0.2924,-0.2822,-0.2321,-0.1617,-0.0909,-0.0303,-0.0,-0.0,-0.0,-0.0,-0.0,-0.0,-0.0,-0.0,-0.0,-0.0,-0.0,-0.0,-0.0,-0.0,-0.0,-0.0,-0.0,-0.0,-0.0,-0.0,-0.0,-0.0,-0.0,-0.0,-0.0,-0.0,-0.0,-0.0,-0.0,-0.0,-0.0,-0.0,-0.0,-0.0,-0.0,-0.0,-0.0,0.0719,0.0718,0.0889,0.2525,0.3528,0.3605,0.484,0.5716,0.6341,0.6562,0.7029,0.7523,0.8049,0.8843,0.9916,1.0117,1.0438,1.1043,1.1229,1.1395,1.1455,1.1809,1.2035,1.2134,1.2296,1.2574,1.2841,1.29,1.2893,1.2987,1.299,1.3039,1.3039,1.2869,1.2699,1.2705,1.2705,1.2705,1.2705,1.2705,1.2705,1.2705,1.2705,1.2705,1.2705,1.2705,1.2705,1.2784,1.2784,1.2778,1.2772,1.2971,1.3109,1.3355,1.3592,1.3778,1.3901,1.396,1.3944,1.3928,1.4183,1.4405,1.458,1.4657,1.4985,1.5394,1.5688,1.6167,-0.7335,-0.6437,-0.6437,-0.5429,-0.3924,-0.3823,-0.3321,-0.2417,-0.131,-0.0605,-0.0303,-0.0101,-0.0,-0.0,-0.0,-0.0,-0.0,-0.0,-0.0,-0.0,-0.0,-0.0,-0.0,-0.0,-0.0,-0.0,-0.0,-0.0,-0.0,-0.0,-0.0,-0.0,-0.0,-0.0,-0.0,-0.1887,-0.1673,-0.0,-0.0867,-0.1718,-0.2534,-0.0835,-0.0,-0.0,-0.0,-0.0,-0.0,-0.0,-0.0,-0.0,0.1064,0.1671,0.1755,0.2606,0.4124,0.5975,0.6385,0.6773,0.7184,0.7578,0.8176,0.9035,0.9326,0.9751,1.0151,1.042,1.0491,1.0428,1.0952,1.1307,1.1618,1.207,1.2439,1.2656,1.2705,1.2699,1.2699,1.2699,1.2705,1.2705,1.2705,1.2705,1.2705,1.2705,1.2705,1.2705,1.2705,1.2705,1.2705,1.2705,1.2705,1.2705,1.2705,1.2619,1.2619,1.2619,1.2357,1.2437,1.2351,1.2528,1.296,1.3307,1.3724,1.3964,1.4075,1.4088,1.4088,1.4088,1.4166,1.425,1.4088,1.425,1.4741,1.5068,1.5477,-0.7441,-0.6537,-0.6537,-0.5932,-0.5027,-0.4926,-0.4622,-0.3717,-0.2412,-0.1408,-0.1107,-0.0504,-0.0,-0.0,-0.0,-0.0,-0.0,-0.0,-0.0,-0.0,-0.0,-0.0,-0.0,-0.0,-0.0,-0.0,-0.0,-0.0,-0.0,-0.0,-0.0,-0.0,-0.0,-0.0,-0.1207,-0.3831,-0.3704,-0.1974,-0.226,-0.3799,-0.4797,-0.2924,-0.0,-0.0,-0.0,-0.0,-0.0,-0.0,-0.0,-0.0,-0.0,-0.0,-0.0,-0.0,0.1683,0.4718,0.5912,0.6734,0.6787,0.7337,0.7875,0.8189,0.866,0.9068,0.9275,0.9385,0.9505,0.9505,1.0009,1.0579,1.1155,1.2059,1.2486,1.2528,1.2528,1.2699,1.2613,1.2613,1.2705,1.2705,1.2705,1.2705,1.2705,1.2705,1.2705,1.2705,1.2705,1.2705,1.2705,1.2705,1.2705,1.2705,1.2705,1.2619,1.2534,1.2448,1.2186,1.2009,1.1832,1.1918,1.2351,1.2869,1.3561,1.3913,1.3913,1.3997,1.4088,1.4088,1.4088,1.4088,1.4088,1.4088,1.4166,1.4412,1.4741,-0.7839,-0.7637,-0.764,-0.7036,-0.6134,-0.6032,-0.5832,-0.5434,-0.5029,-0.392,-0.2715,-0.1711,-0.0806,-0.0,-0.0,-0.0,-0.0,-0.0,-0.0,-0.0,-0.0,-0.0,-0.0,-0.0,-0.0,-0.0,-0.0,-0.0,-0.0,-0.0,-0.1815,-0.4547,-0.4343,-0.4138,-0.3025,-0.363,-0.4539,-0.4518,-0.4005,-0.4364,-0.5984,-0.5434,-0.3805,-0.2405,-0.0997,-0.0,-0.0,-0.0,-0.0,-0.0,-0.0,-0.0,-0.0,-0.0,-0.0,0.1956,0.4879,0.6471,0.6786,0.7028,0.7384,0.7958,0.8117,0.8414,0.9082,0.9229,0.9289,0.9494,0.9771,1.0284,1.1043,1.2054,1.218,1.1929,1.2186,1.2357,1.1929,1.2272,1.2613,1.2705,1.2619,1.2705,1.2613,1.2528,1.2528,1.2613,1.2613,1.2699,1.2705,1.2705,1.2528,1.2528,1.2357,1.2186,1.166,1.1574,1.1402,1.1311,1.1139,1.1139,1.1569,1.2083,1.2687,1.3294,1.3737,1.3906,1.3997,1.4088,1.4088,1.4088,1.4088,1.4088,1.4088,1.4088,1.4088,-0.8038,-0.8038,-0.8038,-0.7637,-0.7238,-0.7138,-0.7039,-0.6942,-0.6851,-0.6039,-0.4836,-0.4161,-0.2651,-0.0408,-0.0,-0.0,-0.0,-0.223,-0.0,-0.0,-0.0,-0.0,-0.1513,-0.1614,-0.1917,-0.2727,-0.0,-0.2118,-0.0907,-0.2015,-0.4239,-0.6173,-0.6377,-0.5663,-0.4847,-0.464,-0.5352,-0.5859,-0.5343,-0.5311,-0.6281,-0.6412,-0.5883,-0.4469,-0.3197,-0.2355,-0.0,-0.0,-0.0,-0.0,-0.0,-0.0,-0.0,-0.0,-0.0,-0.0,0.1877,0.4917,0.6057,0.7011,0.7212,0.7624,0.7539,0.7769,0.8094,0.8349,0.8381,0.8496,0.8901,0.9662,1.0539,1.1494,1.1494,1.1058,1.1494,1.1574,1.1058,1.1837,1.2705,1.2613,1.2272,1.21,1.2015,1.1923,1.1837,1.1752,1.1929,1.1929,1.2705,1.2613,1.2272,1.21,1.2015,1.1666,1.088,1.0621,1.0529,1.0443,1.0356,1.0356,1.0529,1.1128,1.1724,1.2334,1.3039,1.3652,1.3822,1.3997,1.3997,1.4088,1.4088,1.4088,1.4088,1.4088,1.4088,-0.8233,-0.8233,-0.8038,-0.8038,-0.8038,-0.7939,-0.7939,-0.7942,-0.7959,-0.725,-0.6659,-0.6774,-0.4828,-0.2271,-0.0926,-0.0,-0.1439,-0.3565,-0.4956,-0.5464,-0.4342,-0.3732,-0.363,-0.3833,-0.434,-0.6284,-0.5977,-0.4038,-0.3021,-0.4334,-0.5756,-0.6372,-0.6372,-0.6263,-0.6266,-0.6364,-0.6258,-0.6361,-0.6245,-0.6137,-0.6334,-0.6358,-0.6109,-0.5672,-0.5276,-0.4582,-0.3347,-0.2068,-0.0,-0.0,-0.0,-0.0,-0.0,-0.0,-0.0,-0.0,-0.0,0.2055,0.4739,0.626,0.7058,0.7054,0.7041,0.6953,0.7034,0.7197,0.7291,0.7562,0.8017,0.8886,0.9662,1.0534,1.0534,1.0101,1.0539,1.0534,1.0269,1.1225,1.1923,1.2003,1.1752,1.158,1.1144,1.0966,1.0885,1.0885,1.1063,1.1322,1.2009,1.218,1.1666,1.1316,1.1144,1.0712,0.9927,0.9231,0.9226,0.9314,0.9314,0.9314,0.9405,0.9836,1.0433,1.1477,1.226,1.2778,1.33,1.3476,1.3561,1.3913,1.4088,1.4088,1.4088,1.4088,1.4088,-0.9312,-0.9213,-0.8333,-0.8038,-0.8038,-0.8038,-0.8038,-0.8038,-0.8045,-0.7643,-0.7144,-0.7284,-0.676,-0.5351,-0.3461,-0.2735,-0.3044,-0.4144,-0.505,-0.6173,-0.5761,-0.5557,-0.5555,-0.5452,-0.5962,-0.6266,-0.6372,-0.5655,-0.5242,-0.6057,-0.6358,-0.6448,-0.6448,-0.6448,-0.6448,-0.6442,-0.6445,-0.6448,-0.6439,-0.6439,-0.6431,-0.6407,-0.6323,-0.6064,-0.5829,-0.5448,-0.5309,-0.4705,-0.332,-0.0,-0.0,-0.0,-0.0,-0.0,-0.0,-0.0,-0.0,-0.0,-0.0,0.4736,0.6266,0.6713,0.6615,0.652,0.6609,0.67,0.6792,0.7143,0.7757,0.854,0.8715,0.9584,0.9579,0.9235,0.9405,0.9749,0.9235,0.9579,1.0361,1.0356,1.0621,1.0885,1.0361,1.0014,1.0014,1.0014,1.0101,1.0274,1.0788,1.0788,1.0448,1.0269,1.0183,0.9579,0.8886,0.8101,0.7749,0.7925,0.7921,0.7921,0.8101,0.8452,0.9148,1.0009,1.0956,1.1558,1.2077,1.2693,1.3209,1.3555,1.3822,1.4088,1.4088,1.4088,1.4088,-1.0096,-0.9509,-0.9019,-0.8531,-0.8038,-0.8038,-0.8038,-0.8038,-0.8038,-0.7839,-0.7662,-0.7519,-0.7286,-0.6705,-0.5858,-0.509,-0.4851,-0.4843,-0.5452,-0.6369,-0.6361,-0.6456,-0.6456,-0.6458,-0.6456,-0.645,-0.6453,-0.6456,-0.645,-0.6348,-0.6448,-0.6442,-0.6437,-0.6437,-0.6437,-0.6439,-0.6437,-0.6437,-0.6437,-0.6437,-0.6437,-0.6437,-0.6352,-0.6184,-0.5973,-0.5855,-0.5732,-0.5697,-0.4938,-0.3226,-0.0,-0.1076,-0.0,-0.0,-0.0,-0.0,-0.0,-0.0,-0.0,0.2411,0.3842,0.6272,0.6355,0.6346,0.6346,0.6438,0.6612,0.6877,0.7231,0.7753,0.7753,0.8623,0.8623,0.8189,0.8623,0.8623,0.8189,0.8277,0.8448,0.8711,0.9148,0.941,0.9323,0.9061,0.9148,0.9148,0.9144,0.9401,0.9662,0.9575,0.9401,0.9144,0.9056,0.8619,0.8101,0.7665,0.7139,0.7139,0.7139,0.7139,0.7228,0.7753,0.7929,0.836,0.9222,1.0341,1.1123,1.1821,1.2425,1.3203,1.3646,1.3997,1.4082,1.4088,1.4088,-1.0979,-1.0194,-0.9801,-0.9118,-0.8336,-0.8038,-0.8038,-0.8038,-0.8038,-0.7942,-0.7856,-0.7544,-0.7202,-0.703,-0.6821,-0.6573,-0.6377,-0.6358,-0.6356,-0.6356,-0.6445,-0.6437,-0.6437,-0.6437,-0.6439,-0.6442,-0.6439,-0.6437,-0.6439,-0.6439,-0.6439,-0.6437,-0.6437,-0.6437,-0.6437,-0.6437,-0.6437,-0.6437,-0.6437,-0.6437,-0.6437,-0.6426,-0.6342,-0.614,-0.61,-0.5983,-0.5822,-0.576,-0.5749,-0.5025,-0.4123,-0.2778,-0.1345,-0.0,-0.0,-0.0,-0.0,-0.0,-0.0,-0.0,0.2147,0.4931,0.5463,0.5638,0.6088,0.6174,0.6346,0.6704,0.6969,0.7139,0.7316,0.7757,0.7841,0.7577,0.7753,0.8017,0.7492,0.7401,0.7489,0.7665,0.7929,0.8105,0.8189,0.854,0.8627,0.8189,0.8185,0.836,0.8619,0.8794,0.8623,0.8189,0.7929,0.7577,0.7316,0.7401,0.7139,0.7139,0.7139,0.7139,0.7139,0.7228,0.7401,0.7577,0.8185,0.9222,1.0091,1.0956,1.174,1.2516,1.3385,1.3822,1.3906,1.3997,1.4088,-1.2436,-1.2139,-1.0386,-0.9509,-0.9312,-0.8432,-0.8038,-0.8038,-0.8038,-0.7842,-0.7746,-0.7363,-0.7134,-0.6899,-0.6713,-0.6545,-0.6472,-0.6445,-0.6442,-0.6442,-0.6439,-0.6437,-0.6437,-0.6437,-0.6437,-0.6437,-0.6437,-0.6437,-0.6437,-0.6437,-0.6437,-0.6437,-0.6437,-0.6437,-0.6437,-0.6437,-0.6437,-0.6437,-0.6437,-0.6434,-0.6429,-0.6426,-0.6347,-0.6227,-0.6119,-0.6002,-0.5852,-0.5776,-0.5744,-0.5657,-0.5476,-0.5208,-0.4582,-0.1704,-0.0,-0.0,-0.0,-0.0,-0.0,-0.0,0.0627,0.2959,0.3315,0.4214,0.5022,0.5824,0.6086,0.6792,0.6795,0.6969,0.7051,0.7228,0.7228,0.7228,0.7316,0.7404,0.7139,0.7139,0.7139,0.7139,0.758,0.7492,0.7401,0.7841,0.8189,0.7665,0.7316,0.7489,0.7665,0.7925,0.8013,0.7665,0.7492,0.7228,0.7139,0.7139,0.7139,0.7139,0.7139,0.7139,0.7139,0.7139,0.7139,0.7401,0.7837,0.8189,0.8969,0.9836,1.0966,1.1832,1.2687,1.3294,1.373,1.3906,1.4088,-1.3221,-1.263,-1.1755,-1.1068,-1.0391,-0.9312,-0.892,-0.8821,-0.8233,-0.7939,-0.7739,-0.7341,-0.6974,-0.6723,-0.6516,-0.6486,-0.6442,-0.6437,-0.6437,-0.6437,-0.6437,-0.6437,-0.6437,-0.6437,-0.6437,-0.6537,-0.6539,-0.6642,-0.6639,-0.6537,-0.6437,-0.6437,-0.6437,-0.6437,-0.6537,-0.6437,-0.6437,-0.6437,-0.6431,-0.6401,-0.6259,-0.6328,-0.6252,-0.6078,-0.6015,-0.5926,-0.5828,-0.5771,-0.5735,-0.5741,-0.5738,-0.5744,-0.5479,-0.4125,-0.0,-0.0,-0.0,-0.0,-0.0,-0.0,-0.0,-0.0,-0.0,0.206,0.3765,0.502,0.573,0.6438,0.6707,0.6881,0.6966,0.7139,0.7139,0.7051,0.6874,0.6962,0.7051,0.7139,0.7139,0.7139,0.7139,0.7139,0.7139,0.7404,0.7665,0.7492,0.7228,0.7228,0.7316,0.7401,0.7401,0.7228,0.7228,0.7139,0.7139,0.7139,0.7139,0.7139,0.7139,0.7139,0.7139,0.7139,0.7139,0.7139,0.7401,0.7665,0.8013,0.8886,1.0014,1.1047,1.1992,1.2687,1.33,1.3906,1.4082,-1.3806,-1.3119,-1.2829,-1.2242,-1.1463,-1.0485,-0.9998,-0.9899,-0.8924,-0.8432,-0.8134,-0.7633,-0.6939,-0.6539,-0.6445,-0.6445,-0.6439,-0.6437,-0.6437,-0.6437,-0.6437,-0.6437,-0.6437,-0.6437,-0.6537,-0.6736,-0.6936,-0.7235,-0.7332,-0.7024,-0.6816,-0.693,-0.6836,-0.6833,-0.6933,-0.693,-0.6822,-0.6468,-0.6869,-0.6712,-0.6338,-0.6415,-0.6289,-0.607,-0.589,-0.585,-0.5754,-0.5733,-0.5733,-0.5733,-0.5733,-0.5738,-0.5563,-0.5292,-0.4665,-0.3585,-0.251,-0.0,-0.0,-0.0,-0.0,-0.0,-0.0,0.0807,0.188,-0.0,0.5013,0.5455,0.5908,0.6169,0.634,0.6337,0.616,0.6248,0.6428,0.6605,0.6782,0.6874,0.7051,0.7139,0.7139,0.7139,0.7139,0.7139,0.7139,0.7139,0.7139,0.7139,0.7139,0.7139,0.7139,0.7139,0.7139,0.7139,0.7139,0.7139,0.7139,0.7139,0.7139,0.7139,0.7139,0.7139,0.7139,0.7139,0.7139,0.7228,0.7577,0.8277,0.9061,1.0014,1.0961,1.2174,1.2954,1.3646,1.4082,-1.4298,-1.4106,-1.3119,-1.2727,-1.2538,-1.1565,-1.1072,-1.0974,-0.9903,-0.9316,-0.892,-0.7928,-0.7039,-0.6742,-0.6539,-0.6437,-0.6437,-0.6437,-0.6437,-0.6437,-0.6437,-0.6537,-0.6734,-0.6833,-0.703,-0.7531,-0.7829,-0.8421,-0.881,-0.8089,-0.8093,-0.8407,-0.8432,-0.8127,-0.7915,-0.7997,-0.7445,-0.7177,-0.7534,-0.7363,-0.6887,-0.6649,-0.6674,-0.6112,-0.5888,-0.5852,-0.5744,-0.5733,-0.5733,-0.5733,-0.5733,-0.5733,-0.5738,-0.5741,-0.5384,-0.5025,-0.4759,-0.3769,-0.2869,-0.0,-0.0,-0.0,-0.0,-0.0,-0.0,-0.0,-0.0,0.3937,0.4563,0.4921,0.4736,0.4554,0.5001,0.5181,0.5536,0.5894,0.6248,0.6694,0.6874,0.7051,0.7139,0.7139,0.7139,0.7139,0.7139,0.7139,0.7139,0.7139,0.7139,0.7139,0.7139,0.7139,0.7139,0.7139,0.7139,0.7139,0.7139,0.7139,0.7139,0.7139,0.7139,0.7139,0.7139,0.7139,0.7139,0.7139,0.7139,0.7841,0.8452,0.8973,0.9927,1.1225,1.2522,1.3385,1.3822,-1.4298,-1.4298,-1.3806,-1.3709,-1.3607,-1.2538,-1.2145,-1.1853,-1.0386,-0.9118,-0.8432,-0.7537,-0.7042,-0.6742,-0.6539,-0.6437,-0.6437,-0.6437,-0.6539,-0.6739,-0.6936,-0.7428,-0.7723,-0.8216,-0.8707,-0.9103,-0.9205,-0.9209,-0.96,-0.9371,-1.0168,-1.0592,-1.0932,-1.0524,-1.0096,-0.9112,-0.8527,-0.8272,-0.8175,-0.7973,-0.7855,-0.7441,-0.7282,-0.6517,-0.6505,-0.6132,-0.5824,-0.5735,-0.5733,-0.5733,-0.5733,-0.5733,-0.5733,-0.5738,-0.5741,-0.5741,-0.5749,-0.5208,-0.4123,-0.0,-0.0,-0.0,-0.0,-0.0,-0.0,-0.0,-0.0,0.1878,0.3132,0.3667,0.4289,0.4287,0.4467,0.4378,0.4648,0.5003,0.545,0.5894,0.6517,0.6694,0.6962,0.7139,0.7139,0.7139,0.7139,0.7139,0.7139,0.7139,0.7139,0.7139,0.7139,0.7139,0.7139,0.7139,0.7139,0.7139,0.7139,0.7139,0.7139,0.7139,0.7139,0.7139,0.7139,0.7139,0.7139,0.7139,0.7228,0.7401,0.7841,0.8452,0.9323,1.0361,1.1655,1.3039,1.3646,-1.4298,-1.4298,-1.4298,-1.4298,-1.4202,-1.3511,-1.3216,-1.2829,-1.1365,-0.9608,-0.8237,-0.7832,-0.7335,-0.7039,-0.6836,-0.6833,-0.6933,-0.7132,-0.7235,-0.7534,-0.7928,-0.8421,-0.8913,-0.9406,-0.9698,-1.0476,-1.0676,-1.0587,-1.1272,-1.117,-1.1653,-1.2657,-1.3516,-1.2591,-1.1239,-1.0101,-0.9585,-0.9464,-0.9173,-0.8551,-0.8591,-0.8372,-0.7893,-0.7238,-0.7143,-0.6969,-0.6523,-0.6346,-0.608,-0.5997,-0.5911,-0.5733,-0.5733,-0.5733,-0.5733,-0.5735,-0.5738,-0.5746,-0.4752,-0.0,-0.0,-0.0,-0.0,-0.0,-0.0,-0.0,-0.0,0.0627,0.179,0.2773,0.3487,0.322,0.313,0.3042,0.3578,0.4026,0.4469,0.4914,0.5716,0.634,0.6517,0.6697,0.7051,0.7051,0.7051,0.7051,0.7139,0.7139,0.7139,0.7139,0.7139,0.7139,0.7139,0.7139,0.7139,0.7139,0.7139,0.7139,0.7139,0.7139,0.7139,0.7139,0.7139,0.7139,0.7139,0.7139,0.7139,0.7316,0.758,0.7933,0.8973,1.0274,1.1574,1.3045,1.3652,-1.4298,-1.4298,-1.4298,-1.4298,-1.4298,-1.4298,-1.4202,-1.3908,-1.2829,-1.1268,-0.9604,-0.9004,-0.8315,-0.773,-0.7826,-0.7822,-0.7826,-0.8322,-0.8623,-0.8722,-0.9015,-0.9213,-0.9706,-1.0194,-1.0979,-1.1365,-1.1663,-1.2155,-1.3044,-1.2012,-1.249,-1.3476,-1.3902,-1.3584,-1.2211,-1.1053,-1.0487,-1.0362,-1.022,-0.9535,-0.8903,-0.8857,-0.8476,-0.7933,-0.783,-0.7661,-0.7309,-0.6956,-0.6782,-0.6694,-0.6169,-0.5908,-0.5908,-0.5733,-0.5733,-0.5735,-0.5735,-0.5735,-0.5466,-0.2059,-0.0,-0.0,-0.0,-0.0,-0.0,-0.0,-0.0,-0.0,0.0986,0.1435,0.1614,0.1614,0.1792,0.2061,0.2688,0.3135,0.358,0.3935,0.4736,0.5536,0.5716,0.5985,0.6605,0.7051,0.7051,0.7054,0.7051,0.7139,0.7051,0.7139,0.7139,0.7139,0.7139,0.7139,0.7139,0.7139,0.7139,0.7139,0.7139,0.7139,0.7139,0.7139,0.7139,0.7139,0.7139,0.7139,0.7139,0.7139,0.7404,0.7753,0.9231,1.0529,1.1832,1.2784,1.3307,-1.4298,-1.4298,-1.4298,-1.4298,-1.4298,-1.4298,-1.4298,-1.4106,-1.3125,-1.195,-1.0779,-1.0288,-0.9989,-0.9596,-0.9399,-0.9201,-0.911,-0.9493,-0.9792,-0.9706,-1.0194,-1.1077,-1.1468,-1.1863,-1.2446,-1.3028,-1.313,-1.2942,-1.3346,-1.2592,-1.2796,-1.3596,-1.3927,-1.3561,-1.2864,-1.2074,-1.1536,-1.0895,-1.0593,-1.0187,-0.9611,-0.951,-0.9244,-0.854,-0.854,-0.836,-0.8006,-0.7658,-0.7482,-0.7394,-0.6782,-0.6432,-0.6257,-0.6169,-0.5733,-0.5733,-0.5735,-0.5733,-0.5644,-0.403,-0.2509,-0.0,-0.0,-0.0,-0.0,-0.0,-0.0,-0.0,-0.0,0.0987,0.1346,0.1436,0.1524,0.1524,0.1973,0.242,0.2867,0.3135,0.3669,0.438,0.4825,0.5272,0.5894,0.6337,0.6337,0.6425,0.6425,0.6782,0.6962,0.7051,0.7139,0.7139,0.7139,0.7139,0.7139,0.7139,0.7139,0.7139,0.7139,0.7139,0.7139,0.7139,0.7139,0.7139,0.7139,0.7139,0.7139,0.7139,0.7139,0.7661,0.8798,0.9666,1.0443,1.1569,1.2705,-1.4298,-1.4298,-1.4298,-1.4298,-1.4298,-1.4298,-1.4298,-1.4196,-1.3511,-1.2635,-1.1853,-1.1463,-1.1072,-1.0877,-1.0774,-1.0672,-1.0386,-1.0974,-1.117,-1.1082,-1.157,-1.2252,-1.2845,-1.334,-1.3528,-1.4016,-1.401,-1.3823,-1.3823,-1.3511,-1.3442,-1.3512,-1.3619,-1.3442,-1.3003,-1.2484,-1.2021,-1.1382,-1.0973,-1.0482,-1.012,-1.0033,-0.9772,-0.9419,-0.924,-0.9065,-0.8623,-0.836,-0.8189,-0.8009,-0.7658,-0.7217,-0.6956,-0.6517,-0.6171,-0.6083,-0.5822,-0.5733,-0.5644,-0.5557,-0.4032,-0.0,-0.1523,-0.0718,-0.0,-0.0,-0.0,-0.0,-0.0,0.0807,0.1166,0.1256,0.1346,0.1346,0.1525,0.1973,0.2152,0.242,0.2777,0.3489,0.3935,0.4469,0.5003,0.5359,0.5622,0.5622,0.5711,0.6157,0.6605,0.6874,0.6962,0.6962,0.7051,0.7139,0.7139,0.7139,0.7139,0.7139,0.7139,0.7139,0.7139,0.7139,0.7139,0.7139,0.7139,0.7139,0.7139,0.7139,0.7139,0.7316,0.7845,0.854,0.9056,1.0356,1.1832,-1.4298,-1.4298,-1.4298,-1.4298,-1.4298,-1.4298,-1.4298,-1.4298,-1.4298,-1.3709,-1.2732,-1.2533,-1.2047,-1.1272,-1.156,-1.1755,-1.176,-1.2457,-1.2559,-1.2662,-1.2754,-1.3238,-1.3335,-1.3636,-1.3919,-1.4208,-1.4202,-1.4106,-1.4292,-1.41,-1.3874,-1.3625,-1.3522,-1.3399,-1.3022,-1.2662,-1.2249,-1.1766,-1.1278,-1.0895,-1.0631,-1.0294,-1.012,-0.9854,-0.9767,-0.9772,-0.9506,-0.9244,-0.8982,-0.8715,-0.8273,-0.7921,-0.7658,-0.7221,-0.6953,-0.6605,-0.6083,-0.5908,-0.5735,-0.5738,-0.5649,-0.448,-0.3673,-0.215,-0.0,-0.0,-0.0,-0.0,-0.009,0.0538,0.0987,0.1166,0.1346,0.1346,0.1436,0.1525,0.1525,0.1793,0.2061,0.2509,0.2956,0.3492,0.4113,0.4467,0.4821,0.4643,0.4643,0.4912,0.5536,0.6517,0.6609,0.6782,0.6874,0.7051,0.7139,0.7051,0.7139,0.7139,0.7139,0.7139,0.7139,0.7139,0.7139,0.7139,0.7139,0.7139,0.7139,0.7139,0.7139,0.7319,0.7496,0.7848,0.8452,0.9662,1.0961,-1.4765,-1.4292,-1.4298,-1.4298,-1.4298,-1.4298,-1.4298,-1.4298,-1.4298,-1.41,-1.3806,-1.3709,-1.3318,-1.3318,-1.3511,-1.3227,-1.3232,-1.3431,-1.3437,-1.3534,-1.363,-1.3913,-1.401,-1.4016,-1.4202,-1.4202,-1.4298,-1.4298,-1.4292,-1.4292,-1.404,-1.3602,-1.3507,-1.3357,-1.3039,-1.2754,-1.2377,-1.2043,-1.1671,-1.1413,-1.0977,-1.0636,-1.0463,-1.0289,-1.012,-1.0033,-0.9859,-0.9772,-0.9598,-0.9506,-0.8978,-0.8627,-0.8536,-0.7921,-0.7394,-0.6864,-0.6517,-0.6343,-0.5819,-0.5733,-0.5735,-0.5735,-0.5018,-0.4933,-0.3857,-0.269,-0.1613,-0.1345,-0.0717,-0.009,0.0448,0.0718,0.0987,0.1076,0.1166,0.1346,0.1346,0.1525,0.1793,0.1882,0.2331,0.2688,0.331,0.3755,0.402,0.3753,0.3666,0.3844,0.438,0.5361,0.5983,0.616,0.6605,0.6786,0.6962,0.7051,0.7051,0.7139,0.7139,0.7139,0.7139,0.7139,0.7139,0.7139,0.7139,0.7139,0.7139,0.7139,0.7139,0.7139,0.7316,0.7584,0.8021,0.9061,0.9836,-1.5146,-1.4675,-1.4388,-1.4298,-1.4298,-1.4298,-1.4298,-1.4298,-1.4298,-1.4298,-1.4298,-1.4298,-1.4298,-1.4202,-1.4202,-1.4106,-1.3817,-1.401,-1.401,-1.401,-1.4106,-1.4202,-1.4298,-1.4298,-1.4298,-1.4298,-1.4298,-1.4298,-1.4274,-1.4147,-1.3896,-1.3534,-1.3393,-1.3224,-1.2982,-1.2721,-1.257,-1.2277,-1.21,-1.1843,-1.1499,-1.0982,-1.0722,-1.0549,-1.0207,-1.0033,-1.0038,-1.0038,-1.0038,-1.0033,-0.9419,-0.9331,-0.9244,-0.8627,-0.7921,-0.7394,-0.7217,-0.6779,-0.6346,-0.6171,-0.5997,-0.5822,-0.5733,-0.556,-0.5292,-0.4393,-0.3587,-0.2959,-0.1881,-0.0896,-0.0269,0.0269,0.0538,0.0807,0.0987,0.1166,0.1256,0.1346,0.1435,0.1524,0.1792,0.2152,0.2508,0.2953,0.3041,0.2685,0.2418,0.2508,0.3221,0.42,0.4823,0.5179,0.5805,0.6432,0.6605,0.6871,0.7051,0.7051,0.7139,0.7139,0.7139,0.7139,0.7139,0.7139,0.7139,0.7139,0.7139,0.7139,0.7139,0.7139,0.7139,0.7319,0.7496,0.7933,0.8627,-1.5337,-1.5242,-1.458,-1.4298,-1.4298,-1.4298,-1.4298,-1.4298,-1.4298,-1.4298,-1.4298,-1.4298,-1.4298,-1.4298,-1.4298,-1.4298,-1.4202,-1.4298,-1.4298,-1.4298,-1.4298,-1.4298,-1.4298,-1.4298,-1.4298,-1.4298,-1.4298,-1.4298,-1.4226,-1.4081,-1.3833,-1.3513,-1.3278,-1.3037,-1.2801,-1.2741,-1.2619,-1.2528,-1.2357,-1.2106,-1.1843,-1.1327,-1.0722,-1.0722,-1.0381,-1.012,-1.0038,-1.0038,-1.0038,-1.0033,-0.9946,-0.9951,-0.9685,-0.9336,-0.8627,-0.8185,-0.7918,-0.7482,-0.7044,-0.6868,-0.6517,-0.6257,-0.5822,-0.5911,-0.5819,-0.5468,-0.4661,-0.4306,-0.3315,-0.1523,-0.0628,-0.0,-0.0,-0.0,0.0628,0.0897,0.1076,0.1256,0.1436,0.1435,0.1524,0.1793,0.1793,0.2239,0.2329,0.1704,0.1614,0.1704,0.2151,0.313,0.3666,0.42,0.5001,0.5716,0.6074,0.6428,0.6874,0.6962,0.7051,0.7139,0.7139,0.7139,0.7139,0.7139,0.7139,0.7139,0.7139,0.7139,0.7139,0.7139,0.7139,0.7139,0.7231,0.7496,0.7764,-1.5057,-1.458,-1.4394,-1.4298,-1.4298,-1.4298,-1.4298,-1.4298,-1.4298,-1.4298,-1.4298,-1.4298,-1.4298,-1.4298,-1.4298,-1.4298,-1.4298,-1.4298,-1.4298,-1.4298,-1.4298,-1.4298,-1.4298,-1.4298,-1.4298,-1.4298,-1.4298,-1.4382,-1.4297,-1.4002,-1.365,-1.3097,-1.3022,-1.3114,-1.2894,-1.2875,-1.2869,-1.2869,-1.2705,-1.2534,-1.2357,-1.2015,-1.1671,-1.1413,-1.0982,-1.0463,-1.0381,-1.0212,-1.012,-1.0038,-1.0038,-1.0038,-0.9951,-0.9772,-0.9331,-0.8803,-0.8623,-0.8185,-0.7834,-0.7566,-0.7394,-0.7132,-0.6871,-0.6605,-0.6343,-0.5997,-0.5646,-0.5382,-0.4484,-0.2509,-0.0,-0.0,-0.0,-0.0,0.0179,0.0448,0.0718,0.0987,0.1256,0.1346,0.1346,0.1436,0.1436,0.1436,0.1436,0.1436,0.1436,0.1436,0.1525,0.2151,0.2597,0.3221,0.4111,0.4736,0.5272,0.5897,0.6432,0.6786,0.6962,0.7051,0.7051,0.7139,0.7139,0.7139,0.7139,0.7139,0.7139,0.7139,0.7139,0.7139,0.7139,0.7139,0.7139,0.7319,0.7411,-1.5146,-1.4771,-1.4388,-1.449,-1.4675,-1.449,-1.4298,-1.4298,-1.4298,-1.4298,-1.4298,-1.4298,-1.4298,-1.4298,-1.4298,-1.4298,-1.4298,-1.4298,-1.4298,-1.4298,-1.4394,-1.4298,-1.4298,-1.4394,-1.4298,-1.4298,-1.4669,-1.4727,-1.4496,-1.4686,-1.4379,-1.3678,-1.3698,-1.3643,-1.3555,-1.3548,-1.3385,-1.3215,-1.313,-1.3045,-1.2784,-1.2357,-1.2015,-1.1757,-1.1413,-1.089,-1.0549,-1.0381,-1.0207,-1.0033,-1.0038,-1.0038,-1.0038,-0.9946,-0.9777,-0.951,-0.9331,-0.9065,-0.8536,-0.8273,-0.8185,-0.7834,-0.757,-0.7217,-0.6691,-0.6343,-0.5997,-0.5733,-0.5476,-0.3855,-0.3226,-0.0,-0.0,-0.0,-0.1435,-0.1254,-0.0717,-0.0179,0.0269,0.0807,0.0987,0.1436,0.1436,0.1436,0.1436,0.1436,0.1436,0.1436,0.1436,0.1436,0.1793,0.224,0.3132,0.3667,0.4026,0.4917,0.5985,0.634,0.6786,0.6874,0.6962,0.7051,0.7139,0.7051,0.6962,0.7139,0.7139,0.7139,0.7139,0.7139,0.7139,0.7139,0.7139,0.7139,0.7231,-1.5343,-1.5146,-1.458,-1.4675,-1.5248,-1.458,-1.4394,-1.449,-1.4394,-1.4298,-1.4298,-1.4298,-1.4298,-1.4298,-1.4298,-1.4298,-1.4298,-1.4298,-1.4298,-1.4394,-1.449,-1.4682,-1.4682,-1.4675,-1.4829,-1.488,-1.5139,-1.5084,-1.4916,-1.5057,-1.5035,-1.4884,-1.4815,-1.465,-1.4734,-1.465,-1.4314,-1.3977,-1.3724,-1.3555,-1.3039,-1.2357,-1.2186,-1.1929,-1.1671,-1.1149,-1.0895,-1.0549,-1.0467,-1.0207,-1.0033,-1.0038,-1.0038,-1.0038,-1.0038,-0.9859,-0.9859,-0.9506,-0.9157,-0.9069,-0.8715,-0.836,-0.8006,-0.7566,-0.7041,-0.6605,-0.6257,-0.6,-0.5741,-0.5476,-0.4844,-0.4395,-0.3588,-0.3051,-0.2959,-0.2868,-0.2149,-0.1343,-0.0537,0.0179,0.0718,0.1166,0.1346,0.1346,0.1436,0.1436,0.1436,0.1436,0.1436,0.1436,0.1615,0.1793,0.233,0.2686,0.3045,0.3848,0.5095,0.5808,0.6163,0.6517,0.6782,0.6871,0.6874,0.6786,0.6786,0.6962,0.7051,0.7139,0.7139,0.7139,0.7139,0.7139,0.7139,0.7139,0.7139,-1.5057,-1.4484,-1.4298,-1.4771,-1.5248,-1.458,-1.458,-1.5051,-1.458,-1.4298,-1.4394,-1.4298,-1.4298,-1.4298,-1.4298,-1.4394,-1.4484,-1.4388,-1.4298,-1.4394,-1.507,-1.5261,-1.533,-1.5461,-1.5839,-1.5824,-1.5715,-1.5867,-1.5555,-1.5402,-1.5662,-1.6159,-1.5007,-1.4831,-1.4817,-1.4734,-1.4817,-1.4566,-1.4482,-1.4314,-1.3977,-1.3385,-1.2705,-1.2363,-1.21,-1.1843,-1.1585,-1.0982,-1.0636,-1.0376,-1.0207,-1.0033,-1.0038,-1.0038,-1.0038,-1.0038,-1.0038,-0.9946,-0.9685,-0.9598,-0.9331,-0.924,-0.8803,-0.7921,-0.7309,-0.6609,-0.626,-0.5908,-0.5738,-0.5741,-0.529,-0.5295,-0.4757,-0.4397,-0.4214,-0.3855,-0.3405,-0.2149,-0.1075,-0.0358,0.0359,0.0807,0.1256,0.1346,0.1436,0.1436,0.1436,0.1436,0.1436,0.1436,0.1436,0.1525,0.1704,0.2241,0.2777,0.2956,0.3937,0.4739,0.5361,0.5536,0.5891,0.6605,0.6605,0.616,0.6517,0.6962,0.6962,0.6962,0.7139,0.7139,0.7139,0.7139,0.7139,0.7139,0.7139]},{"header":{"parameterUnit":"m.s-1","parameterCategory":1,"la1":31.0,"la2":29.5877,"lo1":-88.7671,"lo2":-86.6584,"dy":0.0162,"dx":0.0185,"nx":115,"ny":88,"refTime":"2023-05-26T00:00:00:Z","depth":0,"parameterNumber":3,"parameterNumberName":"V-component_of_WINDS"},"data":[0.0,0.0,0.0,0.0,0.0,0.0,0.0,0.0,0.0,0.0,0.0,0.0,0.0,0.0,0.0,0.0,0.0,0.0,0.0,0.0,0.0,0.0,0.0,0.0,0.0,0.0,0.0,0.0,0.0,0.0,0.0,0.0,0.0,0.0,0.0,0.0,0.0,0.0,0.0,0.0,0.0,0.0,0.0,0.0,0.0,0.0,0.0,0.0,0.0,0.0,0.0,0.0,0.0,0.0,0.0,0.0,0.0,0.0,0.0,0.0,0.0,0.0,0.0,0.0,0.0,0.0,0.0,0.0,0.0,0.0,0.0,0.0,0.0,0.0,0.0,0.0,0.0,0.0,0.0,0.0,0.0,0.0,0.0,0.0,0.0,0.0,0.0,0.0,0.0,0.0,0.0,0.0,0.0,0.0,0.0,0.0,0.0,0.0,0.0,0.0,0.0,0.0,0.0,0.0,0.0,0.0,0.0,0.0,0.0,0.0,0.0,0.0,0.0,0.0,0.0,0.0,0.0,0.0,0.0,0.0,0.0,0.0,0.0,0.0,0.0,0.0,0.0,0.0,0.0,0.0,0.0,0.0,0.0,0.0,0.0,0.0,0.0,0.0,0.0,0.0,0.0,0.0,0.0,0.0,0.0,0.0,0.0,0.0,0.0,0.0,0.0,0.0,0.0,0.0,0.0,0.0,0.0,0.0,0.0,0.0,0.0,0.0,0.0,0.0,0.0,0.0,0.0,0.0,0.0,0.0,0.0,0.0,0.0,0.0,0.0,0.0,0.0,0.0,0.0,0.0,0.0,0.0,0.0,0.0,0.0,0.0,0.0,0.0,0.0,0.0,0.0,0.0,0.0,0.0,0.0,0.0,0.0,0.0,0.0,0.0,0.0,0.0,0.0,0.0,0.0,0.0,0.0,0.0,0.0,0.0,0.0,0.0,0.0,0.0,0.0,0.0,0.0,0.0,0.0,0.0,0.0,0.0,0.0,0.0,0.0,0.0,0.0,0.0,0.0,0.0,0.0,0.0,0.0,0.0,0.0,0.0,0.0,0.0,0.0,0.0,0.0,0.0,0.0,0.0,0.0,0.0,0.0,0.0,0.0,0.0,0.0,0.0,0.0,0.0,0.0,0.0,0.0,0.0,0.0,0.0,0.0,0.0,0.0,0.0,0.0,0.0,0.0,0.0,0.0,0.0,0.0,0.0,0.0,0.0,0.0,0.0,0.0,0.0,0.0,0.0,0.0,0.0,0.0,0.0,0.0,0.0,0.0,0.0,0.0,0.0,0.0,0.0,0.0,0.0,0.0,0.0,0.0,0.0,0.0,0.0,0.0,0.0,0.0,0.0,0.0,0.0,0.0,0.0,0.0,0.0,0.0,0.0,0.0,0.0,0.0,0.0,0.0,0.0,0.0,0.0,0.0,0.0,0.0,0.0,0.0,0.0,0.0,0.0,0.0,0.0,0.0,0.0,0.0,0.0,0.0,0.0,0.0,0.0,0.0,0.0,0.0,0.0,0.0,0.0,0.0,0.0,0.0,0.0,0.0,0.0,0.0,0.0,0.0,0.0,0.0,0.0,0.0,0.0,0.0,0.0,0.0,0.0,0.0,0.0,0.0,0.0,0.0,0.0,0.0,0.0,0.0,0.0,0.0,0.0,0.0,0.0,0.0,0.0,0.0,0.0,0.0,0.0,0.0,0.0,0.0,0.0,0.0,0.0,0.0,0.0,0.0,0.0,0.0,0.0,0.0,0.0,0.0,0.0,0.0,0.0,0.0,0.0,0.0,0.0,0.0,0.0,0.0,0.0,0.0,0.0,0.0,0.0,0.0,0.0,0.0,0.0,0.0,0.0,0.0,0.0,0.0,0.0,0.0,0.0,0.0,0.0,0.0,0.0,0.0,0.0,0.0,0.0,0.0,0.0,0.0,0.0,0.0,0.0,0.0,0.0,0.0,0.0,0.0,0.0,0.0,0.0,0.0,0.0,0.0,0.0,0.0,0.0,0.0,0.0,0.0,0.0,0.0,0.0,0.0,0.0,0.0,0.0,0.0,0.0,0.0,0.0,0.0,0.0,0.0,0.0,0.0,0.0,0.0,0.0,0.0,0.0,0.0,0.0,0.0,0.0,0.0,0.0,0.0,0.0,0.0,0.0,0.0,0.0,0.0,0.0,0.0,0.0,0.0,0.0,0.0,0.0,0.0,0.0,0.0,0.0,0.0,0.0,0.0,0.0,0.0,0.0,0.0,0.0,0.0,0.0,0.0,0.0,0.0,0.0,0.0,0.0,0.0,0.0,0.0,0.0,0.0,0.0,0.0,0.0,0.0,0.0,0.0,0.0,0.0,0.0,0.0,0.0,0.0,0.0,0.0,0.0,0.0,0.0,0.0,0.0,0.0,0.0,0.0,0.0,0.0,0.0,0.0,0.0,0.0,0.0,0.0,0.0,0.0,0.0,0.0,0.0,0.0,0.0,0.0,0.0,0.0,0.0,0.0,0.0,0.0,0.0,0.0,0.0,0.0,0.0,0.0,0.0,0.0,0.0,0.0,0.0,0.0,0.0,0.0,0.0,0.0,0.0,0.0,0.0,0.0,0.0,0.0,0.0,0.0,0.0,0.0,0.0,0.0,0.0,0.0,0.0,0.0,0.0,0.0,0.0,0.0,0.0,0.0,0.0,0.0,0.0,0.0,0.0,0.0,0.0,0.0,0.0,0.0,0.0,0.0,0.0,0.0,0.0,0.0,0.0,0.0,0.0,0.0,0.0,0.0,0.0,0.0,0.0,0.0,0.0,0.0,0.0,0.0,0.0,0.0,0.0,0.0,0.0,0.0,0.0,0.0,0.0,0.0,0.0,0.0,0.0,0.0,0.0,0.0,0.0,0.0,0.0,0.0,0.0,0.0,0.0,0.0,0.0,0.0,0.0,0.0,0.0,0.0,0.0,0.0,0.0,0.0,0.0,0.0,0.0,0.0,0.0,0.0,0.0,0.0,0.0,0.0,0.0,0.0,0.0,0.0,0.0,0.0,0.0,0.0,0.0,0.0,0.0,0.0,0.0,0.0,0.0,0.0,0.0,0.0,0.0,0.0,0.0,0.0,0.0,0.0,0.0,0.0,0.0,0.0,0.0,0.0,0.0,0.0,0.0,0.0,0.0,0.0,0.0,0.0,0.0,0.0,0.0,0.0,0.0,0.0,0.0,0.0,0.0,0.0,0.0,0.0,0.0,0.0,0.0,0.0,0.0,0.0,0.0,0.0,0.0,0.0,0.0,0.0,0.0,0.0,0.0,0.0,0.0,0.0,0.0,0.0,0.0,0.0,0.0,0.0,0.0,0.0,0.0,0.0,0.0,0.0,0.0,0.0,0.0,0.0,0.0,0.0,0.0,0.0,0.0,0.0,0.0,0.0,0.0,0.0,0.0,0.0,0.0,0.0,0.0,0.0,0.0,0.0,0.0,0.0,0.0,0.0,0.0,0.0,0.0,0.0,0.0,0.0,0.0,0.0,0.0,0.0,0.0,0.0,0.0,0.0,0.0,0.0,0.0,0.0,0.0,0.0,0.0,0.0,0.0,0.0,0.0,0.0,0.0,0.0,0.0,0.0,0.0,0.0,0.0,0.0,0.0,0.0,0.0,0.0,0.0,0.0,0.0,0.0,0.0,0.0,0.0,0.0,0.0,0.0,0.0,0.0,0.0,0.0,0.0,0.0,0.0,0.0,0.0,0.0,0.0,0.0,0.0,0.0,0.0,0.0,0.0,0.0,0.0,0.0,0.0,0.0,0.0,0.0,0.0,0.0,0.0,0.0,0.0,0.0,0.0,0.0,0.0,0.0,0.0,0.0,0.0,0.0,0.0,0.0,0.0,0.0,0.0,0.0,0.0,0.0,0.0,0.0,0.0,0.0,0.0,0.0,0.0,0.0,0.0,0.0,0.0,0.0,0.0,0.0,0.0,0.0,0.0,0.0,0.0,0.0,0.0,0.0,0.0,0.0,0.0,0.0,0.0,0.0,0.0,0.0,0.0,0.0,0.0,0.0,0.0,0.0,0.0,0.0,0.0,0.0,0.0,0.0,0.0,0.0,0.0,0.0,0.0,0.0,0.0,0.0,0.0,0.0,0.0,0.0,0.0,0.0,0.0,0.0,0.0,0.0,0.0,0.0,0.0,0.0,0.0,0.0,0.0,0.0,0.0,0.0,0.0,0.0,0.0,0.0,0.0,0.0,0.0,0.0,0.0,0.0,0.0,0.0,0.0,0.0,0.0,0.0,0.0,0.0,0.0,-0.5293,0.0,0.0,0.0,0.0,0.0,0.0,0.0,0.0,0.0,0.0,0.0,0.0,0.0,0.0,0.0,0.0,0.0,0.0,0.0,0.0,0.0,0.0,0.0,0.0,0.0,0.0,0.0,0.0,0.0,0.0,0.0,0.0,0.0,0.0,0.0,0.0,0.0,0.0,0.0,0.0,0.0,0.0,0.0,0.0,0.0,0.0,0.0,0.0,0.0,0.0,0.0,0.0,0.0,0.0,0.0,0.0,0.0,0.0,0.0,0.0,0.0,0.0,0.0,0.0,0.0,0.0,0.0,0.0,0.0,0.0,0.0,0.0,0.0,0.0,0.0,0.0,0.0,0.0,0.0,0.0,0.0,0.0,0.0,0.0,0.0,0.0,0.0,0.0,0.0,0.0,0.0,0.0,0.0,0.0,0.0,0.0,0.0,0.0,0.0,0.0,0.0,0.0,0.0,0.0,0.0,0.0,0.0,0.0,0.0,0.0,-0.6617,-0.6443,-0.636,-0.6252,-0.6091,0.0,0.0,0.0,0.0,0.0,0.0,0.0,0.0,0.0,0.0,0.0,0.0,0.0,0.0,0.0,0.0,0.0,0.0,0.0,0.0,0.0,0.0,0.0,0.0,0.0,0.0,0.0,0.0,0.0,0.0,0.0,0.0,0.0,0.0,0.0,0.0,0.0,0.0,0.0,0.0,0.0,0.0,0.0,0.0,0.0,0.0,0.0,0.0,0.0,0.0,0.0,0.0,0.0,0.0,0.0,0.0,0.0,0.0,0.0,0.0,0.0,0.0,0.0,0.0,0.0,0.0,0.0,0.0,0.0,0.0,0.0,0.0,0.0,0.0,0.0,0.0,0.0,0.0,0.0,0.0,0.0,0.0,0.0,0.0,0.0,0.0,0.0,0.0,0.0,0.0,0.0,0.0,0.0,0.0,0.0,0.0,0.0,0.0,0.0,0.0,0.0,0.0,0.0,0.0,0.0,0.0,0.0,0.0,0.0,0.0,0.0,0.0,-0.6962,-0.6863,-0.6747,0.0,0.0,0.0,0.0,0.0,0.0,0.0,0.0,0.0,0.0,0.0,0.0,0.0,0.0,0.0,0.0,0.0,0.0,0.0,0.0,0.0,0.0,0.0,0.0,0.0,0.0,0.0,0.0,0.0,0.0,0.0,0.0,0.0,0.0,0.0,0.0,0.0,0.0,0.0,0.0,0.0,0.0,0.0,0.0,0.0,0.0,0.0,0.0,0.0,0.0,0.0,0.0,0.0,0.0,0.0,0.0,0.0,0.0,0.0,0.0,0.0,0.0,0.0,0.0,0.0,0.0,0.0,0.0,0.0,0.0,0.0,0.0,0.0,0.0,0.0,0.0,0.0,0.0,0.0,0.0,0.0,0.0,0.0,0.0,0.0,0.0,0.0,0.0,0.0,0.0,0.0,0.0,0.0,0.0,0.0,0.0,0.0,0.0,0.0,0.0,0.0,0.0,0.0,0.0,0.0,0.0,0.0,0.0,0.0,0.0,-0.7361,-0.7361,-0.734,0.0,-0.7166,0.0,0.0,0.0,0.0,0.0,0.0,0.0,0.0,0.0,0.0,0.0,0.0,0.0,0.0,0.0,0.0,0.0,0.0,0.0,0.0,0.0,0.0,0.0,0.0,0.0,0.0,0.0,0.0,0.0,0.0,0.0,0.0,0.0,0.0,0.0,0.0,0.0,0.0,0.0,0.0,0.0,0.0,0.0,0.0,0.0,0.0,0.0,0.0,0.0,0.0,0.0,0.0,0.0,0.0,0.0,0.0,0.0,0.0,0.0,0.0,0.0,0.0,0.0,0.0,0.0,0.0,0.0,0.0,0.0,0.0,0.0,0.0,0.0,0.0,0.0,0.0,0.0,0.0,0.0,0.0,0.0,0.0,0.0,0.0,0.0,0.0,0.0,0.0,0.0,0.0,0.0,0.0,0.0,0.0,0.0,0.0,0.0,0.0,0.0,0.0,0.0,0.0,0.0,0.0,0.0,0.0,0.0,0.0,0.0,0.0,-0.7604,-0.7788,-0.8,-0.8089,0.0,0.0,0.0,0.0,0.0,0.0,0.0,0.0,0.0,0.0,0.0,0.0,0.0,0.0,0.0,0.0,0.0,0.0,0.0,0.0,0.0,0.0,0.0,0.0,0.0,0.0,0.0,0.0,0.0,0.0,0.0,0.0,0.0,0.0,0.0,0.0,0.0,0.0,0.0,0.0,0.0,0.0,0.0,0.0,0.0,0.0,0.0,0.0,0.0,0.0,0.0,0.0,0.0,0.0,0.0,0.0,0.0,0.0,0.0,0.0,0.0,0.0,0.0,0.0,0.0,0.0,0.0,0.0,0.0,0.0,0.0,0.0,0.0,0.0,0.0,0.0,0.0,0.0,0.0,0.0,0.0,0.0,0.0,0.0,0.0,0.0,0.0,0.0,0.0,0.0,0.0,0.0,0.0,0.0,0.0,0.0,0.0,0.0,0.0,0.0,0.0,0.0,0.0,0.0,0.0,0.0,0.0,0.0,0.0,0.0,-0.8285,-0.8088,-0.8247,-0.8492,-0.8627,-0.8627,0.0,0.0,0.0,0.0,0.0,0.0,0.0,0.0,0.0,0.0,0.0,0.0,0.0,0.0,0.0,0.0,0.0,0.0,0.0,0.0,0.0,0.0,0.0,0.0,0.0,0.0,0.0,0.0,0.0,0.0,0.0,0.0,0.0,0.0,0.0,0.0,0.0,0.0,0.0,0.0,0.0,0.0,0.0,0.0,0.0,0.0,0.0,0.0,0.0,0.0,0.0,0.0,0.0,0.0,0.0,0.0,0.0,0.0,0.0,0.0,0.0,0.0,0.0,0.0,0.0,0.0,0.0,0.0,0.0,0.0,0.0,0.0,0.0,0.0,0.0,0.0,0.0,0.0,0.0,0.0,0.0,0.0,0.0,0.0,0.0,0.0,0.0,0.0,0.0,0.0,0.0,0.0,0.0,0.0,0.0,0.0,0.0,0.0,0.0,0.0,0.0,0.0,0.0,0.0,0.0,0.0,0.0,0.0,-0.9613,-0.9181,-0.8853,-0.8683,-0.8643,-0.8627,0.0,0.0,0.0,0.0,0.0,0.0,0.0,0.0,0.0,0.0,0.0,0.0,0.0,0.0,0.0,0.0,0.0,0.0,0.0,0.0,0.0,0.0,0.0,0.0,0.0,0.0,0.0,0.0,0.0,0.0,0.0,0.0,0.0,0.0,0.0,0.0,0.0,0.0,0.0,0.0,0.0,0.0,0.0,0.0,0.0,0.0,0.0,0.0,0.0,0.0,0.0,0.0,0.0,0.0,0.0,0.0,0.0,0.0,0.0,0.0,0.0,0.0,0.0,0.0,0.0,0.0,0.0,0.0,0.0,0.0,0.0,0.0,0.0,0.0,0.0,0.0,0.0,0.0,0.0,0.0,0.0,0.0,0.0,0.0,0.0,0.0,0.0,0.0,0.0,0.0,0.0,0.0,0.0,0.0,0.0,0.0,0.0,0.0,0.0,0.0,0.0,0.0,0.0,0.0,0.0,0.0,0.0,0.0,0.0,-0.9946,-0.9395,-0.9109,-0.9037,-0.9198,-0.9309,0.0,0.0,0.0,0.0,0.0,0.0,0.0,0.0,0.0,0.0,0.0,0.0,0.0,0.0,0.0,0.0,0.0,0.0,0.0,0.0,0.0,0.0,0.0,0.0,0.0,0.0,0.0,0.0,0.0,0.0,0.0,0.0,0.0,0.0,0.0,0.0,0.0,0.0,0.0,0.0,0.0,0.0,0.0,0.0,0.0,0.0,0.0,0.0,0.0,0.0,0.0,0.0,0.0,0.0,0.0,0.0,0.0,0.0,0.0,0.0,0.0,0.0,0.0,0.0,0.0,0.0,0.0,0.0,0.0,0.0,0.0,0.0,0.0,0.0,0.0,0.0,0.0,0.0,0.0,0.0,0.0,0.0,0.0,0.0,0.0,0.0,0.0,0.0,0.0,0.0,0.0,0.0,0.0,0.0,0.0,0.0,0.0,0.0,0.0,0.0,0.0,0.0,0.0,0.0,0.0,0.0,0.0,0.0,0.0,-1.0156,0.0,-0.9217,-0.9366,-0.9509,-0.9585,0.0,0.0,0.0,0.0,0.0,0.0,0.0,0.0,0.0,0.0,0.0,0.0,0.0,0.0,0.0,0.0,0.0,0.0,0.0,0.0,0.0,0.0,0.0,0.0,0.0,0.0,0.0,0.0,0.0,0.0,0.0,0.0,0.0,0.0,0.0,0.0,0.0,0.0,0.0,0.0,0.0,0.0,0.0,0.0,0.0,0.0,0.0,0.0,0.0,0.0,0.0,0.0,0.0,0.0,0.0,0.0,0.0,0.0,0.0,0.0,0.0,0.0,0.0,0.0,0.0,0.0,0.0,0.0,0.0,0.0,0.0,0.0,0.0,0.0,0.0,0.0,0.0,0.0,0.0,0.0,0.0,0.0,0.0,0.0,0.0,0.0,0.0,0.0,0.0,0.0,0.0,0.0,0.0,0.0,0.0,0.0,0.0,0.0,0.0,0.0,0.0,0.0,0.0,0.0,0.0,0.0,0.0,0.0,-1.0836,-1.0273,-0.946,-0.9235,-0.9637,-0.9403,-0.9293,0.0,0.0,0.0,0.0,0.0,0.0,0.0,0.0,0.0,0.0,0.0,0.0,0.0,0.0,0.0,0.0,0.0,0.0,0.0,0.0,0.0,0.0,0.0,0.0,0.0,0.0,0.0,0.0,0.0,0.0,0.0,0.0,0.0,0.0,0.0,0.0,0.0,0.0,0.0,0.0,0.0,0.0,0.0,0.0,0.0,0.0,0.0,0.0,0.0,0.0,0.0,0.0,0.0,0.0,0.0,0.0,0.0,0.0,0.0,0.0,0.0,0.0,0.0,0.0,0.0,0.0,0.0,0.0,0.0,0.0,0.0,0.0,0.0,0.0,0.0,0.0,0.0,0.0,0.0,0.0,0.0,0.0,0.0,0.0,0.0,0.0,0.0,0.0,0.0,0.0,0.0,0.0,0.0,0.0,0.0,0.0,0.0,0.0,0.0,0.0,0.0,0.0,0.0,0.0,0.0,0.0,0.0,0.0,0.0,-0.919,-0.8737,-0.855,-0.8639,-0.8493,-0.8497,0.0,0.0,0.0,0.0,0.0,0.0,0.0,0.0,0.0,0.0,0.0,0.0,0.0,0.0,0.0,0.0,0.0,0.0,0.0,0.0,0.0,0.0,0.0,0.0,0.0,0.0,0.0,0.0,0.0,0.0,0.0,0.0,0.0,0.0,0.0,0.0,0.0,0.0,0.0,0.0,0.0,0.0,0.0,0.0,0.0,0.0,0.0,0.0,0.0,0.0,0.0,0.0,0.0,0.0,0.0,0.0,0.0,0.0,0.0,0.0,0.0,0.0,0.0,0.0,0.0,0.0,0.0,0.0,0.0,0.0,0.0,0.0,0.0,0.0,0.0,0.0,0.0,0.0,0.0,0.0,0.0,0.0,0.0,0.0,0.0,0.0,0.0,0.0,0.0,0.0,0.0,0.0,0.0,0.0,0.0,0.0,0.0,0.0,0.0,0.0,0.0,0.0,0.0,0.0,0.0,0.0,0.0,0.0,0.0,-0.8272,-0.8314,-0.8374,-0.8426,-0.8223,-0.8077,-0.8139,0.0,0.0,0.0,0.0,0.0,0.0,0.0,0.0,0.0,0.0,0.0,0.0,0.0,0.0,0.0,0.0,0.0,0.0,0.0,0.0,0.0,0.0,0.0,0.0,0.0,0.0,0.0,0.0,0.0,0.0,0.0,0.0,0.0,0.0,0.0,0.0,0.0,0.0,0.0,0.0,0.0,0.0,0.0,0.0,0.0,0.0,0.0,0.0,0.0,0.0,0.0,0.0,0.0,0.0,0.0,0.0,0.0,0.0,0.0,0.0,0.0,0.0,0.0,0.0,0.0,0.0,0.0,0.0,0.0,0.0,0.0,0.0,0.0,0.0,0.0,0.0,0.0,0.0,0.0,0.0,0.0,0.0,0.0,0.0,0.0,0.0,0.0,0.0,0.0,0.0,0.0,0.0,0.0,0.0,0.0,0.0,0.0,0.0,0.0,0.0,0.0,0.0,0.0,0.0,0.0,0.0,0.0,0.0,-0.7597,-0.8246,-0.8638,-0.8731,-0.8336,-0.7935,0.0,0.0,0.0,0.0,0.0,0.0,0.0,0.0,0.0,0.0,0.0,0.0,0.0,0.0,0.0,0.0,0.0,0.0,0.0,0.0,0.0,0.0,0.0,0.0,0.0,0.0,0.0,0.0,0.0,0.0,0.0,0.0,0.0,0.0,0.0,0.0,0.0,0.0,0.0,0.0,0.0,0.0,0.0,0.0,0.0,0.0,0.0,0.0,0.0,0.0,0.0,0.0,0.0,0.0,0.0,0.0,0.0,0.0,0.0,0.0,0.0,0.0,0.0,0.0,0.0,0.0,0.0,0.0,0.0,0.0,0.0,0.0,0.0,0.0,0.0,0.0,0.0,0.0,0.0,0.0,0.0,0.0,0.0,0.0,0.0,0.0,0.0,0.0,0.0,0.0,0.0,0.0,0.0,0.0,0.0,0.0,0.0,0.0,0.0,0.0,0.0,0.0,0.0,0.0,0.0,0.0,0.0,0.0,0.0,-0.8364,-0.8502,-0.8464,-0.828,-0.7515,-0.7129,0.0,0.0,0.0,0.0,0.0,0.0,0.0,0.0,0.0,0.0,0.0,0.0,0.0,0.0,0.0,0.0,0.0,0.0,0.0,0.0,0.0,0.0,0.0,0.0,0.0,0.0,0.0,0.0,0.0,0.0,0.0,0.0,0.0,0.0,0.0,0.0,0.0,0.0,0.0,0.0,0.0,0.0,0.0,0.0,0.0,0.0,0.0,0.0,0.0,0.0,0.0,0.0,0.0,0.0,0.0,0.0,0.0,0.0,0.0,0.0,0.0,0.0,0.0,0.0,0.0,0.0,0.0,0.0,0.0,0.0,0.0,0.0,0.0,0.0,0.0,0.0,0.0,0.0,0.0,0.0,0.0,0.0,0.0,0.0,0.0,0.0,0.0,0.0,0.0,0.0,0.0,0.0,0.0,0.0,0.0,0.0,0.0,0.0,0.0,0.0,0.0,0.0,0.0,0.0,0.0,0.0,0.0,0.0,-0.8397,-0.8579,-0.8954,-0.8892,-0.8208,-0.7117,-0.6454,0.0,0.0,0.0,0.0,0.0,0.0,0.0,0.0,0.0,0.0,0.0,0.0,0.0,0.0,0.0,0.0,0.0,0.0,0.0,0.0,0.0,0.0,0.0,0.0,0.0,0.0,0.0,0.0,0.0,0.0,0.0,0.0,0.0,0.0,0.0,0.0,0.0,0.0,0.0,0.0,0.0,0.0,0.0,0.0,0.0,0.0,0.0,0.0,0.0,0.0,0.0,0.0,0.0,0.0,0.0,0.0,0.0,0.0,0.0,0.0,0.0,0.0,0.0,0.0,0.0,0.0,0.0,0.0,0.0,0.0,0.0,0.0,0.0,0.0,0.0,0.0,0.0,0.0,0.0,0.0,0.0,0.0,0.0,0.0,0.0,0.0,0.0,0.0,0.0,0.0,0.0,0.0,0.0,0.0,0.0,0.0,0.0,0.0,0.0,0.0,0.0,0.0,0.0,0.0,0.0,0.0,0.0,0.0,-0.9024,-0.8656,-0.9493,-0.9475,-0.8441,-0.7036,-0.5963,0.0,0.0,0.0,0.0,0.0,0.0,0.0,0.0,0.0,0.0,0.0,0.0,0.0,0.0,0.0,0.0,0.0,0.0,0.0,0.0,0.0,0.0,0.0,0.0,0.0,0.0,0.0,0.0,0.0,0.0,0.0,0.0,0.0,0.0,0.0,0.0,0.0,0.0,0.0,0.0,0.0,0.0,0.0,0.0,0.0,0.0,0.0,0.0,0.0,0.0,0.0,0.0,0.0,0.0,0.0,0.0,0.0,0.0,0.0,0.0,0.0,0.0,0.0,0.0,0.0,0.0,0.0,0.0,0.0,0.0,0.0,0.0,0.0,0.0,0.0,0.0,0.0,0.0,0.0,0.0,0.0,0.0,0.0,0.0,0.0,0.0,0.0,0.0,0.0,0.0,0.0,0.0,0.0,0.0,0.0,0.0,0.0,0.0,0.0,0.0,0.0,0.0,0.0,0.0,0.0,0.0,0.0,0.0,-0.9558,-1.0167,-0.9405,-0.8914,-0.8628,-0.7119,-0.6021,0.0,0.0,0.0,0.0,0.0,0.0,0.0,0.0,0.0,0.0,0.0,0.0,0.0,0.0,0.0,0.0,0.0,0.0,0.0,0.0,0.0,0.0,0.0,0.0,0.0,0.0,0.0,0.0,0.0,0.0,0.0,0.0,0.0,0.0,0.0,0.0,0.0,0.0,0.0,0.0,0.0,0.0,0.0,0.0,0.0,0.0,0.0,0.0,-1.6138,0.0,0.0,0.0,0.0,0.0,0.0,0.0,0.0,0.0,0.0,0.0,0.0,0.0,0.0,0.0,0.0,0.0,0.0,0.0,0.0,0.0,0.0,0.0,0.0,0.0,0.0,0.0,0.0,0.0,0.0,0.0,0.0,0.0,0.0,0.0,0.0,0.0,0.0,0.0,0.0,0.0,0.0,0.0,0.0,0.0,0.0,0.0,0.0,0.0,0.0,0.0,0.0,0.0,0.0,0.0,0.0,0.0,0.0,0.0,-0.9943,-1.0804,-0.9668,-0.8926,-0.85,-0.7079,-0.5995,0.0,0.0,0.0,0.0,0.0,0.0,0.0,0.0,0.0,0.0,0.0,0.0,0.0,0.0,0.0,0.0,0.0,0.0,0.0,0.0,0.0,0.0,0.0,0.0,0.0,0.0,0.0,0.0,0.0,0.0,0.0,0.0,0.0,0.0,0.0,0.0,0.0,0.0,0.0,0.0,0.0,0.0,0.0,0.0,0.0,0.0,0.0,0.0,0.0,0.0,0.0,0.0,0.0,0.0,0.0,0.0,0.0,0.0,0.0,0.0,0.0,0.0,0.0,0.0,0.0,0.0,0.0,0.0,0.0,0.0,0.0,0.0,0.0,0.0,0.0,0.0,0.0,0.0,0.0,0.0,0.0,0.0,0.0,0.0,0.0,0.0,0.0,0.0,0.0,0.0,0.0,0.0,0.0,0.0,0.0,0.0,0.0,0.0,0.0,0.0,0.0,0.0,0.0,0.0,0.0,0.0,0.0,-0.9942,-1.0393,-1.1099,-1.0162,-0.9229,-0.8497,-0.72,-0.6058,-0.527,0.0,0.0,0.0,0.0,0.0,0.0,0.0,0.0,0.0,0.0,0.0,0.0,0.0,0.0,0.0,0.0,0.0,0.0,0.0,0.0,0.0,0.0,0.0,0.0,0.0,0.0,0.0,0.0,0.0,0.0,0.0,0.0,0.0,0.0,0.0,0.0,0.0,0.0,-1.4584,-1.4566,0.0,0.0,0.0,0.0,0.0,0.0,0.0,0.0,-1.7786,0.0,0.0,0.0,0.0,0.0,0.0,0.0,0.0,0.0,0.0,0.0,0.0,0.0,0.0,0.0,0.0,0.0,0.0,0.0,0.0,0.0,0.0,0.0,0.0,0.0,0.0,0.0,0.0,0.0,0.0,0.0,0.0,0.0,0.0,0.0,0.0,0.0,0.0,0.0,0.0,0.0,0.0,0.0,0.0,0.0,0.0,0.0,0.0,0.0,0.0,0.0,0.0,0.0,0.0,0.0,0.0,-1.0665,-1.062,-1.1038,-1.2038,-1.0822,-0.9926,-0.931,-0.7682,-0.6548,-0.6002,0.0,0.0,0.0,0.0,0.0,0.0,0.0,0.0,0.0,0.0,0.0,0.0,0.0,0.0,0.0,0.0,0.0,0.0,0.0,0.0,0.0,0.0,0.0,0.0,0.0,0.0,0.0,0.0,0.0,0.0,0.0,0.0,0.0,0.0,0.0,0.0,0.0,0.0,0.0,-1.5202,-1.5455,0.0,0.0,0.0,0.0,0.0,0.0,0.0,0.0,-1.8185,0.0,0.0,0.0,0.0,0.0,0.0,0.0,0.0,0.0,0.0,0.0,0.0,0.0,0.0,0.0,0.0,0.0,0.0,0.0,0.0,0.0,0.0,0.0,0.0,0.0,0.0,0.0,0.0,0.0,0.0,0.0,0.0,0.0,0.0,0.0,0.0,0.0,0.0,0.0,0.0,0.0,0.0,0.0,0.0,0.0,0.0,0.0,0.0,0.0,0.0,0.0,0.0,0.0,0.0,0.0,-1.1574,-1.182,-1.2317,-1.3132,-1.1571,-1.0325,-0.9366,-0.7854,-0.6592,0.0,0.0,0.0,0.0,0.0,0.0,0.0,0.0,0.0,0.0,0.0,0.0,0.0,0.0,0.0,0.0,0.0,0.0,0.0,0.0,0.0,0.0,0.0,0.0,0.0,0.0,0.0,0.0,0.0,0.0,0.0,0.0,0.0,0.0,0.0,0.0,0.0,0.0,0.0,0.0,-1.5657,-1.5946,-1.7054,0.0,0.0,0.0,0.0,0.0,0.0,-1.9212,-1.8898,0.0,0.0,0.0,0.0,0.0,0.0,0.0,0.0,0.0,0.0,0.0,0.0,0.0,0.0,0.0,0.0,0.0,0.0,0.0,0.0,0.0,0.0,0.0,0.0,0.0,0.0,0.0,0.0,0.0,0.0,0.0,0.0,0.0,0.0,0.0,0.0,0.0,0.0,0.0,0.0,0.0,0.0,0.0,0.0,0.0,0.0,0.0,0.0,0.0,0.0,0.0,0.0,0.0,0.0,0.0,-1.2335,-1.2784,-1.3307,-1.3811,-1.2128,-1.0571,-0.9424,-0.7996,-0.6606,0.0,0.0,0.0,0.0,0.0,0.0,0.0,0.0,0.0,0.0,0.0,0.0,0.0,0.0,0.0,0.0,0.0,0.0,0.0,0.0,0.0,0.0,0.0,0.0,0.0,0.0,0.0,0.0,0.0,0.0,0.0,0.0,0.0,0.0,0.0,0.0,0.0,0.0,0.0,0.0,0.0,-1.6608,-1.7855,-1.7611,0.0,0.0,0.0,0.0,-2.0316,-2.0216,0.0,0.0,0.0,0.0,0.0,0.0,0.0,0.0,0.0,0.0,0.0,0.0,0.0,0.0,0.0,0.0,0.0,0.0,0.0,0.0,0.0,0.0,0.0,0.0,0.0,0.0,0.0,0.0,0.0,0.0,0.0,0.0,0.0,0.0,0.0,0.0,0.0,0.0,0.0,0.0,0.0,0.0,0.0,0.0,0.0,0.0,0.0,0.0,0.0,0.0,0.0,0.0,0.0,0.0,0.0,0.0,-1.2501,-1.2644,-1.2968,-1.3434,-1.1896,-1.0737,-1.0155,-0.8213,-0.6921,0.0,0.0,0.0,0.0,0.0,0.0,0.0,0.0,0.0,0.0,0.0,0.0,0.0,0.0,0.0,0.0,0.0,0.0,0.0,0.0,0.0,0.0,0.0,0.0,0.0,0.0,0.0,0.0,0.0,0.0,0.0,0.0,0.0,0.0,0.0,0.0,0.0,0.0,0.0,0.0,0.0,-1.7638,-1.8491,-1.8419,-1.8262,0.0,0.0,-1.9704,-1.9899,-2.0796,0.0,0.0,0.0,0.0,0.0,0.0,0.0,0.0,0.0,0.0,0.0,0.0,0.0,0.0,0.0,0.0,0.0,0.0,0.0,0.0,0.0,0.0,0.0,0.0,0.0,0.0,0.0,0.0,0.0,0.0,0.0,0.0,0.0,0.0,0.0,0.0,0.0,0.0,0.0,0.0,0.0,0.0,0.0,0.0,0.0,0.0,0.0,0.0,0.0,0.0,0.0,0.0,0.0,0.0,0.0,-1.2149,-1.2842,-1.3631,-1.4054,-1.4016,-1.2443,-1.1087,-1.0135,-0.8258,-0.6977,0.0,0.0,0.0,0.0,0.0,0.0,0.0,0.0,0.0,0.0,0.0,0.0,0.0,0.0,0.0,0.0,0.0,0.0,0.0,0.0,0.0,0.0,0.0,0.0,0.0,0.0,0.0,0.0,0.0,0.0,0.0,0.0,0.0,0.0,0.0,0.0,0.0,0.0,0.0,0.0,0.0,0.0,-1.8751,-1.8826,0.0,0.0,0.0,-1.9454,-1.9632,0.0,0.0,0.0,0.0,0.0,0.0,0.0,0.0,0.0,0.0,0.0,0.0,0.0,0.0,0.0,0.0,0.0,0.0,0.0,0.0,0.0,0.0,0.0,0.0,0.0,0.0,0.0,0.0,0.0,0.0,0.0,0.0,0.0,0.0,0.0,0.0,0.0,0.0,0.0,0.0,0.0,0.0,0.0,0.0,0.0,0.0,0.0,0.0,0.0,0.0,0.0,0.0,0.0,0.0,0.0,0.0,0.0,-1.3095,-1.4321,-1.4815,-1.4469,-1.2687,-1.1329,-1.0488,-0.878,0.0,0.0,0.0,0.0,0.0,0.0,0.0,0.0,0.0,0.0,0.0,0.0,0.0,0.0,0.0,0.0,0.0,0.0,0.0,0.0,0.0,0.0,0.0,0.0,0.0,0.0,0.0,-1.499,0.0,0.0,0.0,0.0,0.0,0.0,0.0,0.0,0.0,0.0,0.0,0.0,0.0,0.0,-1.8561,-1.8845,-1.9088,-1.9252,0.0,0.0,-1.939,-1.9683,-2.0226,-2.0468,0.0,0.0,0.0,0.0,0.0,0.0,0.0,0.0,0.0,0.0,0.0,0.0,0.0,0.0,0.0,0.0,0.0,0.0,0.0,0.0,0.0,0.0,0.0,0.0,0.0,0.0,0.0,0.0,0.0,0.0,0.0,0.0,0.0,0.0,0.0,0.0,0.0,0.0,0.0,0.0,0.0,0.0,0.0,0.0,0.0,0.0,0.0,0.0,0.0,0.0,0.0,0.0,0.0,0.0,0.0,-1.3222,-1.3914,-1.4401,-1.441,-1.2274,-1.1296,-1.1663,-0.9986,-0.8777,0.0,0.0,0.0,0.0,0.0,0.0,0.0,0.0,0.0,0.0,0.0,0.0,0.0,0.0,0.0,0.0,0.0,0.0,0.0,0.0,0.0,0.0,0.0,0.0,0.0,0.0,0.0,0.0,0.0,0.0,0.0,0.0,0.0,0.0,0.0,0.0,0.0,0.0,0.0,0.0,0.0,-1.9035,-1.8898,-1.9381,-1.9747,0.0,0.0,-1.9925,-2.034,-2.0948,-2.107,-2.0323,0.0,0.0,0.0,0.0,0.0,0.0,0.0,0.0,0.0,0.0,0.0,0.0,0.0,0.0,0.0,0.0,0.0,0.0,0.0,0.0,0.0,0.0,0.0,0.0,0.0,0.0,0.0,0.0,0.0,0.0,0.0,0.0,0.0,0.0,0.0,0.0,0.0,0.0,0.0,0.0,0.0,0.0,0.0,0.0,0.0,0.0,0.0,0.0,0.0,0.0,0.0,0.0,0.0,-1.2954,-1.3671,-1.4899,-1.5235,-1.4469,-1.3304,-1.2389,-1.1809,-1.0562,-0.9636,0.0,0.0,0.0,0.0,0.0,0.0,0.0,0.0,0.0,0.0,0.0,0.0,0.0,0.0,0.0,0.0,0.0,0.0,0.0,0.0,0.0,0.0,0.0,0.0,0.0,0.0,0.0,0.0,-1.6837,-1.7156,-1.741,0.0,0.0,0.0,0.0,0.0,0.0,0.0,0.0,0.0,0.0,-1.9297,-1.9454,-1.9656,0.0,0.0,-1.9812,-1.9764,-1.9674,-2.0161,-2.0274,-1.9568,-1.935,0.0,0.0,0.0,0.0,0.0,0.0,0.0,0.0,0.0,0.0,0.0,0.0,0.0,0.0,0.0,0.0,0.0,0.0,0.0,0.0,0.0,0.0,0.0,0.0,0.0,0.0,0.0,0.0,0.0,0.0,0.0,0.0,0.0,0.0,0.0,0.0,0.0,0.0,0.0,0.0,0.0,0.0,0.0,0.0,0.0,0.0,0.0,0.0,0.0,0.0,0.0,0.0,-1.3137,-1.4063,-1.5385,-1.5594,-1.4529,-1.3786,-1.3,-1.2042,-1.1226,-1.061,0.0,0.0,0.0,0.0,0.0,0.0,0.0,0.0,0.0,0.0,0.0,0.0,0.0,0.0,0.0,0.0,0.0,0.0,0.0,0.0,0.0,0.0,0.0,0.0,0.0,0.0,0.0,0.0,-1.7459,-1.7837,-1.8262,0.0,0.0,0.0,0.0,0.0,0.0,0.0,0.0,0.0,0.0,-1.9588,-1.9653,-1.979,-1.983,-1.9672,-1.9633,-1.9482,-1.8961,-1.9258,-1.9445,-1.9155,0.0,0.0,0.0,0.0,0.0,0.0,0.0,0.0,0.0,0.0,0.0,0.0,0.0,0.0,0.0,0.0,0.0,0.0,0.0,0.0,0.0,0.0,0.0,0.0,0.0,0.0,0.0,0.0,0.0,0.0,-2.0642,0.0,0.0,0.0,0.0,0.0,0.0,0.0,0.0,0.0,0.0,0.0,0.0,0.0,0.0,0.0,0.0,0.0,0.0,0.0,0.0,0.0,0.0,-1.3585,-1.4184,-1.5054,-1.5177,-1.4529,-1.3433,-1.2834,-1.2621,-1.2042,-1.1887,-1.2031,0.0,0.0,0.0,0.0,0.0,0.0,0.0,0.0,0.0,0.0,0.0,0.0,0.0,0.0,0.0,0.0,0.0,0.0,0.0,0.0,0.0,0.0,0.0,0.0,0.0,0.0,-1.694,-1.7881,-1.8723,0.0,0.0,0.0,0.0,0.0,0.0,0.0,0.0,0.0,0.0,-1.9602,-1.9974,-1.9408,-1.9807,-1.994,-1.9434,-1.9328,-1.9115,-1.8512,-1.8532,-1.8706,0.0,0.0,0.0,0.0,0.0,0.0,0.0,0.0,0.0,0.0,0.0,0.0,0.0,0.0,0.0,0.0,0.0,0.0,0.0,0.0,0.0,0.0,0.0,0.0,0.0,0.0,0.0,-2.4035,-2.4479,0.0,0.0,0.0,0.0,0.0,0.0,0.0,0.0,0.0,0.0,0.0,-2.4011,-2.3006,0.0,0.0,0.0,0.0,0.0,0.0,0.0,0.0,0.0,0.0,0.0,0.0,-1.4099,-1.5311,-1.6157,-1.628,-1.5708,-1.5012,-1.4423,-1.4025,-1.3897,-1.3807,-1.3689,0.0,0.0,0.0,0.0,0.0,0.0,0.0,0.0,0.0,0.0,0.0,0.0,0.0,0.0,0.0,0.0,0.0,0.0,0.0,0.0,0.0,0.0,0.0,0.0,0.0,-1.8301,0.0,0.0,0.0,0.0,0.0,0.0,0.0,0.0,0.0,0.0,0.0,-1.9014,-1.9219,-1.9185,-1.9177,-1.9274,-1.9141,-1.9221,0.0,0.0,0.0,0.0,0.0,0.0,0.0,0.0,0.0,0.0,0.0,0.0,0.0,0.0,-1.9715,-1.9181,-1.917,-1.9212,-1.9176,0.0,0.0,0.0,0.0,0.0,0.0,0.0,0.0,0.0,0.0,0.0,0.0,0.0,0.0,0.0,0.0,-2.6365,0.0,0.0,0.0,0.0,0.0,0.0,0.0,0.0,-2.7131,-2.7061,-2.646,-2.5582,-2.4522,0.0,-2.219,-2.0014,0.0,0.0,0.0,0.0,0.0,0.0,0.0,0.0,-1.5255,-1.6508,-1.7632,-1.7956,-1.7352,-1.7074,-1.6598,-1.5989,-1.6246,-1.6368,-1.6189,-1.5175,-1.4411,0.0,0.0,0.0,0.0,0.0,0.0,0.0,0.0,0.0,0.0,0.0,0.0,0.0,0.0,0.0,0.0,0.0,0.0,0.0,0.0,0.0,0.0,0.0,-1.9114,0.0,0.0,0.0,0.0,0.0,0.0,0.0,0.0,0.0,-1.921,-1.9182,-1.9269,-1.953,-1.9391,-1.9212,-1.9141,0.0,0.0,0.0,0.0,0.0,0.0,0.0,-1.9196,-1.9577,-2.0554,-2.137,-2.1478,-2.1061,-2.0902,-2.161,0.0,0.0,-2.007,-2.0072,-2.0295,-2.0258,-2.0205,-2.0262,-2.044,-2.0458,-2.0535,0.0,0.0,0.0,0.0,0.0,0.0,0.0,0.0,-2.7804,-2.7481,0.0,-2.8284,0.0,0.0,0.0,0.0,0.0,-2.8894,0.0,0.0,-3.0734,-3.1016,-2.9649,-2.8046,-2.7185,-2.692,-2.4238,-2.3074,-2.3109,-2.0614,0.0,0.0,0.0,0.0,0.0,0.0,-1.7055,-1.7883,-1.9432,-1.9959,-1.9365,-1.9317,-1.9,-1.8458,-1.8988,-1.9353,-1.9377,-1.8471,-1.7903,-1.778,-1.6083,0.0,0.0,0.0,0.0,0.0,0.0,0.0,0.0,0.0,0.0,0.0,0.0,0.0,0.0,0.0,0.0,0.0,0.0,0.0,0.0,-1.9565,0.0,0.0,0.0,0.0,0.0,0.0,0.0,0.0,0.0,0.0,-1.9239,-1.9412,-1.9588,-1.9646,0.0,0.0,0.0,0.0,-1.9266,-1.8221,-1.8017,-1.7865,-1.7399,-1.8343,-1.9656,-2.1137,0.0,0.0,-2.3778,-2.3431,-2.3187,-2.3872,-2.4339,-2.4103,-2.2214,-2.1874,-2.1834,-2.1698,-2.1728,-2.1451,-2.0924,-2.0998,-2.0784,-3.12,0.0,0.0,0.0,0.0,-2.9864,-3.1225,-3.2931,-3.3777,-3.3986,-3.3665,-3.2301,0.0,0.0,0.0,0.0,0.0,0.0,-3.052,-3.1141,-3.1678,-3.1643,-3.1119,-3.0335,-2.9478,-2.8513,-2.7381,-2.6748,-2.6541,-2.5753,-2.3382,-1.9517,0.0,0.0,0.0,0.0,-1.9528,-2.0643,-2.0995,-2.1113,-2.1101,-2.0363,-2.0167,-2.0633,-2.0839,-2.133,-2.2124,-2.1351,-2.0836,-2.0611,-1.9258,0.0,0.0,0.0,0.0,0.0,0.0,0.0,0.0,0.0,0.0,0.0,0.0,0.0,0.0,0.0,0.0,0.0,0.0,0.0,-1.9265,-1.967,-1.9823,0.0,0.0,0.0,0.0,0.0,0.0,0.0,0.0,0.0,-1.9649,-1.9287,-1.9022,0.0,0.0,-1.9171,-1.8861,-1.8956,-1.9361,-2.027,0.0,0.0,0.0,-2.0753,-2.1213,-2.1713,-2.3087,-2.4177,-2.4076,-2.4665,-2.5289,-2.5878,-2.5758,-2.544,-2.4911,-2.4626,-2.4477,-2.4448,-2.4448,-2.4237,-2.3688,-2.3548,-2.3345,-3.6249,-3.441,-3.1925,-3.1531,-3.2594,-3.3282,-3.4579,-3.6259,-3.693,-3.703,-3.667,-3.5483,-3.4526,-3.3652,-3.1694,0.0,0.0,0.0,-3.1987,-3.2793,-3.2683,-3.2475,-3.2175,-3.165,-3.1014,-3.0237,-2.9548,-2.9108,-2.9022,-2.8388,-2.666,-2.3908,0.0,0.0,-2.0718,-2.1329,-2.2005,-2.2692,-2.3018,-2.3281,-2.3349,-2.2769,-2.2713,-2.3267,-2.3446,-2.3824,-2.4238,-2.4062,-2.3727,-2.3376,-2.2395,-2.138,0.0,0.0,0.0,0.0,0.0,0.0,0.0,0.0,0.0,0.0,0.0,-1.9222,0.0,0.0,0.0,0.0,-1.9748,-1.9922,-2.0274,-2.0472,0.0,0.0,0.0,0.0,0.0,0.0,0.0,-1.9558,-1.9683,-1.9792,-1.9748,-1.9595,-1.9469,-1.9469,-1.9673,-1.9741,-1.951,0.0,-2.0473,-2.1301,-2.0607,-2.0429,-2.1675,-2.24,-2.3021,-2.3695,-2.5009,-2.584,-2.5551,-2.6087,-2.6758,-2.7224,-2.7148,-2.6869,-2.6869,-2.6695,-2.6341,-2.5813,-2.5444,-2.5047,-2.4546,-2.4248,-2.3932,-4.0747,-4.0231,-3.5537,-3.4441,-3.5757,-3.5676,-3.6573,-3.808,-3.8132,-3.7695,-3.6993,-3.7822,-3.725,-3.5556,-3.4657,0.0,-3.401,-3.3828,-3.3902,-3.4167,-3.3942,-3.366,-3.3232,-3.2539,-3.2144,-3.2091,-3.0977,-3.0601,-3.0841,-2.9342,-2.8665,-2.8843,-2.671,-2.4687,-2.2956,-2.3928,-2.4426,-2.4404,-2.5406,-2.5918,-2.5932,-2.5877,-2.5892,-2.5957,-2.6448,-2.6486,-2.6133,-2.6465,-2.6482,-2.6012,-2.5455,-2.4795,-2.3955,0.0,0.0,0.0,0.0,0.0,0.0,0.0,0.0,0.0,0.0,0.0,0.0,0.0,0.0,0.0,-2.1292,0.0,-2.1946,-2.1522,0.0,0.0,0.0,-2.1385,-2.1385,-2.1211,-2.1019,-2.0753,0.0,0.0,-1.9925,0.0,-2.0716,-2.0825,-2.1213,-2.1335,-2.0805,-2.1724,-2.2233,-2.1888,-2.1849,-2.2076,-2.2866,-2.38,-2.4832,-2.6153,-2.7144,-2.7375,-2.7345,-2.749,-2.778,-2.8222,-2.8284,-2.8204,-2.822,-2.7997,-2.761,-2.6302,-2.5527,-2.4881,-2.4489,-2.3955,-2.3445,-4.2659,-4.2586,-4.135,-4.0163,-3.9076,-3.9176,-3.9492,-3.9869,-4.0042,-3.9972,-3.9714,-3.9264,-3.8485,-3.7453,-3.7151,-3.691,-3.6759,-3.6706,-3.6654,-3.6545,-3.6302,-3.5994,-3.556,-3.4878,-3.4398,-3.4058,-3.2856,-3.2323,-3.2325,-3.113,-3.0523,-3.0548,-2.9777,-2.841,-2.6518,-2.6612,-2.6977,-2.7511,-2.733,-2.7098,-2.6762,-2.6562,-2.6799,-2.7595,-2.7728,-2.7954,-2.8321,-2.8404,-2.8405,-2.8295,-2.7684,-2.702,-2.6329,-2.4177,0.0,0.0,0.0,0.0,0.0,0.0,0.0,0.0,0.0,-2.0243,-1.917,0.0,-2.1285,0.0,-2.1975,-2.2411,-2.1743,-2.1585,0.0,0.0,-2.1395,-2.149,-2.1126,-2.1606,-2.1624,-2.0783,-2.0838,-2.1139,-2.1583,-2.2045,-2.2626,-2.3555,-2.3166,-2.2734,-2.2608,-2.3196,-2.3825,-2.4026,-2.4119,-2.4535,-2.5416,-2.5893,-2.6249,-2.6634,-2.7144,-2.7434,-2.739,-2.7815,-2.8235,-2.8348,-2.8348,-2.8348,-2.8348,-2.825,-2.8046,-2.7677,-2.7308,-2.6846,-2.622,-2.5562,-2.497,-4.34,-4.3391,-4.3397,-4.2705,-4.1555,-4.1273,-4.1186,-4.1166,-4.092,-4.0759,-4.0707,-4.0217,-3.9695,-3.9182,-3.8748,-3.8516,-3.8383,-3.7917,-3.7639,-3.7528,-3.7293,-3.7062,-3.6827,-3.6318,-3.5917,-3.5581,-3.4713,-3.4285,-3.4118,-3.3055,-3.2511,-3.2454,-3.1636,-3.0683,-2.9576,-2.9065,-2.8825,-2.8841,-2.8623,-2.8451,-2.8404,-2.8231,-2.8202,-2.8442,-2.8363,-2.8179,-2.7897,-2.7962,-2.8045,-2.811,-2.7939,-2.7753,-2.7517,-2.5614,-2.4062,0.0,0.0,0.0,0.0,0.0,0.0,0.0,0.0,0.0,0.0,0.0,-2.1918,-2.1654,-2.2229,-2.2411,-2.1845,-2.1888,-2.1873,-2.1481,-2.223,-2.2615,-2.2352,-2.2509,-2.2657,-2.2655,-2.2481,-2.2669,-2.3533,-2.401,-2.464,-2.5597,-2.5336,-2.4846,-2.4412,-2.479,-2.528,-2.5607,-2.5792,-2.6205,-2.7063,-2.7363,-2.7515,-2.7494,-2.768,-2.7894,-2.7799,-2.814,-2.8411,-2.8411,-2.8411,-2.8411,-2.8411,-2.8348,-2.8299,-2.8186,-2.8088,-2.771,-2.7034,-2.6375,-2.5837,-4.3811,-4.3763,-4.3742,-4.371,-4.3574,-4.2717,-4.2267,-4.2106,-4.1429,-4.1119,-4.1119,-4.0926,-4.0814,-4.0703,-3.9856,-3.9475,-3.9392,-3.8498,-3.807,-3.8051,-3.7852,-3.7775,-3.7755,-3.7435,-3.7174,-3.6988,-3.6607,-3.6315,-3.6085,-3.4943,-3.4395,-3.4317,-3.2948,-3.221,-3.2144,-3.1232,-3.0319,-2.948,-2.9609,-2.9831,-3.0129,-3.0029,-2.9626,-2.8926,-2.856,-2.7857,-2.6738,-2.6647,-2.6788,-2.7057,-2.7361,-2.7798,-2.824,-2.6711,-2.5643,0.0,-2.3669,0.0,0.0,0.0,0.0,0.0,0.0,0.0,0.0,-2.2446,-2.2437,-2.256,-2.2321,-2.2149,-2.2106,-2.2407,-2.2477,-2.225,-2.3281,-2.3982,-2.3982,-2.3641,-2.3851,-2.4963,-2.4431,-2.437,-2.5319,-2.6024,-2.6561,-2.7048,-2.7233,-2.6961,-2.6235,-2.6323,-2.6582,-2.6654,-2.7041,-2.7455,-2.783,-2.8253,-2.8525,-2.8444,-2.8396,-2.8444,-2.8396,-2.8411,-2.8411,-2.8411,-2.8411,-2.8411,-2.8411,-2.8411,-2.8348,-2.8235,-2.8235,-2.8024,-2.7393,-2.6782,-2.6133,-4.567,-4.5665,-4.5616,-4.5565,-4.5424,-4.456,-4.3749,-4.3034,-4.2879,-4.2821,-4.2783,-4.2085,-4.1716,-4.1596,-4.0737,-4.0323,-4.0258,-4.0069,-3.9977,-3.9961,-3.9772,-3.9681,-3.9643,-3.9387,-3.9239,-3.9139,-3.8471,-3.8033,-3.7804,-3.6679,-3.603,-3.5765,-3.4587,-3.3897,-3.3648,0.0,0.0,0.0,-3.0796,-3.0605,-3.0731,-3.0207,-2.9793,-2.9454,-2.8767,0.0,-2.8031,-2.7298,-2.7198,-2.7774,-2.7806,0.0,0.0,0.0,0.0,0.0,0.0,0.0,0.0,0.0,0.0,0.0,-2.3709,-2.307,-2.2649,-2.2661,-2.2768,-2.2966,-2.3083,-2.3025,-2.2744,-2.304,-2.3199,-2.3156,-2.3621,-2.3982,-2.3997,-2.4594,-2.5078,-2.4998,-2.5319,-2.5863,-2.6544,-2.7055,-2.7566,-2.8059,-2.8227,-2.8194,-2.7975,-2.746,-2.7297,-2.76,-2.8091,-2.8477,-2.8589,-2.8684,-2.8732,-2.87,-2.8636,-2.8573,-2.8525,-2.8444,-2.8411,-2.8411,-2.8411,-2.8411,-2.8411,-2.8411,-2.8411,-2.8348,-2.8348,-2.825,-2.7905,-2.7342,-2.6916,-4.6179,0.0,-4.6113,-4.6092,0.0,-4.555,-4.5071,-4.4581,-4.3672,-4.3305,-4.3266,-4.2833,-4.2626,-4.2507,-4.2088,-4.162,-4.1193,-4.1193,-4.0943,-4.0508,-4.0408,-4.0339,-4.0339,-4.0212,-4.0082,-3.9964,-3.9584,-3.9254,-3.8995,-3.804,-3.7466,-3.7214,-3.6114,-3.5256,-3.4694,-3.3954,-3.3273,-3.258,-3.2091,-3.1933,-3.2107,-3.1794,-3.1405,-3.0945,0.0,0.0,0.0,0.0,0.0,0.0,0.0,0.0,0.0,0.0,0.0,-2.8639,-2.7611,-2.7098,-2.7454,-2.6854,-2.6583,-2.6856,-2.6078,-2.4871,-2.3324,-2.3449,-2.3618,-2.3566,-2.348,-2.3334,-2.3172,-2.348,-2.3711,-2.3696,-2.4024,-2.4342,-2.4722,-2.506,-2.5595,-2.6404,-2.6686,-2.7118,-2.7938,-2.8217,-2.8435,-2.8701,-2.8622,-2.8574,-2.8716,-2.8255,-2.8061,-2.8415,-2.8732,-2.8905,-2.8858,-2.8858,-2.8811,-2.8779,-2.8747,-2.8668,-2.859,-2.8573,-2.8493,-2.8493,-2.8444,-2.8411,-2.8411,-2.8411,-2.8411,-2.8411,-2.8411,-2.8348,-2.8217,-2.794,-2.7595,-4.6195,-4.6131,-4.615,-4.6143,-4.6118,-4.6049,-4.6016,-4.591,0.0,0.0,0.0,-4.3595,-4.3504,-4.3419,-4.3283,-4.2816,-4.2144,-4.211,-4.1632,-4.0754,-4.0754,-4.0642,-4.0489,-4.0489,-4.0406,-4.0269,-4.0251,-4.0139,-3.9861,-3.9212,-3.8771,-3.8479,-3.7492,-3.6477,-3.5483,-3.468,-3.408,-3.3597,-3.327,-3.3198,-3.3369,-3.336,-3.2958,-3.2239,-3.1462,-3.0629,-2.9743,-2.8783,-2.8487,-2.8971,-2.8763,-2.896,-2.9661,-2.9644,-2.9609,-2.9515,-2.9147,-2.9242,-2.9872,-2.8933,-2.8519,-2.8985,-2.8207,-2.6677,-2.4343,-2.448,-2.4482,-2.404,-2.3739,-2.3595,-2.3508,-2.3882,-2.4155,-2.4261,-2.4502,-2.4973,-2.5652,-2.5669,-2.6282,-2.7724,-2.7917,-2.8185,-2.8919,-2.9059,-2.9091,-2.9075,-2.8826,-2.8732,-2.8967,-2.8764,-2.8669,-2.8982,-2.9045,-2.9029,-2.8967,-2.892,-2.8936,-2.8873,-2.8826,-2.8811,-2.8732,-2.8637,-2.8605,-2.8636,-2.8477,-2.8429,-2.846,-2.8396,-2.8411,-2.8411,-2.8411,-2.8411,-2.8411,-2.8411,-2.8186,-4.6276,-4.6276,-4.6256,-4.6229,-4.6182,-4.617,-4.6142,-4.6046,-4.562,-4.5452,-4.5394,-4.4717,-4.4394,-4.4288,-4.3535,-4.312,-4.3018,-4.2954,-4.2495,0.0,-4.1639,-4.1219,-4.0508,-4.0489,-4.0489,-4.0457,-4.0438,-4.0356,-4.0157,-4.0039,-3.9852,-3.9513,-3.8788,-3.7618,-3.6198,-3.5951,-3.5515,-3.4756,-3.4211,-3.3765,-3.3404,-3.3131,-3.2646,-3.1952,-3.1047,-3.0452,-3.0282,-2.942,-2.9144,-2.9696,-2.9593,-2.9915,-3.0808,-3.0865,-3.1045,-3.1424,-3.1216,-3.1138,-3.1298,-3.0616,-2.9824,-2.8949,-2.8692,-2.7772,-2.5825,-2.5441,-2.4976,-2.4158,-2.4254,-2.4234,-2.3967,-2.428,-2.4751,-2.5215,-2.5335,-2.5742,-2.6718,-2.7268,-2.7677,-2.8094,-2.8586,-2.8887,-2.9044,-2.9137,-2.9137,-2.9075,-2.9029,-2.9029,-2.9121,-2.9091,-2.9029,-2.9091,-2.9091,-2.9075,-2.9152,-2.9059,-2.9121,-2.9091,-2.8982,-2.8982,-2.9107,-2.8842,-2.8716,-2.8779,-2.87,-2.8574,-2.8605,-2.8444,-2.8493,-2.8541,-2.8541,-2.8493,-2.8541,-2.8523,-2.8442,-4.63,-4.63,-4.63,-4.6293,-4.6247,-4.6202,-4.615,-4.6095,-4.5998,-4.598,-4.5949,-4.5568,-4.5394,-4.5341,-4.4916,-4.4457,-4.3965,-4.3897,-4.3389,-4.2572,-4.2518,-4.2043,-4.1258,-4.12,-4.0966,-4.0577,-4.0558,-4.0523,-4.0438,-4.0415,-4.0298,-3.9986,-3.9242,-3.8249,-3.7135,-3.6699,-3.6132,-3.533,-3.4831,-3.4491,-3.428,-3.4131,-3.3904,-3.3657,-3.3167,-3.288,-3.2673,-3.2125,-3.1856,-3.1971,-3.1756,-3.1856,-3.225,-3.2304,-3.2402,-3.2648,-3.2231,-3.1986,-3.2039,-3.1452,-3.0751,-3.0046,-2.9889,-2.9165,-2.7768,-2.7086,-2.6471,-2.5806,-2.5858,-2.5916,-2.5733,-2.5764,-2.5989,-2.6456,-2.6435,-2.6706,-2.7482,-2.7873,-2.8237,-2.86,-2.8916,-2.9091,-2.9091,-2.935,-2.9335,-2.9183,-2.9137,-2.9213,-2.9409,-2.9499,-2.9515,-2.9515,-2.9515,-2.9633,-2.9793,-2.9837,-2.9837,-2.9881,-2.9589,-2.9544,-2.971,-2.9303,-2.909,-2.9454,-2.935,-2.9259,-2.9364,-2.9332,-2.9241,-2.9212,-2.9182,-2.9152,-2.9167,-2.9234,-2.9245,-4.63,-4.63,-4.63,-4.6303,-4.6293,-4.6248,-4.6203,-4.6137,-4.6137,-4.6143,-4.6131,-4.6118,-4.6118,-4.6099,-4.6041,-4.5615,-4.4993,-4.4882,-4.4337,-4.3485,-4.3435,-4.2961,-4.2194,-4.2136,-4.169,-4.0969,-4.0892,-4.0791,-4.0626,-4.0588,-4.0511,-4.026,-3.9684,-3.8972,-3.8174,-3.7668,-3.6909,-3.5932,-3.558,-3.5356,-3.5143,-3.5111,-3.5111,-3.5162,-3.5111,-3.4977,-3.4735,-3.4473,-3.4228,-3.3961,-3.3671,-3.3504,-3.3437,-3.3408,-3.3379,-3.3273,-3.2858,-3.2533,-3.2384,-3.195,-3.1524,-3.1134,-3.0925,-3.0473,-2.9705,-2.8951,-2.8135,-2.7499,-2.7288,-2.7246,-2.7147,-2.7084,-2.7169,-2.7482,-2.7418,-2.7604,-2.8189,-2.8405,-2.8669,-2.9164,-2.9335,-2.9425,-2.938,-2.9677,-2.9793,-2.9544,-2.9425,-2.9589,-2.9897,-2.9968,-2.9968,-3.0054,-3.0011,-3.0054,-3.0435,-3.0477,-3.0435,-3.0477,-3.0166,-3.0048,-3.0175,-2.9717,-2.9665,-3.0222,-3.0217,-3.0027,-3.0097,-3.0005,-2.9903,-2.9876,-2.9805,-2.9821,-2.975,-3.0041,-3.0022,-4.63,-4.63,-4.63,-4.629,-4.63,-4.63,-4.6285,-4.6274,-4.6281,-4.6293,-4.6279,-4.6154,-4.6115,-4.6115,-4.6076,-4.6018,-4.5918,-4.5891,-4.5336,-4.4534,-4.4469,-4.3975,-4.3138,-4.3096,-4.2613,-4.1861,-4.1764,-4.134,-4.0698,-4.0607,-4.0612,-4.0651,-4.0582,-4.0108,-3.9393,-3.925,-3.8411,-3.6814,-3.6752,-3.6342,-3.5584,-3.5438,-3.5378,-3.5359,-3.5193,-3.5098,-3.5047,-3.4851,-3.4714,-3.4693,-3.439,-3.4099,-3.3895,-3.3788,-3.3606,-3.335,-3.3243,-3.2965,-3.2484,-3.235,-3.2056,-3.1524,-3.1428,-3.1355,-3.1198,-3.0892,-2.9836,-2.8355,-2.7794,-2.7761,-2.74,-2.748,-2.7769,-2.8168,-2.8144,-2.8284,-2.8958,-2.9374,-2.9701,-2.9689,-3.0054,-3.0225,-2.9881,-3.0097,-3.0393,-3.0293,-3.0225,-3.0251,-3.0393,-3.0418,-3.0559,-3.0788,-3.0666,-3.0518,-3.0559,-3.0518,-3.0601,-3.0559,-3.046,-3.0394,-3.0344,-3.0535,-3.075,-3.075,-3.0767,-3.0608,-3.0401,-3.0175,-3.0159,-3.026,-3.0218,-3.0107,-3.0044,-3.051,-3.0587,-4.63,-4.63,-4.63,-4.629,-4.6301,-4.6303,-4.6289,-4.6293,-4.629,-4.629,-4.629,-4.6231,-4.6212,-4.6212,-4.6173,-4.6156,-4.615,-4.6102,-4.5833,-4.5444,-4.5434,-4.4939,-4.4157,-4.4041,-4.3593,-4.2763,-4.2237,-4.1788,-4.1396,-4.0899,-4.0687,-4.0752,-4.072,-4.0288,-3.9553,-3.9487,-3.8895,-3.7715,-3.7677,-3.7259,-3.6416,-3.5859,-3.5577,-3.5565,-3.5496,-3.5411,-3.5288,-3.5162,-3.5049,-3.4926,-3.4754,-3.4548,-3.4316,-3.4293,-3.413,-3.3858,-3.3689,-3.3302,-3.2681,-3.2634,-3.2368,-3.1802,-3.1728,-3.1691,-3.1521,-3.1351,-3.0869,-3.0163,-2.9815,-2.9632,-2.9501,-2.9525,-2.9658,-2.984,-2.9732,-2.9737,-3.0074,-3.0251,-3.0377,-3.0293,-3.0418,-3.0518,-3.0309,-3.0393,-3.0601,-3.0747,-3.0666,-3.0625,-3.0788,-3.0845,-3.1044,-3.1372,-3.1372,-3.1295,-3.1257,-3.1257,-3.1274,-3.1218,-3.1004,-3.0818,-3.1016,-3.0831,-3.0974,-3.1314,-3.1314,-3.1257,-3.1252,-3.1083,-3.0971,-3.0931,-3.0958,-3.0962,-3.1007,-3.1599,-3.174,-4.63,-4.63,-4.63,-4.6287,-4.6297,-4.6307,-4.6289,-4.6289,-4.6289,-4.6289,-4.6289,-4.6289,-4.6289,-4.6289,-4.625,-4.623,-4.623,-4.6183,-4.6114,-4.6064,-4.6063,-4.5712,-4.5105,-4.5028,-4.4576,-4.3791,-4.3115,-4.2524,-4.2048,-4.1403,-4.0978,-4.0829,-4.0746,-4.0456,-3.9939,-3.9894,-3.9475,-3.8709,-3.8593,-3.8199,-3.7367,-3.6729,-3.6187,-3.5762,-3.5704,-3.5631,-3.5477,-3.5372,-3.5273,-3.5119,-3.4997,-3.4851,-3.4691,-3.4626,-3.4495,-3.424,-3.4023,-3.3689,-3.3105,-3.2983,-3.2716,-3.2214,-3.2056,-3.1948,-3.1783,-3.1671,-3.1617,-3.1528,-3.1372,-3.1145,-3.1038,-3.1061,-3.1083,-3.1027,-3.0851,-3.0754,-3.073,-3.0868,-3.0891,-3.0828,-3.0948,-3.0948,-3.0885,-3.0804,-3.0885,-3.1201,-3.1223,-3.1167,-3.1452,-3.1565,-3.1657,-3.1948,-3.1965,-3.1819,-3.18,-3.1726,-3.18,-3.1763,-3.1466,-3.1428,-3.1746,-3.1353,-3.1167,-3.1589,-3.1739,-3.1756,-3.161,-3.1579,-3.1617,-3.1634,-3.1593,-3.1662,-3.1938,-3.2563,-3.3067,-4.63,-4.63,-4.63,-4.6303,-4.6303,-4.6297,-4.6306,-4.6289,-4.6289,-4.6289,-4.6289,-4.6289,-4.6289,-4.6289,-4.6289,-4.6289,-4.6289,-4.6289,-4.625,-4.6191,-4.6191,-4.6128,-4.6033,-4.6025,-4.557,-4.4776,-4.4511,-4.3666,-4.2228,-4.2002,-4.1564,-4.0868,-4.0868,-4.0868,-4.0757,-4.0808,-4.0493,-3.97,-3.9623,-3.9204,-3.845,-3.821,-3.7378,-3.6013,-3.5723,-3.5742,-3.5701,-3.5509,-3.5397,-3.5379,-3.5152,-3.4999,-3.487,-3.4693,-3.4495,-3.4221,-3.4173,-3.403,-3.3716,-3.3437,-3.3124,-3.2781,-3.2506,-3.2388,-3.2371,-3.2091,-3.193,-3.1894,-3.1877,-3.1694,-3.1278,-3.124,-3.1162,-3.1004,-3.0885,-3.0851,-3.0778,-3.1227,-3.1338,-3.1423,-3.1754,-3.199,-3.1849,-3.1449,-3.1699,-3.205,-3.2336,-3.2578,-3.2666,-3.2629,-3.2698,-3.2648,-3.2493,-3.2089,-3.1908,-3.1837,-3.1837,-3.1819,-3.1819,-3.1709,-3.1763,-3.1763,-3.18,-3.1763,-3.1795,-3.1795,-3.178,-3.18,-3.1763,-3.1763,-3.1763,-3.1922,-3.2616,-3.3202,-3.3786,-4.6236,-4.63,-4.63,-4.63,-4.63,-4.6287,-4.6293,-4.63,-4.6288,-4.6289,-4.6289,-4.6289,-4.6289,-4.6289,-4.6289,-4.6289,-4.6289,-4.6289,-4.6289,-4.6269,-4.6269,-4.6248,-4.6239,-4.6195,-4.6036,-4.5676,-4.5084,-4.4189,-4.3046,-4.2421,-4.1996,-4.1667,-4.119,-4.097,-4.0965,-4.0991,-4.0827,-4.0574,-4.0516,-4.0107,-3.9313,-3.9265,-3.8682,-3.7483,-3.6787,-3.6458,-3.6477,-3.591,-3.5565,-3.5528,-3.5424,-3.5307,-3.51,-3.4773,-3.4473,-3.4245,-3.4216,-3.4074,-3.3842,-3.3707,-3.3465,-3.3154,-3.283,-3.2752,-3.288,-3.2684,-3.2486,-3.2468,-3.2486,-3.2283,-3.2055,-3.1929,-3.1912,-3.1839,-3.1839,-3.1785,-3.1821,-3.1948,-3.2193,-3.2644,-3.328,-3.3811,-3.3706,-3.3882,-3.4021,-3.4175,-3.436,-3.439,-3.4425,-3.4443,-3.4354,-3.4408,-3.4345,-3.416,-3.3774,-3.2541,-3.1912,-3.202,-3.2055,-3.191,-3.1854,-3.1893,-3.1875,-3.1929,-3.1893,-3.1998,-3.2069,-3.2243,-3.2171,-3.2098,-3.2081,-3.2648,-3.3247,-3.3774,-3.4428,-4.6181,-4.628,-4.63,-4.63,-4.63,-4.63,-4.6303,-4.629,-4.6303,-4.6288,-4.6289,-4.6289,-4.6289,-4.6289,-4.6289,-4.6289,-4.6289,-4.6289,-4.6289,-4.6289,-4.6289,-4.6289,-4.6289,-4.625,-4.6245,-4.6128,-4.5592,-4.4793,-4.3992,-4.3335,-4.2753,-4.2166,-4.1651,-4.1291,-4.1088,-4.1064,-4.1066,-4.1066,-4.1046,-4.0734,-4.0228,-4.0189,-3.9917,-3.9228,-3.8307,-3.7637,-3.7359,-3.6535,-3.6079,-3.5999,-3.5755,-3.5477,-3.5216,-3.4944,-3.4691,-3.4476,-3.4363,-3.4245,-3.4074,-3.3895,-3.3707,-3.3465,-3.3154,-3.3063,-3.3243,-3.3093,-3.297,-3.2952,-3.2844,-3.2702,-3.2573,-3.2523,-3.2507,-3.2457,-3.2473,-3.2596,-3.2756,-3.2861,-3.3265,-3.3864,-3.4534,-3.4991,-3.5114,-3.5331,-3.5393,-3.5512,-3.5625,-3.5737,-3.5737,-3.5737,-3.5719,-3.5688,-3.5521,-3.5371,-3.507,-3.4155,-3.3038,-3.295,-3.2913,-3.2564,-3.2247,-3.2213,-3.2195,-3.2179,-3.2196,-3.2283,-3.2476,-3.2685,-3.2735,-3.2698,-3.3045,-3.3601,-3.3999,-3.4266,-3.4888,-4.6156,-4.6277,-4.63,-4.628,-4.63,-4.63,-4.629,-4.6297,-4.6293,-4.6301,-4.6289,-4.6289,-4.6289,-4.6289,-4.6289,-4.6289,-4.6289,-4.6289,-4.6289,-4.6289,-4.6289,-4.6289,-4.6289,-4.6289,-4.6289,-4.6289,-4.6211,-4.5723,-4.4922,-4.4636,-4.3831,-4.258,-4.2397,-4.1944,-4.116,-4.1265,-4.125,-4.1191,-4.1172,-4.1113,-4.1094,-4.1011,-4.0927,-4.0753,-4.002,-3.9233,-3.8415,-3.7444,-3.693,-3.6829,-3.6192,-3.5554,-3.5377,-3.5193,-3.5089,-3.4851,-3.471,-3.4604,-3.4517,-3.4124,-3.3868,-3.3762,-3.3494,-3.3332,-3.339,-3.3332,-3.3302,-3.3273,-3.3045,-3.2827,-3.2844,-3.2902,-3.2826,-3.2542,-3.2796,-3.3128,-3.3563,-3.3878,-3.4296,-3.4991,-3.5531,-3.557,-3.5602,-3.5928,-3.6095,-3.6139,-3.6291,-3.6523,-3.6578,-3.6578,-3.635,-3.6311,-3.6479,-3.6541,-3.6219,-3.5824,-3.4799,-3.4039,-3.3964,-3.377,-3.3332,-3.319,-3.3227,-3.3209,-3.3244,-3.3333,-3.3669,-3.3899,-3.4164,-3.4217,-3.448,-3.4508,-3.477,-3.5042,-3.5328,-4.6049,-4.615,-4.617,-4.6216,-4.63,-4.63,-4.629,-4.6301,-4.6305,-4.6288,-4.6289,-4.6289,-4.6289,-4.6289,-4.6289,-4.6289,-4.6289,-4.6289,-4.6289,-4.6289,-4.6289,-4.6289,-4.6289,-4.6289,-4.6289,-4.6289,-4.6289,-4.6152,-4.5801,-4.5234,-4.4586,-4.4118,-4.3516,-4.2834,-4.2031,-4.2012,-4.1797,-4.125,-4.1191,-4.1191,-4.1172,-4.1172,-4.1159,-4.111,-4.0812,-4.0493,-4.0176,-3.874,-3.7947,-3.787,-3.7618,-3.7058,-3.6223,-3.5522,-3.5122,-3.4926,-3.4831,-3.473,-3.4623,-3.445,-3.4245,-3.4055,-3.3797,-3.3788,-3.3876,-3.3743,-3.3652,-3.3634,-3.355,-3.3419,-3.3286,-3.3659,-3.3822,-3.3603,-3.3795,-3.429,-3.4954,-3.5558,-3.6038,-3.636,-3.7089,-3.7557,-3.7668,-3.7723,-3.7798,-3.7816,-3.7997,-3.8072,-3.8109,-3.797,-3.8211,-3.8183,-3.805,-3.7684,-3.7441,-3.7264,-3.6723,-3.5782,-3.5375,-3.4943,-3.4519,-3.4257,-3.4297,-3.4368,-3.4354,-3.4551,-3.4873,-3.518,-3.5468,-3.5346,-3.5207,-3.5313,-3.5542,-3.5806,-3.6093,-4.5949,-4.6098,-4.6118,-4.6176,-4.63,-4.63,-4.6306,-4.6297,-4.6288,-4.6289,-4.6289,-4.6289,-4.6289,-4.6289,-4.6289,-4.6289,-4.6289,-4.6289,-4.6289,-4.6289,-4.6289,-4.6289,-4.6289,-4.6289,-4.6289,-4.6289,-4.6289,-4.6289,-4.6269,-4.5762,-4.5312,-4.4941,-4.4433,-4.373,-4.2969,-4.2871,-4.248,-4.1777,-4.1641,-4.1523,-4.1269,-4.1191,-4.1206,-4.1179,-4.1152,-4.1136,-4.1053,-4.0014,-3.9238,-3.886,-3.8546,-3.7938,-3.7184,-3.6637,-3.6128,-3.5689,-3.5491,-3.5306,-3.4887,-3.467,-3.4539,-3.434,-3.4099,-3.4023,-3.4105,-3.4023,-3.3947,-3.3947,-3.3842,-3.3835,-3.3978,-3.4331,-3.4788,-3.5336,-3.5205,-3.5545,-3.6292,-3.7075,-3.7476,-3.7685,-3.823,-3.8693,-3.8836,-3.8942,-3.9101,-3.9101,-3.9101,-3.9101,-3.9101,-3.9045,-3.9082,-3.9082,-3.8841,-3.8635,-3.8619,-3.8593,-3.8559,-3.7746,-3.69,-3.6237,-3.563,-3.549,-3.549,-3.5587,-3.5628,-3.5968,-3.6313,-3.6649,-3.6924,-3.6468,-3.6121,-3.6452,-3.6734,-3.6569,-3.672,-4.5914,-4.6084,-4.6084,-4.6144,-4.6273,-4.6273,-4.6277,-4.6287,-4.6306,-4.6289,-4.6289,-4.6289,-4.6289,-4.6289,-4.6289,-4.6289,-4.6289,-4.6289,-4.6289,-4.6289,-4.6289,-4.6289,-4.6289,-4.6289,-4.6289,-4.6289,-4.6289,-4.6289,-4.6289,-4.6191,-4.5898,-4.5234,-4.5117,-4.4648,-4.3945,-4.3789,-4.3359,-4.2598,-4.248,-4.2109,-4.1406,-4.1328,-4.125,-4.123,-4.1191,-4.1197,-4.1139,-4.0986,-4.061,-3.9812,-3.9014,-3.8526,-3.8365,-3.8286,-3.7607,-3.6867,-3.6619,-3.616,-3.5505,-3.5116,-3.4816,-3.4749,-3.4437,-3.4221,-3.4197,-3.4321,-3.4389,-3.4389,-3.4286,-3.4412,-3.4936,-3.5285,-3.5964,-3.7077,-3.6846,-3.6864,-3.7404,-3.815,-3.8407,-3.8559,-3.8894,-3.9101,-3.9027,-3.9101,-3.9101,-3.9101,-3.9101,-3.9101,-3.9101,-3.9101,-3.9101,-3.9101,-3.9101,-3.9055,-3.8894,-3.8876,-3.8859,-3.8598,-3.7945,-3.7434,-3.6916,-3.6776,-3.6728,-3.6856,-3.6845,-3.7253,-3.7546,-3.7783,-3.7927,-3.7689,-3.7615,-3.7841,-3.7702,-3.7417,-3.7146,-4.5723,-4.5886,-4.5879,-4.5988,-4.6157,-4.6144,-4.6211,-4.63,-4.63,-4.6288,-4.6289,-4.6289,-4.6289,-4.6289,-4.6289,-4.6289,-4.6289,-4.6289,-4.6289,-4.6289,-4.6289,-4.6289,-4.6289,-4.6289,-4.6289,-4.6289,-4.6289,-4.6289,-4.6289,-4.6289,-4.6172,-4.5976,-4.5879,-4.5508,-4.4785,-4.4668,-4.4199,-4.3476,-4.3359,-4.293,-4.2226,-4.2051,-4.1777,-4.123,-4.1191,-4.1191,-4.1191,-4.1205,-4.1107,-4.0732,-3.9861,-3.9334,-3.9229,-3.8722,-3.8247,-3.7891,-3.7695,-3.7471,-3.6977,-3.6306,-3.5799,-3.5456,-3.4993,-3.4409,-3.424,-3.4816,-3.507,-3.5256,-3.5551,-3.597,-3.6266,-3.6747,-3.7581,-3.8377,-3.8275,-3.8257,-3.8534,-3.8822,-3.897,-3.897,-3.9027,-3.9082,-3.9101,-3.9101,-3.9101,-3.9101,-3.9101,-3.9101,-3.9101,-3.9101,-3.9101,-3.9101,-3.9101,-3.9101,-3.9055,-3.9055,-3.9036,-3.9017,-3.8766,-3.8617,-3.8243,-3.8118,-3.8113,-3.8193,-3.7839,-3.8053,-3.8267,-3.8444,-3.8528,-3.8483,-3.8433,-3.8285,-3.8101,-3.7875,-3.7631,-4.5665,-4.58,-4.58,-4.5871,-4.6005,-4.6013,-4.6052,-4.6128,-4.6173,-4.6207,-4.6229,-4.6289,-4.6289,-4.6289,-4.6289,-4.6289,-4.6289,-4.6289,-4.6289,-4.6289,-4.6289,-4.6289,-4.6289,-4.6289,-4.6289,-4.6289,-4.6289,-4.6289,-4.6289,-4.6289,-4.6289,-4.6269,-4.6289,-4.6016,-4.5605,-4.5488,-4.5086,-4.4375,-4.4171,-4.3736,-4.2972,-4.2531,-4.2168,-4.1641,-4.1406,-4.1191,-4.1191,-4.1191,-4.1191,-4.1035,-4.0631,-4.0297,-4.0196,-3.9758,-3.9237,-3.882,-3.8676,-3.8411,-3.784,-3.7245,-3.6878,-3.6576,-3.606,-3.5765,-3.5694,-3.6043,-3.6287,-3.6366,-3.6681,-3.6982,-3.7417,-3.7992,-3.8571,-3.8952,-3.9101,-3.9082,-3.9082,-3.9082,-3.9101,-3.9101,-3.9101,-3.9101,-3.9101,-3.9101,-3.9101,-3.9101,-3.9101,-3.9101,-3.9101,-3.9101,-3.9101,-3.9101,-3.9101,-3.9129,-3.9129,-3.9129,-3.9192,-3.9146,-3.9173,-3.9137,-3.9017,-3.8921,-3.8755,-3.8628,-3.867,-3.8707,-3.8707,-3.8707,-3.8658,-3.8627,-3.8707,-3.8627,-3.8401,-3.8252,-3.8068,-4.5687,-4.5786,-4.5786,-4.5829,-4.5897,-4.5908,-4.5901,-4.5944,-4.603,-4.6092,-4.6119,-4.6208,-4.6269,-4.6289,-4.6289,-4.6289,-4.6289,-4.6289,-4.6289,-4.6289,-4.6289,-4.6289,-4.6289,-4.6289,-4.6289,-4.6289,-4.6289,-4.6289,-4.6289,-4.6289,-4.6269,-4.6269,-4.6269,-4.6269,-4.6097,-4.6111,-4.5788,-4.5211,-4.5002,-4.4545,-4.3801,-4.3163,-4.2676,-4.209,-4.1484,-4.1211,-4.1191,-4.1191,-4.1191,-4.1191,-4.1191,-4.1074,-4.1035,-4.0996,-4.057,-3.9858,-3.9561,-3.9191,-3.8488,-3.8188,-3.7861,-3.7715,-3.7509,-3.7413,-3.7201,-3.7294,-3.7425,-3.7425,-3.7354,-3.7826,-3.8271,-3.8835,-3.9007,-3.9137,-3.9137,-3.9082,-3.911,-3.911,-3.9101,-3.9101,-3.9101,-3.9101,-3.9101,-3.9101,-3.9101,-3.9101,-3.9101,-3.9101,-3.9101,-3.9101,-3.9101,-3.9101,-3.9101,-3.9129,-3.9156,-3.9183,-3.9245,-3.9279,-3.9313,-3.9287,-3.9173,-3.9027,-3.8833,-3.875,-3.875,-3.8719,-3.8707,-3.8707,-3.8707,-3.8707,-3.8707,-3.8707,-3.8658,-3.8546,-3.8401,-4.562,-4.5635,-4.5654,-4.5712,-4.5822,-4.5815,-4.5841,-4.591,-4.5917,-4.5966,-4.6033,-4.612,-4.6204,-4.6269,-4.6348,-4.6289,-4.6348,-4.6328,-4.6289,-4.6289,-4.6289,-4.6289,-4.6289,-4.6289,-4.6289,-4.6289,-4.6289,-4.6269,-4.623,-4.623,-4.6195,-4.6163,-4.6163,-4.6143,-4.6151,-4.6127,-4.6085,-4.5872,-4.5782,-4.5318,-4.4699,-4.4257,-4.3486,-4.2354,-4.155,-4.1172,-4.1152,-4.1172,-4.1191,-4.1191,-4.1191,-4.1191,-4.1172,-4.1113,-4.0918,-4.0715,-4.0469,-4.0284,-4.0015,-3.9358,-3.8895,-3.8682,-3.819,-3.7565,-3.747,-3.8077,-3.8324,-3.8435,-3.8828,-3.9059,-3.9156,-3.9122,-3.9227,-3.9324,-3.9245,-3.9192,-3.9324,-3.9219,-3.911,-3.9101,-3.9129,-3.9101,-3.911,-3.9137,-3.9137,-3.911,-3.911,-3.9082,-3.9101,-3.9101,-3.9137,-3.9137,-3.9192,-3.9245,-3.9364,-3.9389,-3.9439,-3.9445,-3.9494,-3.9494,-3.9371,-3.9216,-3.9045,-3.8884,-3.8792,-3.8732,-3.8719,-3.8707,-3.8707,-3.8707,-3.8707,-3.8707,-3.8707,-3.8707,-3.8707,-4.5586,-4.5586,-4.5586,-4.5635,-4.57,-4.5715,-4.5731,-4.5765,-4.5838,-4.5874,-4.6016,-4.6396,-4.6683,-4.6756,-4.6836,-4.6875,-4.6758,-4.6431,-4.625,-4.625,-4.623,-4.6211,-4.6206,-4.6222,-4.621,-4.6248,-4.625,-4.6201,-4.6163,-4.6147,-4.6134,-4.6112,-4.6104,-4.6118,-4.6113,-4.6075,-4.6077,-4.6054,-4.5999,-4.5728,-4.5407,-4.4916,-4.3944,-4.252,-4.1792,-4.1476,-4.1113,-4.1113,-4.1133,-4.1152,-4.1191,-4.1191,-4.1191,-4.1172,-4.1133,-4.1035,-4.0933,-4.0779,-4.0526,-4.0273,-3.988,-3.9684,-3.9243,-3.9059,-3.8913,-3.9279,-3.9431,-3.9547,-3.9738,-3.9861,-3.9679,-3.9433,-3.9433,-3.9537,-3.9433,-3.9389,-3.9537,-3.9331,-3.9101,-3.911,-3.9219,-3.9272,-3.9298,-3.9305,-3.9331,-3.9357,-3.9324,-3.9324,-3.9101,-3.911,-3.9219,-3.9272,-3.9298,-3.9383,-3.9566,-3.9637,-3.9641,-3.9664,-3.9687,-3.9687,-3.9641,-3.9457,-3.9264,-3.9117,-3.897,-3.8822,-3.8762,-3.8719,-3.8719,-3.8707,-3.8707,-3.8707,-3.8707,-3.8707,-3.8707,-4.5531,-4.5531,-4.5586,-4.5586,-4.5586,-4.5603,-4.5603,-4.5622,-4.5719,-4.5777,-4.5926,-4.6718,-4.692,-4.7289,-4.7159,-4.7285,-4.7087,-4.6602,-4.618,-4.6162,-4.6144,-4.6138,-4.6127,-4.613,-4.6124,-4.6176,-4.6177,-4.6152,-4.6092,-4.6066,-4.6048,-4.6065,-4.6065,-4.6021,-4.604,-4.6007,-4.5982,-4.5988,-4.5886,-4.5841,-4.5794,-4.5239,-4.4169,-4.3085,-4.221,-4.184,-4.1369,-4.1178,-4.1094,-4.1113,-4.1152,-4.1191,-4.1191,-4.1191,-4.1172,-4.1055,-4.0996,-4.0925,-4.08,-4.0673,-4.0543,-4.0523,-4.0446,-4.0462,-4.0408,-4.03,-4.0323,-4.0312,-4.0304,-4.0081,-3.9861,-3.966,-3.966,-3.9772,-3.9679,-3.966,-3.9709,-3.947,-3.9305,-3.9261,-3.9357,-3.9408,-3.9513,-3.9543,-3.9585,-3.9585,-3.9556,-3.9483,-3.9279,-3.9227,-3.9383,-3.9464,-3.9513,-3.9632,-3.9816,-3.9983,-3.9964,-3.9944,-3.9944,-3.9944,-3.9943,-3.9819,-3.9626,-3.9377,-3.9181,-3.9036,-3.8902,-3.8862,-3.8833,-3.875,-3.8707,-3.8707,-3.8707,-3.8707,-3.8707,-4.5263,-4.5283,-4.5513,-4.5586,-4.5586,-4.5586,-4.5586,-4.5586,-4.5624,-4.5673,-4.5754,-4.5989,-4.6622,-4.6962,-4.6571,-4.6384,-4.6443,-4.6201,-4.6111,-4.6112,-4.6087,-4.6092,-4.6072,-4.6065,-4.6061,-4.604,-4.6065,-4.606,-4.6011,-4.6009,-4.5969,-4.5877,-4.5877,-4.5877,-4.5877,-4.5838,-4.5858,-4.5877,-4.5819,-4.5819,-4.5761,-4.5587,-4.4987,-4.384,-4.2828,-4.209,-4.1734,-4.1295,-4.1038,-4.1074,-4.1113,-4.1152,-4.1191,-4.1191,-4.1191,-4.1152,-4.1055,-4.0996,-4.0918,-4.078,-4.0712,-4.066,-4.0617,-4.0593,-4.0579,-4.0583,-4.0588,-4.0508,-4.0375,-4.0177,-4.0139,-3.992,-3.9901,-4.0002,-3.9943,-3.984,-4.0002,-3.9901,-3.9705,-3.9687,-3.9637,-3.9585,-3.9705,-3.9794,-3.9794,-3.9794,-3.9772,-3.9728,-3.9571,-3.9571,-3.9683,-3.9709,-3.9731,-3.9901,-4.0081,-4.0267,-4.0336,-4.0302,-4.0283,-4.0283,-4.0267,-4.0195,-4.0022,-3.9775,-3.9505,-3.9333,-3.9197,-3.9064,-3.8913,-3.8815,-3.8762,-3.8707,-3.8707,-3.8707,-3.8707,-4.5074,-4.5222,-4.5342,-4.5476,-4.5586,-4.5586,-4.5586,-4.5586,-4.5586,-4.562,-4.5789,-4.6169,-4.6661,-4.6965,-4.6862,-4.648,-4.6152,-4.6074,-4.6065,-4.6046,-4.5988,-4.5935,-4.5935,-4.5955,-4.5935,-4.5896,-4.5916,-4.5935,-4.5896,-4.5891,-4.5877,-4.5838,-4.58,-4.58,-4.58,-4.5819,-4.58,-4.58,-4.58,-4.58,-4.58,-4.58,-4.52,-4.4001,-4.3183,-4.2331,-4.1441,-4.119,-4.0953,-4.0986,-4.1016,-4.108,-4.1133,-4.1172,-4.1172,-4.1172,-4.1133,-4.1074,-4.1016,-4.0886,-4.0835,-4.0751,-4.0698,-4.064,-4.064,-4.0646,-4.0598,-4.0554,-4.0492,-4.0356,-4.0356,-4.0139,-4.0139,-4.025,-4.0139,-4.0139,-4.025,-4.0232,-4.0176,-4.012,-4.0022,-3.9962,-3.9982,-4.0042,-4.0022,-4.0022,-4.0003,-3.9924,-3.9861,-3.9882,-3.9924,-4.0003,-4.0023,-4.012,-4.0267,-4.0372,-4.0489,-4.0489,-4.0489,-4.0489,-4.0473,-4.0356,-4.0321,-4.0194,-3.9945,-3.963,-3.9438,-3.9275,-3.9109,-3.8894,-3.8803,-3.8719,-3.8689,-3.8707,-3.8707,-4.4868,-4.5052,-4.514,-4.5322,-4.5532,-4.5586,-4.5586,-4.5586,-4.5586,-4.5622,-4.5717,-4.6323,-4.6793,-4.7036,-4.7047,-4.6767,-4.6104,-4.5969,-4.5949,-4.5949,-4.5858,-4.58,-4.58,-4.58,-4.5819,-4.5838,-4.5819,-4.58,-4.5819,-4.5819,-4.5819,-4.58,-4.58,-4.58,-4.58,-4.58,-4.58,-4.58,-4.58,-4.58,-4.58,-4.5722,-4.5123,-4.3692,-4.3401,-4.257,-4.1429,-4.0984,-4.0906,-4.0923,-4.0945,-4.1019,-4.1072,-4.1094,-4.1133,-4.1172,-4.1191,-4.1152,-4.1074,-4.1016,-4.0959,-4.0895,-4.0808,-4.0764,-4.0739,-4.0706,-4.064,-4.0603,-4.0558,-4.0489,-4.0457,-4.0375,-4.0339,-4.0389,-4.0356,-4.0304,-4.0425,-4.0422,-4.0406,-4.0372,-4.0321,-4.0286,-4.025,-4.0177,-4.0158,-4.025,-4.023,-4.0194,-4.012,-4.0082,-4.0139,-4.025,-4.0321,-4.0389,-4.0457,-4.0422,-4.0489,-4.0489,-4.0489,-4.0489,-4.0489,-4.0473,-4.0422,-4.0389,-4.023,-3.9945,-3.9735,-3.9505,-3.932,-3.91,-3.8873,-3.8762,-3.8732,-3.8719,-3.8707,-4.4465,-4.4527,-4.4988,-4.5222,-4.5263,-4.5495,-4.5586,-4.5586,-4.5586,-4.564,-4.5676,-4.5838,-4.6349,-4.6858,-4.7023,-4.6573,-4.6051,-4.5858,-4.5838,-4.5838,-4.5819,-4.58,-4.58,-4.58,-4.58,-4.58,-4.58,-4.58,-4.58,-4.58,-4.58,-4.58,-4.58,-4.58,-4.58,-4.58,-4.58,-4.58,-4.58,-4.578,-4.5742,-4.5722,-4.5162,-4.4311,-4.3537,-4.2705,-4.1641,-4.11,-4.0868,-4.09,-4.0905,-4.0939,-4.1014,-4.1078,-4.1094,-4.1133,-4.1152,-4.1191,-4.1152,-4.1113,-4.1069,-4.1026,-4.0979,-4.0956,-4.0904,-4.0797,-4.072,-4.0588,-4.0607,-4.0558,-4.0504,-4.0473,-4.0473,-4.0473,-4.0457,-4.0441,-4.0489,-4.0489,-4.0489,-4.0489,-4.0408,-4.0425,-4.0422,-4.0339,-4.025,-4.0372,-4.0457,-4.0406,-4.0372,-4.0302,-4.0285,-4.0372,-4.0425,-4.0473,-4.0489,-4.0489,-4.0489,-4.0489,-4.0489,-4.0489,-4.0489,-4.0489,-4.0489,-4.0422,-4.0319,-4.025,-4.0043,-3.9819,-3.9543,-3.9313,-3.9045,-3.8884,-3.8773,-3.8732,-3.8707,-4.4279,-4.4411,-4.465,-4.4806,-4.5007,-4.5263,-4.5362,-4.5381,-4.5531,-4.5603,-4.5637,-4.5703,-4.5978,-4.637,-4.6361,-4.6148,-4.5838,-4.58,-4.58,-4.58,-4.58,-4.58,-4.58,-4.58,-4.58,-4.5786,-4.5805,-4.581,-4.5791,-4.5786,-4.58,-4.58,-4.58,-4.58,-4.5786,-4.58,-4.58,-4.58,-4.5761,-4.5548,-4.5253,-4.5026,-4.4485,-4.3247,-4.2802,-4.2164,-4.1467,-4.1061,-4.081,-4.0848,-4.0829,-4.0868,-4.0924,-4.0965,-4.0996,-4.1035,-4.1094,-4.1152,-4.1191,-4.1172,-4.1152,-4.1152,-4.1094,-4.1022,-4.098,-4.0884,-4.0771,-4.0646,-4.0622,-4.0573,-4.0539,-4.0489,-4.0489,-4.0504,-4.0534,-4.0519,-4.0504,-4.0489,-4.0489,-4.0489,-4.0489,-4.0489,-4.0489,-4.0441,-4.0372,-4.0425,-4.0473,-4.0473,-4.0457,-4.0422,-4.0422,-4.0473,-4.0473,-4.0489,-4.0489,-4.0489,-4.0489,-4.0489,-4.0489,-4.0489,-4.0489,-4.0489,-4.0489,-4.0489,-4.0422,-4.0372,-4.0285,-4.0081,-3.9794,-3.95,-3.9223,-3.9045,-3.8902,-3.8732,-3.8689,-4.4121,-4.4289,-4.4374,-4.4519,-4.4726,-4.4966,-4.5096,-4.5118,-4.5381,-4.5495,-4.5549,-4.5616,-4.5746,-4.5805,-4.5858,-4.5858,-4.5819,-4.58,-4.58,-4.58,-4.58,-4.58,-4.58,-4.58,-4.5786,-4.5757,-4.5727,-4.568,-4.5645,-4.5634,-4.5607,-4.5688,-4.5742,-4.5723,-4.5708,-4.5688,-4.5645,-4.5302,-4.5283,-4.4911,-4.4394,-4.4244,-4.3374,-4.2518,-4.1912,-4.1622,-4.0945,-4.079,-4.079,-4.079,-4.079,-4.0829,-4.0873,-4.0889,-4.0946,-4.0976,-4.1037,-4.1094,-4.1133,-4.1152,-4.1191,-4.1191,-4.1152,-4.1086,-4.1012,-4.0918,-4.0826,-4.075,-4.0746,-4.0668,-4.0602,-4.0582,-4.061,-4.0596,-4.0588,-4.0559,-4.053,-4.0534,-4.0504,-4.0489,-4.0489,-4.0489,-4.0489,-4.0489,-4.0489,-4.0489,-4.0489,-4.0489,-4.0489,-4.0489,-4.0489,-4.0489,-4.0489,-4.0489,-4.0489,-4.0489,-4.0489,-4.0489,-4.0489,-4.0489,-4.0489,-4.0489,-4.0489,-4.0489,-4.0489,-4.0473,-4.0389,-4.0232,-4.0042,-3.9794,-3.9524,-3.9208,-3.8998,-3.8803,-3.8689,-4.4005,-4.4067,-4.4289,-4.4383,-4.4457,-4.472,-4.4825,-4.4849,-4.5137,-4.5282,-4.5362,-4.5545,-4.5731,-4.5795,-4.5805,-4.58,-4.58,-4.58,-4.58,-4.58,-4.58,-4.5786,-4.5737,-4.5723,-4.5673,-4.5613,-4.5563,-4.5437,-4.5323,-4.5299,-4.5318,-4.536,-4.5495,-4.551,-4.5468,-4.5355,-4.5093,-4.4681,-4.4424,-4.3997,-4.3481,-4.3202,-4.2744,-4.2157,-4.1893,-4.1641,-4.0868,-4.079,-4.079,-4.079,-4.079,-4.079,-4.0829,-4.0848,-4.0897,-4.0923,-4.0974,-4.1019,-4.1033,-4.1113,-4.1191,-4.1191,-4.1191,-4.1152,-4.1094,-4.1094,-4.1016,-4.0885,-4.084,-4.0818,-4.078,-4.0762,-4.0729,-4.0726,-4.068,-4.0649,-4.0596,-4.0545,-4.0534,-4.0504,-4.0489,-4.0489,-4.0489,-4.0489,-4.0489,-4.0489,-4.0489,-4.0489,-4.0489,-4.0489,-4.0489,-4.0489,-4.0489,-4.0489,-4.0489,-4.0489,-4.0489,-4.0489,-4.0489,-4.0489,-4.0489,-4.0489,-4.0489,-4.0489,-4.0489,-4.0489,-4.0489,-4.0339,-4.0195,-4.0062,-3.9816,-3.947,-3.9119,-3.8873,-3.8762,-4.4005,-4.4005,-4.4121,-4.4151,-4.4162,-4.4457,-4.4546,-4.4624,-4.4988,-4.5322,-4.5495,-4.5651,-4.575,-4.5795,-4.5805,-4.58,-4.58,-4.58,-4.5805,-4.5776,-4.5727,-4.561,-4.5541,-4.5435,-4.5323,-4.5246,-4.5245,-4.5264,-4.5163,-4.5051,-4.4938,-4.4981,-4.51,-4.5137,-4.5074,-4.4786,-4.4384,-4.4094,-4.3576,-4.3017,-4.2384,-4.22,-4.1832,-4.1147,-4.107,-4.1029,-4.0797,-4.081,-4.079,-4.079,-4.079,-4.079,-4.079,-4.0829,-4.0848,-4.0848,-4.0906,-4.0939,-4.0945,-4.1055,-4.1152,-4.1191,-4.1191,-4.1191,-4.1152,-4.1133,-4.1055,-4.0972,-4.0935,-4.089,-4.081,-4.0791,-4.0791,-4.0801,-4.0791,-4.0749,-4.0711,-4.0649,-4.0574,-4.0545,-4.0519,-4.0489,-4.0489,-4.0489,-4.0489,-4.0489,-4.0489,-4.0489,-4.0489,-4.0489,-4.0489,-4.0489,-4.0489,-4.0489,-4.0489,-4.0489,-4.0489,-4.0489,-4.0489,-4.0489,-4.0489,-4.0489,-4.0489,-4.0489,-4.0489,-4.0489,-4.0473,-4.0422,-4.0339,-4.0195,-3.9982,-3.9705,-3.9345,-3.897,-3.8803,-4.4005,-4.4005,-4.4005,-4.4005,-4.4036,-4.4192,-4.426,-4.4374,-4.4751,-4.5201,-4.555,-4.5582,-4.5665,-4.5731,-4.5742,-4.5723,-4.5708,-4.5677,-4.568,-4.5632,-4.5545,-4.5437,-4.5323,-4.5223,-4.5142,-4.4928,-4.49,-4.4962,-4.4795,-4.48,-4.4657,-4.4505,-4.4557,-4.4645,-4.4662,-4.4192,-4.3687,-4.3134,-4.2698,-4.2029,-4.1303,-4.1149,-4.1085,-4.0531,-4.0508,-4.0558,-4.0612,-4.064,-4.0681,-4.0733,-4.0765,-4.079,-4.079,-4.079,-4.079,-4.081,-4.0829,-4.0887,-4.0916,-4.1016,-4.1113,-4.1152,-4.1191,-4.1191,-4.1191,-4.1152,-4.1094,-4.103,-4.0996,-4.0941,-4.0887,-4.0909,-4.0915,-4.0942,-4.0898,-4.0876,-4.0811,-4.0759,-4.0674,-4.0602,-4.0574,-4.0564,-4.0504,-4.0504,-4.0504,-4.0504,-4.0489,-4.0489,-4.0489,-4.0489,-4.0489,-4.0489,-4.0489,-4.0489,-4.0489,-4.0489,-4.0489,-4.0489,-4.0489,-4.0489,-4.0489,-4.0489,-4.0489,-4.0489,-4.0489,-4.0489,-4.0489,-4.0457,-4.0408,-4.0341,-4.0062,-3.9728,-3.9389,-3.8989,-3.8822,-4.4005,-4.4005,-4.4005,-4.4005,-4.4005,-4.4005,-4.4036,-4.4109,-4.4374,-4.4776,-4.5182,-4.5265,-4.5417,-4.558,-4.5543,-4.5524,-4.5543,-4.5455,-4.5419,-4.54,-4.5323,-4.5283,-4.518,-4.5052,-4.4868,-4.4751,-4.4695,-4.4584,-4.4393,-4.444,-4.4288,-4.408,-4.4091,-4.4087,-4.4406,-4.3923,-4.2857,-4.156,-4.1374,-4.0895,-4.0578,-4.0368,-4.031,-4.0341,-4.0281,-4.0353,-4.0419,-4.0481,-4.053,-4.0545,-4.0668,-4.0746,-4.0746,-4.079,-4.079,-4.081,-4.081,-4.081,-4.0827,-4.1003,-4.1074,-4.1113,-4.1152,-4.1172,-4.1191,-4.1191,-4.1172,-4.1094,-4.1082,-4.1088,-4.1081,-4.1081,-4.1055,-4.1042,-4.1006,-4.0974,-4.0918,-4.0866,-4.078,-4.068,-4.0674,-4.0655,-4.0559,-4.0504,-4.0504,-4.0523,-4.0504,-4.0489,-4.0504,-4.0489,-4.0489,-4.0489,-4.0489,-4.0489,-4.0489,-4.0489,-4.0489,-4.0489,-4.0489,-4.0489,-4.0489,-4.0489,-4.0489,-4.0489,-4.0489,-4.0489,-4.0489,-4.0489,-4.0441,-4.0356,-3.9983,-3.9641,-3.9313,-3.9055,-3.8921,-4.4005,-4.4005,-4.4005,-4.4005,-4.4005,-4.4005,-4.4005,-4.4067,-4.4308,-4.4599,-4.4896,-4.5011,-4.5058,-4.5144,-4.5185,-4.5226,-4.5284,-4.5145,-4.5101,-4.518,-4.5052,-4.4843,-4.4745,-4.4662,-4.4503,-4.4336,-4.4327,-4.4402,-4.4344,-4.4279,-4.4261,-4.4125,-4.3509,-4.3338,-4.3081,-4.2457,-4.1249,-4.1019,-4.0594,-4.0113,-4.0034,-3.9998,-4.004,-4.0177,-4.0177,-4.0194,-4.0247,-4.0334,-4.0367,-4.0383,-4.053,-4.0607,-4.0654,-4.0668,-4.079,-4.079,-4.081,-4.079,-4.0803,-4.0915,-4.1017,-4.1074,-4.1113,-4.1152,-4.1172,-4.1191,-4.1172,-4.1133,-4.1113,-4.1101,-4.1111,-4.1108,-4.1085,-4.1085,-4.1066,-4.1042,-4.0994,-4.0974,-4.091,-4.082,-4.077,-4.0734,-4.0649,-4.0582,-4.0582,-4.0568,-4.0568,-4.053,-4.0519,-4.0504,-4.0489,-4.0489,-4.0489,-4.0489,-4.0489,-4.0489,-4.0489,-4.0489,-4.0489,-4.0489,-4.0489,-4.0489,-4.0489,-4.0489,-4.0489,-4.0489,-4.0489,-4.0489,-4.0489,-4.0353,-4.0101,-3.988,-3.9664,-3.9371,-3.9101,-4.4005,-4.4005,-4.4005,-4.4005,-4.4005,-4.4005,-4.4005,-4.4017,-4.4192,-4.443,-4.4624,-4.4726,-4.4825,-4.4872,-4.4877,-4.4881,-4.4988,-4.4849,-4.48,-4.4862,-4.4739,-4.4557,-4.443,-4.4325,-4.4248,-4.4116,-4.4097,-4.4177,-4.4177,-4.4192,-4.3968,-4.3517,-4.2869,-4.231,-4.1875,-4.1156,-4.0581,-4.0359,-3.9905,-3.9815,-3.9848,-3.987,-3.9935,-4.0,-4.0021,-4.0061,-4.0139,-4.0194,-4.025,-4.0266,-4.0334,-4.0415,-4.0481,-4.0574,-4.0687,-4.07,-4.0778,-4.079,-4.0803,-4.0834,-4.0935,-4.0996,-4.1046,-4.1107,-4.1152,-4.1152,-4.1152,-4.1133,-4.1113,-4.1105,-4.1116,-4.1114,-4.1111,-4.1111,-4.1104,-4.1066,-4.1057,-4.1042,-4.1,-4.0906,-4.0866,-4.0811,-4.0749,-4.0703,-4.0648,-4.0648,-4.0636,-4.059,-4.0559,-4.0534,-4.0519,-4.0519,-4.0504,-4.0489,-4.0489,-4.0489,-4.0489,-4.0489,-4.0489,-4.0489,-4.0489,-4.0489,-4.0489,-4.0489,-4.0489,-4.0489,-4.0489,-4.0489,-4.0489,-4.0457,-4.0358,-4.0177,-4.0023,-3.9687,-3.9313,-4.4005,-4.4005,-4.4005,-4.4005,-4.4005,-4.4005,-4.4005,-4.4005,-4.4005,-4.4151,-4.4402,-4.4438,-4.4572,-4.4795,-4.4701,-4.465,-4.4669,-4.4541,-4.4532,-4.4524,-4.4477,-4.4335,-4.4306,-4.4255,-4.4147,-4.4055,-4.4036,-4.4067,-4.3986,-4.4048,-4.3669,-4.2888,-4.2244,-4.1545,-4.0989,-4.0467,-4.0064,-3.972,-3.9658,-3.9623,-3.9675,-3.9804,-3.9848,-3.9895,-3.9916,-3.9935,-3.9979,-4.004,-4.01,-4.0139,-4.0212,-4.0283,-4.0334,-4.0434,-4.0462,-4.0559,-4.07,-4.0746,-4.081,-4.0829,-4.0842,-4.0908,-4.0949,-4.1018,-4.1074,-4.1113,-4.1113,-4.1113,-4.1113,-4.111,-4.1101,-4.1116,-4.1111,-4.1111,-4.1108,-4.1104,-4.1104,-4.1074,-4.1042,-4.1017,-4.0987,-4.0945,-4.0848,-4.0791,-4.0731,-4.0752,-4.0752,-4.074,-4.068,-4.0574,-4.0579,-4.053,-4.0534,-4.0504,-4.0489,-4.0504,-4.0489,-4.0489,-4.0489,-4.0489,-4.0489,-4.0489,-4.0489,-4.0489,-4.0489,-4.0489,-4.0489,-4.0489,-4.0489,-4.0476,-4.0444,-4.0377,-4.0195,-3.9861,-3.9524,-4.3809,-4.3986,-4.4005,-4.4005,-4.4005,-4.4005,-4.4005,-4.4005,-4.4005,-4.4048,-4.4121,-4.4151,-4.425,-4.425,-4.4192,-4.4298,-4.4317,-4.4277,-4.4296,-4.4266,-4.4237,-4.4128,-4.4097,-4.4116,-4.4036,-4.4036,-4.4005,-4.4005,-4.3986,-4.3986,-4.3534,-4.2813,-4.188,-4.1107,-4.043,-3.9844,-3.9554,-3.9391,-3.9401,-3.9477,-3.958,-3.9693,-3.9739,-3.9785,-3.9848,-3.987,-3.9914,-3.9935,-3.9977,-3.9979,-4.0081,-4.0158,-4.0157,-4.0283,-4.0383,-4.0477,-4.0574,-4.0621,-4.0759,-4.079,-4.081,-4.081,-4.0865,-4.0915,-4.0991,-4.1045,-4.1062,-4.1072,-4.1087,-4.1094,-4.1091,-4.1107,-4.1101,-4.1099,-4.1116,-4.1111,-4.1111,-4.1104,-4.1074,-4.1051,-4.1047,-4.1006,-4.0921,-4.0863,-4.0818,-4.0843,-4.0871,-4.0855,-4.082,-4.0723,-4.0636,-4.061,-4.0559,-4.0549,-4.0519,-4.0504,-4.0504,-4.0489,-4.0489,-4.0489,-4.0489,-4.0489,-4.0489,-4.0489,-4.0489,-4.0489,-4.0489,-4.0489,-4.0489,-4.0489,-4.0457,-4.0427,-4.0323,-4.0042,-3.9819,-4.3679,-4.386,-4.3955,-4.4005,-4.4005,-4.4005,-4.4005,-4.4005,-4.4005,-4.4005,-4.4005,-4.4005,-4.4005,-4.4036,-4.4036,-4.4067,-4.4158,-4.4097,-4.4097,-4.4097,-4.4067,-4.4036,-4.4005,-4.4005,-4.4005,-4.4005,-4.4005,-4.4005,-4.3931,-4.354,-4.3088,-4.2281,-4.1526,-4.0698,-3.9955,-3.9445,-3.9268,-3.9237,-3.9272,-3.935,-3.9452,-3.9599,-3.967,-3.9717,-3.9826,-3.987,-3.9889,-3.9889,-3.9889,-3.987,-4.0,-4.002,-4.004,-4.0158,-4.0283,-4.0383,-4.0415,-4.0511,-4.064,-4.0687,-4.0733,-4.0778,-4.079,-4.0854,-4.0889,-4.0937,-4.0996,-4.1026,-4.1031,-4.1045,-4.1093,-4.1112,-4.111,-4.1105,-4.1101,-4.1116,-4.1114,-4.1111,-4.1088,-4.1085,-4.1055,-4.1057,-4.0998,-4.0948,-4.0922,-4.0967,-4.1003,-4.0998,-4.0928,-4.082,-4.0751,-4.0707,-4.0662,-4.0607,-4.0559,-4.0515,-4.0504,-4.0504,-4.0489,-4.0489,-4.0489,-4.0489,-4.0489,-4.0489,-4.0489,-4.0489,-4.0489,-4.0489,-4.0489,-4.0489,-4.0489,-4.0476,-4.0444,-4.0341,-4.0158,-4.3612,-4.3646,-4.3892,-4.4005,-4.4005,-4.4005,-4.4005,-4.4005,-4.4005,-4.4005,-4.4005,-4.4005,-4.4005,-4.4005,-4.4005,-4.4005,-4.4036,-4.4005,-4.4005,-4.4005,-4.4005,-4.4005,-4.4005,-4.4005,-4.4005,-4.4005,-4.4005,-4.4005,-4.3782,-4.3336,-4.2575,-4.159,-4.0866,-4.0123,-3.9398,-3.9212,-3.9129,-3.9137,-3.9192,-3.929,-3.935,-3.9502,-3.967,-3.967,-3.9781,-3.9848,-3.9889,-3.9889,-3.9889,-3.987,-3.9892,-3.9911,-3.9956,-4.0039,-4.0158,-4.023,-4.0264,-4.0367,-4.0466,-4.0496,-4.0574,-4.0654,-4.0778,-4.0765,-4.0759,-4.0846,-4.0907,-4.0966,-4.0979,-4.1046,-4.1089,-4.1094,-4.1113,-4.1113,-4.1128,-4.1123,-4.1099,-4.1114,-4.1108,-4.1088,-4.1085,-4.1074,-4.1074,-4.1013,-4.1008,-4.1078,-4.1081,-4.1078,-4.1037,-4.0915,-4.0871,-4.082,-4.0729,-4.0674,-4.0642,-4.0588,-4.0534,-4.0519,-4.0504,-4.0489,-4.0489,-4.0489,-4.0489,-4.0489,-4.0489,-4.0489,-4.0489,-4.0489,-4.0489,-4.0489,-4.0489,-4.0489,-4.0492,-4.0444,-4.0413,-4.373,-4.3892,-4.3974,-4.4005,-4.4005,-4.4005,-4.4005,-4.4005,-4.4005,-4.4005,-4.4005,-4.4005,-4.4005,-4.4005,-4.4005,-4.4005,-4.4005,-4.4005,-4.4005,-4.4005,-4.4005,-4.4005,-4.4005,-4.4005,-4.4005,-4.4005,-4.4005,-4.3936,-4.3677,-4.3095,-4.2326,-4.1539,-4.0681,-3.9769,-3.9101,-3.9045,-3.9027,-3.9027,-3.9101,-3.9156,-3.9192,-3.9298,-3.9401,-3.9477,-3.9599,-3.9739,-3.9781,-3.9845,-3.9848,-3.9889,-3.9889,-3.9889,-3.9911,-3.9935,-4.002,-4.012,-4.0139,-4.023,-4.03,-4.0332,-4.0383,-4.045,-4.0515,-4.0559,-4.0621,-4.0733,-4.0822,-4.0878,-4.0946,-4.1017,-4.1074,-4.1094,-4.1113,-4.1113,-4.1132,-4.1111,-4.1107,-4.1101,-4.1094,-4.1111,-4.1111,-4.1108,-4.1108,-4.1108,-4.1108,-4.1108,-4.1108,-4.1108,-4.1104,-4.1037,-4.0992,-4.0928,-4.0829,-4.078,-4.0734,-4.0668,-4.0607,-4.0549,-4.0519,-4.0504,-4.0504,-4.0489,-4.0489,-4.0489,-4.0489,-4.0489,-4.0489,-4.0489,-4.0489,-4.0489,-4.0489,-4.0489,-4.0489,-4.0476,-4.0479,-4.3679,-4.3828,-4.3955,-4.3942,-4.386,-4.3942,-4.4005,-4.4005,-4.4005,-4.4005,-4.4005,-4.4005,-4.4005,-4.4005,-4.4005,-4.4005,-4.4005,-4.4005,-4.4005,-4.4005,-4.3974,-4.4005,-4.4005,-4.3974,-4.4005,-4.4005,-4.3841,-4.3698,-4.3323,-4.235,-4.1464,-4.0878,-4.0067,-3.9342,-3.8815,-3.8796,-3.8873,-3.8931,-3.896,-3.8989,-3.9055,-3.9192,-3.9298,-3.9376,-3.9477,-3.9604,-3.9717,-3.9781,-3.9826,-3.987,-3.9889,-3.9889,-3.9889,-3.9892,-3.9954,-3.9998,-4.002,-4.0061,-4.0157,-4.0212,-4.023,-4.03,-4.0351,-4.0415,-4.0526,-4.0621,-4.0733,-4.079,-4.0905,-4.0971,-4.0986,-4.1016,-4.1074,-4.1094,-4.1088,-4.1055,-4.1048,-4.1054,-4.1073,-4.1105,-4.1101,-4.1108,-4.1108,-4.1108,-4.1108,-4.1108,-4.1108,-4.1108,-4.1108,-4.1108,-4.1074,-4.1033,-4.0935,-4.089,-4.0876,-4.0779,-4.0655,-4.0602,-4.0549,-4.0534,-4.0519,-4.0504,-4.0489,-4.0504,-4.0519,-4.0489,-4.0489,-4.0489,-4.0489,-4.0489,-4.0489,-4.0489,-4.0489,-4.0489,-4.0492,-4.3631,-4.3679,-4.3892,-4.386,-4.3664,-4.3892,-4.3974,-4.3942,-4.3974,-4.4005,-4.4005,-4.4005,-4.4005,-4.4005,-4.4005,-4.4005,-4.4005,-4.4005,-4.4005,-4.3974,-4.3942,-4.3878,-4.3878,-4.386,-4.3684,-4.3523,-4.3351,-4.2894,-4.2415,-4.1368,-4.0482,-3.9808,-3.9104,-3.8415,-3.8382,-3.8415,-3.8541,-3.8664,-3.8755,-3.8815,-3.897,-3.9192,-3.9245,-3.9324,-3.9401,-3.9532,-3.9623,-3.9717,-3.9758,-3.9826,-3.987,-3.9889,-3.9889,-3.9889,-3.9889,-3.9914,-3.9914,-3.9979,-4.006,-4.008,-4.0139,-4.0194,-4.0247,-4.0332,-4.0446,-4.0559,-4.0654,-4.0752,-4.0848,-4.0905,-4.0925,-4.0956,-4.1015,-4.1059,-4.1026,-4.1013,-4.0998,-4.1013,-4.1051,-4.1093,-4.1107,-4.1116,-4.1111,-4.1111,-4.1108,-4.1108,-4.1108,-4.1108,-4.1108,-4.1108,-4.1101,-4.1074,-4.1028,-4.0986,-4.0981,-4.0894,-4.0757,-4.0681,-4.0629,-4.0574,-4.053,-4.0515,-4.0534,-4.0549,-4.0549,-4.0519,-4.0504,-4.0489,-4.0489,-4.0489,-4.0489,-4.0489,-4.0489,-4.0489,-4.0489,-4.373,-4.3923,-4.4005,-4.3828,-4.3664,-4.3892,-4.3892,-4.3712,-4.3892,-4.4005,-4.3974,-4.4005,-4.4005,-4.4005,-4.4005,-4.3974,-4.3923,-4.3955,-4.4005,-4.3974,-4.3767,-4.3701,-4.3594,-4.3361,-4.2933,-4.2606,-4.2313,-4.188,-4.133,-4.0385,-3.9761,-3.9498,-3.8842,-3.8387,-3.835,-3.8382,-3.835,-3.8446,-3.8478,-3.8541,-3.8664,-3.8873,-3.9101,-3.921,-3.9272,-3.935,-3.9427,-3.9599,-3.9693,-3.9762,-3.9826,-3.987,-3.9889,-3.9889,-3.9889,-3.9889,-3.9889,-3.9892,-3.9956,-3.9977,-4.002,-4.0021,-4.012,-4.0283,-4.0419,-4.0579,-4.0673,-4.0746,-4.0829,-4.0848,-4.087,-4.0909,-4.0955,-4.0976,-4.0956,-4.0971,-4.0972,-4.0998,-4.1041,-4.1073,-4.1112,-4.1105,-4.1114,-4.1111,-4.1108,-4.1108,-4.1108,-4.1108,-4.1108,-4.1108,-4.1108,-4.1104,-4.1078,-4.1052,-4.1,-4.0987,-4.0885,-4.08,-4.0723,-4.068,-4.063,-4.0559,-4.0559,-4.061,-4.0574,-4.0519,-4.0519,-4.0519,-4.0489,-4.0489,-4.0489,-4.0489,-4.0489,-4.0489,-4.0489]}]]